<?xml version="1.0" encoding="UTF-8" standalone="no" ?><gpx xmlns="http://www.topografix.com/GPX/1/1" xmlns:gpxx="http://www.garmin.com/xmlschemas/GpxExtensions/v3" xmlns:gpxtrkx="http://www.garmin.com/xmlschemas/TrackStatsExtension/v1" xmlns:wptx1="http://www.garmin.com/xmlschemas/WaypointExtension/v1" xmlns:gpxtpx="http://www.garmin.com/xmlschemas/TrackPointExtension/v1" creator="GPSMAP 65" version="1.1" xmlns:xsi="http://www.w3.org/2001/XMLSchema-instance" xsi:schemaLocation="http://www.topografix.com/GPX/1/1 http://www.topografix.com/GPX/1/1/gpx.xsd http://www.garmin.com/xmlschemas/GpxExtensions/v3 http://www8.garmin.com/xmlschemas/GpxExtensionsv3.xsd http://www.garmin.com/xmlschemas/TrackStatsExtension/v1 http://www8.garmin.com/xmlschemas/TrackStatsExtension.xsd http://www.garmin.com/xmlschemas/WaypointExtension/v1 http://www8.garmin.com/xmlschemas/WaypointExtensionv1.xsd http://www.garmin.com/xmlschemas/TrackPointExtension/v1 http://www.garmin.com/xmlschemas/TrackPointExtensionv1.xsd"><metadata><link href="http://www.garmin.com"><text>Garmin International</text></link><time>2026-08-14T11:06:58Z</time></metadata><trk><name>20260814-ЛИСА5</name><extensions><gpxx:TrackExtension><gpxx:DisplayColor>Cyan</gpxx:DisplayColor></gpxx:TrackExtension><gpxtrkx:TrackStatsExtension><gpxtrkx:Distance>15892.000</gpxtrkx:Distance><gpxtrkx:TotalElapsedTime>42786</gpxtrkx:TotalElapsedTime><gpxtrkx:MovingTime>13256</gpxtrkx:MovingTime><gpxtrkx:StoppedTime>29243</gpxtrkx:StoppedTime><gpxtrkx:MovingSpeed>1.199</gpxtrkx:MovingSpeed><gpxtrkx:MaxSpeed>38.202</gpxtrkx:MaxSpeed><gpxtrkx:MaxElevation>427.679</gpxtrkx:MaxElevation><gpxtrkx:MinElevation>-221.953</gpxtrkx:MinElevation><gpxtrkx:Ascent>14803.000</gpxtrkx:Ascent><gpxtrkx:Descent>15220.837</gpxtrkx:Descent><gpxtrkx:AvgAscentRate>0.020</gpxtrkx:AvgAscentRate><gpxtrkx:MaxAscentRate>4.293</gpxtrkx:MaxAscentRate><gpxtrkx:AvgDescentRate>0.021</gpxtrkx:AvgDescentRate><gpxtrkx:MaxDescentRate>-7.799</gpxtrkx:MaxDescentRate></gpxtrkx:TrackStatsExtension></extensions><trkseg><trkpt lat="59.3506359681" lon="34.6995769255"><ele>164.16</ele><time>2026-08-13T23:13:52Z</time></trkpt><trkpt lat="59.3506445177" lon="34.6995990537"><ele>165.34</ele><time>2026-08-13T23:14:11Z</time></trkpt><trkpt lat="59.3506474514" lon="34.6996056754"><ele>167.60</ele><time>2026-08-13T23:14:39Z</time></trkpt><trkpt lat="59.3506401591" lon="34.6996356826"><ele>167.93</ele><time>2026-08-13T23:14:52Z</time></trkpt><trkpt lat="59.3506520614" lon="34.6995874867"><ele>165.63</ele><time>2026-08-13T23:15:19Z</time></trkpt><trkpt lat="59.3506405782" lon="34.6995798592"><ele>166.03</ele><time>2026-08-13T23:15:35Z</time></trkpt><trkpt lat="59.3506209645" lon="34.6995241195"><ele>165.62</ele><time>2026-08-13T23:15:58Z</time></trkpt><trkpt lat="59.3505743612" lon="34.6994359419"><ele>164.36</ele><time>2026-08-13T23:16:12Z</time></trkpt><trkpt lat="59.3505859282" lon="34.6994441561"><ele>163.54</ele><time>2026-08-13T23:16:38Z</time></trkpt><trkpt lat="59.3505837489" lon="34.6992933657"><ele>164.55</ele><time>2026-08-13T23:16:51Z</time></trkpt><trkpt lat="59.3505820725" lon="34.6992740873"><ele>164.60</ele><time>2026-08-13T23:16:52Z</time></trkpt><trkpt lat="59.3505300209" lon="34.6989924554"><ele>163.76</ele><time>2026-08-13T23:17:06Z</time></trkpt><trkpt lat="59.3504844233" lon="34.6987631265"><ele>164.85</ele><time>2026-08-13T23:17:18Z</time></trkpt><trkpt lat="59.3504381552" lon="34.6984768845"><ele>164.22</ele><time>2026-08-13T23:17:34Z</time></trkpt><trkpt lat="59.3503991794" lon="34.6982215717"><ele>163.57</ele><time>2026-08-13T23:17:51Z</time></trkpt><trkpt lat="59.3503799848" lon="34.6980219986"><ele>163.25</ele><time>2026-08-13T23:18:08Z</time></trkpt><trkpt lat="59.3503591977" lon="34.6978786681"><ele>163.35</ele><time>2026-08-13T23:18:19Z</time></trkpt><trkpt lat="59.3503266759" lon="34.6976045799"><ele>163.92</ele><time>2026-08-13T23:18:36Z</time></trkpt><trkpt lat="59.3502888735" lon="34.6974288952"><ele>163.64</ele><time>2026-08-13T23:18:49Z</time></trkpt><trkpt lat="59.3502475508" lon="34.6971841436"><ele>163.68</ele><time>2026-08-13T23:19:03Z</time></trkpt><trkpt lat="59.3501853570" lon="34.6969053615"><ele>163.38</ele><time>2026-08-13T23:19:19Z</time></trkpt><trkpt lat="59.3501104228" lon="34.6966889407"><ele>163.06</ele><time>2026-08-13T23:19:35Z</time></trkpt><trkpt lat="59.3501276895" lon="34.6966587659"><ele>162.29</ele><time>2026-08-13T23:19:54Z</time></trkpt><trkpt lat="59.3501412682" lon="34.6966510545"><ele>162.52</ele><time>2026-08-13T23:20:12Z</time></trkpt><trkpt lat="59.3500852771" lon="34.6965147648"><ele>162.51</ele><time>2026-08-13T23:20:23Z</time></trkpt><trkpt lat="59.3500813376" lon="34.6965174470"><ele>161.19</ele><time>2026-08-13T23:20:36Z</time></trkpt><trkpt lat="59.3500717822" lon="34.6964972466"><ele>159.95</ele><time>2026-08-13T23:21:12Z</time></trkpt><trkpt lat="59.3500035536" lon="34.6962582786"><ele>160.96</ele><time>2026-08-13T23:21:26Z</time></trkpt><trkpt lat="59.3499651644" lon="34.6960496530"><ele>161.28</ele><time>2026-08-13T23:21:39Z</time></trkpt><trkpt lat="59.3499564473" lon="34.6957329847"><ele>161.21</ele><time>2026-08-13T23:21:57Z</time></trkpt><trkpt lat="59.3499553576" lon="34.6955451462"><ele>161.02</ele><time>2026-08-13T23:22:07Z</time></trkpt><trkpt lat="59.3499546871" lon="34.6954061743"><ele>160.95</ele><time>2026-08-13T23:22:18Z</time></trkpt><trkpt lat="59.3499455508" lon="34.6951803658"><ele>161.66</ele><time>2026-08-13T23:22:31Z</time></trkpt><trkpt lat="59.3499092571" lon="34.6949451696"><ele>160.72</ele><time>2026-08-13T23:22:44Z</time></trkpt><trkpt lat="59.3499032222" lon="34.6946754400"><ele>160.75</ele><time>2026-08-13T23:23:00Z</time></trkpt><trkpt lat="59.3499063235" lon="34.6944476198"><ele>162.25</ele><time>2026-08-13T23:23:13Z</time></trkpt><trkpt lat="59.3499094248" lon="34.6943874378"><ele>162.00</ele><time>2026-08-13T23:23:17Z</time></trkpt><trkpt lat="59.3498691916" lon="34.6940311231"><ele>160.88</ele><time>2026-08-13T23:23:34Z</time></trkpt><trkpt lat="59.3498495780" lon="34.6937637404"><ele>160.82</ele><time>2026-08-13T23:23:47Z</time></trkpt><trkpt lat="59.3498068303" lon="34.6934206691"><ele>161.28</ele><time>2026-08-13T23:24:05Z</time></trkpt><trkpt lat="59.3497672677" lon="34.6930773463"><ele>161.41</ele><time>2026-08-13T23:24:23Z</time></trkpt><trkpt lat="59.3497412838" lon="34.6927501168"><ele>161.37</ele><time>2026-08-13T23:24:39Z</time></trkpt><trkpt lat="59.3497248553" lon="34.6923399903"><ele>162.07</ele><time>2026-08-13T23:24:58Z</time></trkpt><trkpt lat="59.3497314770" lon="34.6919897944"><ele>162.61</ele><time>2026-08-13T23:25:18Z</time></trkpt><trkpt lat="59.3497114442" lon="34.6916048974"><ele>162.37</ele><time>2026-08-13T23:25:37Z</time></trkpt><trkpt lat="59.3496887293" lon="34.6912229341"><ele>162.87</ele><time>2026-08-13T23:25:55Z</time></trkpt><trkpt lat="59.3496701214" lon="34.6909144800"><ele>162.86</ele><time>2026-08-13T23:26:11Z</time></trkpt><trkpt lat="59.3496542796" lon="34.6907557268"><ele>162.65</ele><time>2026-08-13T23:26:19Z</time></trkpt><trkpt lat="59.3496041559" lon="34.6904887632"><ele>162.86</ele><time>2026-08-13T23:26:34Z</time></trkpt><trkpt lat="59.3495618273" lon="34.6903128270"><ele>162.67</ele><time>2026-08-13T23:26:43Z</time></trkpt><trkpt lat="59.3494631723" lon="34.6900699195"><ele>162.55</ele><time>2026-08-13T23:26:55Z</time></trkpt><trkpt lat="59.3493983801" lon="34.6897582803"><ele>162.46</ele><time>2026-08-13T23:27:09Z</time></trkpt><trkpt lat="59.3493938539" lon="34.6897127666"><ele>162.42</ele><time>2026-08-13T23:27:11Z</time></trkpt><trkpt lat="59.3493492622" lon="34.6892897319"><ele>163.90</ele><time>2026-08-13T23:27:29Z</time></trkpt><trkpt lat="59.3492761720" lon="34.6889779251"><ele>163.73</ele><time>2026-08-13T23:27:45Z</time></trkpt><trkpt lat="59.3492405489" lon="34.6889177430"><ele>163.26</ele><time>2026-08-13T23:27:50Z</time></trkpt><trkpt lat="59.3492329214" lon="34.6888920944"><ele>162.53</ele><time>2026-08-13T23:27:52Z</time></trkpt><trkpt lat="59.3491715658" lon="34.6887649409"><ele>163.65</ele><time>2026-08-13T23:28:00Z</time></trkpt><trkpt lat="59.3491538800" lon="34.6886835527"><ele>163.73</ele><time>2026-08-13T23:28:04Z</time></trkpt><trkpt lat="59.3490432389" lon="34.6884577442"><ele>164.49</ele><time>2026-08-13T23:28:19Z</time></trkpt><trkpt lat="59.3490180932" lon="34.6884074528"><ele>164.14</ele><time>2026-08-13T23:28:22Z</time></trkpt><trkpt lat="59.3488980643" lon="34.6882608533"><ele>163.72</ele><time>2026-08-13T23:28:37Z</time></trkpt><trkpt lat="59.3488736730" lon="34.6882399824"><ele>163.51</ele><time>2026-08-13T23:28:40Z</time></trkpt><trkpt lat="59.3487586733" lon="34.6881861705"><ele>163.78</ele><time>2026-08-13T23:28:51Z</time></trkpt><trkpt lat="59.3485914543" lon="34.6881118231"><ele>163.63</ele><time>2026-08-13T23:29:07Z</time></trkpt><trkpt lat="59.3484520633" lon="34.6879783832"><ele>165.12</ele><time>2026-08-13T23:29:22Z</time></trkpt><trkpt lat="59.3483351357" lon="34.6879086457"><ele>165.71</ele><time>2026-08-13T23:29:34Z</time></trkpt><trkpt lat="59.3482109997" lon="34.6878076438"><ele>166.56</ele><time>2026-08-13T23:29:46Z</time></trkpt><trkpt lat="59.3480470497" lon="34.6876778919"><ele>167.89</ele><time>2026-08-13T23:30:00Z</time></trkpt><trkpt lat="59.3479558546" lon="34.6876257565"><ele>167.13</ele><time>2026-08-13T23:30:14Z</time></trkpt><trkpt lat="59.3478614744" lon="34.6876075678"><ele>167.13</ele><time>2026-08-13T23:30:27Z</time></trkpt><trkpt lat="59.3477585446" lon="34.6875573602"><ele>166.47</ele><time>2026-08-13T23:30:38Z</time></trkpt><trkpt lat="59.3476281222" lon="34.6875000279"><ele>167.15</ele><time>2026-08-13T23:30:53Z</time></trkpt><trkpt lat="59.3475324847" lon="34.6874348167"><ele>167.41</ele><time>2026-08-13T23:31:04Z</time></trkpt><trkpt lat="59.3473989610" lon="34.6874033846"><ele>166.55</ele><time>2026-08-13T23:31:16Z</time></trkpt><trkpt lat="59.3472912535" lon="34.6873201523"><ele>163.23</ele><time>2026-08-13T23:31:28Z</time></trkpt><trkpt lat="59.3471618369" lon="34.6872776560"><ele>161.22</ele><time>2026-08-13T23:31:41Z</time></trkpt><trkpt lat="59.3471031636" lon="34.6872545220"><ele>162.95</ele><time>2026-08-13T23:31:53Z</time></trkpt><trkpt lat="59.3470519502" lon="34.6871817671"><ele>159.28</ele><time>2026-08-13T23:32:03Z</time></trkpt><trkpt lat="59.3469551392" lon="34.6871626563"><ele>161.65</ele><time>2026-08-13T23:32:14Z</time></trkpt><trkpt lat="59.3468582444" lon="34.6871488262"><ele>161.15</ele><time>2026-08-13T23:32:25Z</time></trkpt><trkpt lat="59.3467761856" lon="34.6871274523"><ele>162.99</ele><time>2026-08-13T23:32:34Z</time></trkpt><trkpt lat="59.3466682266" lon="34.6870765742"><ele>163.98</ele><time>2026-08-13T23:32:47Z</time></trkpt><trkpt lat="59.3465475272" lon="34.6870449744"><ele>162.97</ele><time>2026-08-13T23:32:59Z</time></trkpt><trkpt lat="59.3465204537" lon="34.6870517638"><ele>163.91</ele><time>2026-08-13T23:33:01Z</time></trkpt><trkpt lat="59.3463689927" lon="34.6870378498"><ele>164.76</ele><time>2026-08-13T23:33:14Z</time></trkpt><trkpt lat="59.3462044559" lon="34.6870586369"><ele>164.38</ele><time>2026-08-13T23:33:29Z</time></trkpt><trkpt lat="59.3460817449" lon="34.6870779991"><ele>165.09</ele><time>2026-08-13T23:33:41Z</time></trkpt><trkpt lat="59.3459815811" lon="34.6871174779"><ele>164.85</ele><time>2026-08-13T23:33:51Z</time></trkpt><trkpt lat="59.3458343949" lon="34.6872023866"><ele>165.44</ele><time>2026-08-13T23:34:06Z</time></trkpt><trkpt lat="59.3457163777" lon="34.6872153785"><ele>167.37</ele><time>2026-08-13T23:34:18Z</time></trkpt><trkpt lat="59.3456907291" lon="34.6872488223"><ele>166.82</ele><time>2026-08-13T23:34:33Z</time></trkpt><trkpt lat="59.3456663378" lon="34.6872693580"><ele>167.16</ele><time>2026-08-13T23:34:46Z</time></trkpt><trkpt lat="59.3455902301" lon="34.6873117704"><ele>167.85</ele><time>2026-08-13T23:34:57Z</time></trkpt><trkpt lat="59.3454198260" lon="34.6874308772"><ele>167.62</ele><time>2026-08-13T23:35:12Z</time></trkpt><trkpt lat="59.3452745676" lon="34.6874790732"><ele>168.22</ele><time>2026-08-13T23:35:27Z</time></trkpt><trkpt lat="59.3451390322" lon="34.6875511575"><ele>168.90</ele><time>2026-08-13T23:35:41Z</time></trkpt><trkpt lat="59.3450517766" lon="34.6875018720"><ele>168.87</ele><time>2026-08-13T23:35:50Z</time></trkpt><trkpt lat="59.3449038360" lon="34.6875565220"><ele>168.14</ele><time>2026-08-13T23:36:03Z</time></trkpt><trkpt lat="59.3447648641" lon="34.6875063982"><ele>166.20</ele><time>2026-08-13T23:36:16Z</time></trkpt><trkpt lat="59.3446428236" lon="34.6872854512"><ele>166.97</ele><time>2026-08-13T23:36:31Z</time></trkpt><trkpt lat="59.3445348646" lon="34.6871624887"><ele>167.13</ele><time>2026-08-13T23:36:45Z</time></trkpt><trkpt lat="59.3444952182" lon="34.6870404482"><ele>163.23</ele><time>2026-08-13T23:36:57Z</time></trkpt><trkpt lat="59.3443994969" lon="34.6870294679"><ele>164.96</ele><time>2026-08-13T23:37:09Z</time></trkpt><trkpt lat="59.3443723395" lon="34.6869880613"><ele>165.43</ele><time>2026-08-13T23:37:13Z</time></trkpt><trkpt lat="59.3442388996" lon="34.6868542861"><ele>166.05</ele><time>2026-08-13T23:37:28Z</time></trkpt><trkpt lat="59.3442003429" lon="34.6867868956"><ele>167.28</ele><time>2026-08-13T23:37:32Z</time></trkpt><trkpt lat="59.3441630434" lon="34.6867495961"><ele>168.49</ele><time>2026-08-13T23:37:35Z</time></trkpt><trkpt lat="59.3441255763" lon="34.6867276356"><ele>168.80</ele><time>2026-08-13T23:37:39Z</time></trkpt><trkpt lat="59.3440929707" lon="34.6867091954"><ele>168.22</ele><time>2026-08-13T23:37:43Z</time></trkpt><trkpt lat="59.3440312799" lon="34.6866519470"><ele>169.15</ele><time>2026-08-13T23:37:50Z</time></trkpt><trkpt lat="59.3438815791" lon="34.6864562295"><ele>167.95</ele><time>2026-08-13T23:38:05Z</time></trkpt><trkpt lat="59.3437880371" lon="34.6862313431"><ele>166.21</ele><time>2026-08-13T23:38:18Z</time></trkpt><trkpt lat="59.3437468819" lon="34.6859471966"><ele>166.08</ele><time>2026-08-13T23:38:33Z</time></trkpt><trkpt lat="59.3437248375" lon="34.6857461985"><ele>165.71</ele><time>2026-08-13T23:38:43Z</time></trkpt><trkpt lat="59.3436641525" lon="34.6855078172"><ele>166.03</ele><time>2026-08-13T23:38:57Z</time></trkpt><trkpt lat="59.3435872905" lon="34.6852701902"><ele>167.16</ele><time>2026-08-13T23:39:10Z</time></trkpt><trkpt lat="59.3436159566" lon="34.6851797495"><ele>168.33</ele><time>2026-08-13T23:39:16Z</time></trkpt><trkpt lat="59.3437333871" lon="34.6850297973"><ele>168.41</ele><time>2026-08-13T23:39:32Z</time></trkpt><trkpt lat="59.3438095786" lon="34.6851566993"><ele>168.11</ele><time>2026-08-13T23:39:45Z</time></trkpt><trkpt lat="59.3437929824" lon="34.6851676796"><ele>169.32</ele><time>2026-08-13T23:40:09Z</time></trkpt><trkpt lat="59.3438107520" lon="34.6851349901"><ele>168.04</ele><time>2026-08-13T23:40:25Z</time></trkpt><trkpt lat="59.3438469619" lon="34.6851235908"><ele>170.03</ele><time>2026-08-13T23:40:39Z</time></trkpt><trkpt lat="59.3438397534" lon="34.6851222496"><ele>168.84</ele><time>2026-08-13T23:41:15Z</time></trkpt><trkpt lat="59.3438367359" lon="34.6850992832"><ele>166.80</ele><time>2026-08-13T23:41:49Z</time></trkpt><trkpt lat="59.3438317906" lon="34.6850888897"><ele>165.77</ele><time>2026-08-13T23:42:38Z</time></trkpt><trkpt lat="59.3438428547" lon="34.6851038933"><ele>164.86</ele><time>2026-08-13T23:43:00Z</time></trkpt><trkpt lat="59.3438241631" lon="34.6850972716"><ele>163.56</ele><time>2026-08-13T23:43:22Z</time></trkpt><trkpt lat="59.3438354786" lon="34.6850704495"><ele>163.85</ele><time>2026-08-13T23:43:41Z</time></trkpt><trkpt lat="59.3438949902" lon="34.6852360759"><ele>179.41</ele><time>2026-08-13T23:45:24Z</time></trkpt><trkpt lat="59.3439072277" lon="34.6851627342"><ele>166.55</ele><time>2026-08-13T23:45:35Z</time></trkpt><trkpt lat="59.3438808247" lon="34.6851408575"><ele>167.39</ele><time>2026-08-13T23:45:46Z</time></trkpt><trkpt lat="59.3438699283" lon="34.6851010434"><ele>170.04</ele><time>2026-08-13T23:45:49Z</time></trkpt><trkpt lat="59.3438994326" lon="34.6849853732"><ele>175.26</ele><time>2026-08-13T23:45:58Z</time></trkpt><trkpt lat="59.3438789807" lon="34.6849363390"><ele>174.48</ele><time>2026-08-13T23:46:02Z</time></trkpt><trkpt lat="59.3439212255" lon="34.6848913282"><ele>179.45</ele><time>2026-08-13T23:46:08Z</time></trkpt><trkpt lat="59.3439377379" lon="34.6848077606"><ele>180.30</ele><time>2026-08-13T23:46:16Z</time></trkpt><trkpt lat="59.3439496402" lon="34.6846970357"><ele>177.86</ele><time>2026-08-13T23:46:26Z</time></trkpt><trkpt lat="59.3439525738" lon="34.6846508514"><ele>177.84</ele><time>2026-08-13T23:46:44Z</time></trkpt><trkpt lat="59.3439319544" lon="34.6844408847"><ele>149.78</ele><time>2026-08-13T23:47:02Z</time></trkpt><trkpt lat="59.3439320382" lon="34.6843007393"><ele>161.36</ele><time>2026-08-13T23:47:14Z</time></trkpt><trkpt lat="59.3438542541" lon="34.6841529664"><ele>167.06</ele><time>2026-08-13T23:47:26Z</time></trkpt><trkpt lat="59.3438413460" lon="34.6841001604"><ele>169.96</ele><time>2026-08-13T23:47:53Z</time></trkpt><trkpt lat="59.3438266777" lon="34.6840382181"><ele>170.72</ele><time>2026-08-13T23:48:36Z</time></trkpt><trkpt lat="59.3438202236" lon="34.6840425767"><ele>172.50</ele><time>2026-08-13T23:49:22Z</time></trkpt><trkpt lat="59.3438142724" lon="34.6840517968"><ele>172.41</ele><time>2026-08-13T23:49:45Z</time></trkpt><trkpt lat="59.3438542541" lon="34.6839607693"><ele>170.46</ele><time>2026-08-13T23:50:11Z</time></trkpt><trkpt lat="59.3439015280" lon="34.6838860866"><ele>170.12</ele><time>2026-08-13T23:50:26Z</time></trkpt><trkpt lat="59.3439312838" lon="34.6837703325"><ele>170.54</ele><time>2026-08-13T23:50:37Z</time></trkpt><trkpt lat="59.3440007698" lon="34.6836395748"><ele>170.06</ele><time>2026-08-13T23:50:53Z</time></trkpt><trkpt lat="59.3440361414" lon="34.6834997647"><ele>170.57</ele><time>2026-08-13T23:51:04Z</time></trkpt><trkpt lat="59.3440371472" lon="34.6834723558"><ele>170.48</ele><time>2026-08-13T23:51:09Z</time></trkpt><trkpt lat="59.3440571800" lon="34.6832808293"><ele>170.40</ele><time>2026-08-13T23:51:24Z</time></trkpt><trkpt lat="59.3440374825" lon="34.6832314599"><ele>169.86</ele><time>2026-08-13T23:51:28Z</time></trkpt><trkpt lat="59.3440264184" lon="34.6832122654"><ele>169.66</ele><time>2026-08-13T23:51:43Z</time></trkpt><trkpt lat="59.3440015242" lon="34.6831909753"><ele>170.92</ele><time>2026-08-13T23:52:30Z</time></trkpt><trkpt lat="59.3439915497" lon="34.6831678413"><ele>172.47</ele><time>2026-08-13T23:53:29Z</time></trkpt><trkpt lat="59.3440100737" lon="34.6831706911"><ele>172.66</ele><time>2026-08-13T23:53:53Z</time></trkpt><trkpt lat="59.3440523185" lon="34.6831171308"><ele>172.52</ele><time>2026-08-13T23:54:17Z</time></trkpt><trkpt lat="59.3441176973" lon="34.6829196531"><ele>173.95</ele><time>2026-08-13T23:54:30Z</time></trkpt><trkpt lat="59.3441274203" lon="34.6827383526"><ele>172.48</ele><time>2026-08-13T23:54:43Z</time></trkpt><trkpt lat="59.3441318627" lon="34.6825871430"><ele>171.63</ele><time>2026-08-13T23:54:55Z</time></trkpt><trkpt lat="59.3441243190" lon="34.6824104525"><ele>169.54</ele><time>2026-08-13T23:55:11Z</time></trkpt><trkpt lat="59.3440327886" lon="34.6822473407"><ele>171.08</ele><time>2026-08-13T23:55:27Z</time></trkpt><trkpt lat="59.3440151867" lon="34.6820676327"><ele>171.86</ele><time>2026-08-13T23:55:37Z</time></trkpt><trkpt lat="59.3439981714" lon="34.6819695644"><ele>172.63</ele><time>2026-08-13T23:55:53Z</time></trkpt><trkpt lat="59.3439974170" lon="34.6819375455"><ele>171.44</ele><time>2026-08-13T23:56:17Z</time></trkpt><trkpt lat="59.3439665716" lon="34.6820213646"><ele>170.32</ele><time>2026-08-13T23:56:38Z</time></trkpt><trkpt lat="59.3439544179" lon="34.6820375416"><ele>169.56</ele><time>2026-08-13T23:56:55Z</time></trkpt><trkpt lat="59.3440017756" lon="34.6819967218"><ele>166.22</ele><time>2026-08-13T23:57:38Z</time></trkpt><trkpt lat="59.3440271728" lon="34.6820310876"><ele>167.44</ele><time>2026-08-13T23:58:37Z</time></trkpt><trkpt lat="59.3439727742" lon="34.6819558181"><ele>167.86</ele><time>2026-08-13T23:59:20Z</time></trkpt><trkpt lat="59.3439717684" lon="34.6819758508"><ele>165.88</ele><time>2026-08-14T00:00:02Z</time></trkpt><trkpt lat="59.3439677451" lon="34.6820002422"><ele>166.76</ele><time>2026-08-14T00:00:40Z</time></trkpt><trkpt lat="59.3439885322" lon="34.6819484420"><ele>166.45</ele><time>2026-08-14T00:01:02Z</time></trkpt><trkpt lat="59.3440570962" lon="34.6818570793"><ele>166.78</ele><time>2026-08-14T00:01:17Z</time></trkpt><trkpt lat="59.3440831639" lon="34.6817109827"><ele>166.20</ele><time>2026-08-14T00:01:29Z</time></trkpt><trkpt lat="59.3440786377" lon="34.6815540735"><ele>166.04</ele><time>2026-08-14T00:01:39Z</time></trkpt><trkpt lat="59.3441126682" lon="34.6814745292"><ele>166.10</ele><time>2026-08-14T00:01:47Z</time></trkpt><trkpt lat="59.3441236485" lon="34.6813006885"><ele>165.68</ele><time>2026-08-14T00:01:59Z</time></trkpt><trkpt lat="59.3441093992" lon="34.6810818370"><ele>166.81</ele><time>2026-08-14T00:02:16Z</time></trkpt><trkpt lat="59.3441907875" lon="34.6808674280"><ele>167.52</ele><time>2026-08-14T00:02:31Z</time></trkpt><trkpt lat="59.3441891950" lon="34.6808700264"><ele>167.41</ele><time>2026-08-14T00:02:58Z</time></trkpt><trkpt lat="59.3441882730" lon="34.6808733791"><ele>168.32</ele><time>2026-08-14T00:03:46Z</time></trkpt><trkpt lat="59.3442002591" lon="34.6808339842"><ele>170.38</ele><time>2026-08-14T00:04:42Z</time></trkpt><trkpt lat="59.3442155980" lon="34.6807816811"><ele>170.70</ele><time>2026-08-14T00:04:54Z</time></trkpt><trkpt lat="59.3442586809" lon="34.6806578804"><ele>170.29</ele><time>2026-08-14T00:05:05Z</time></trkpt><trkpt lat="59.3442952260" lon="34.6804286353"><ele>169.56</ele><time>2026-08-14T00:05:20Z</time></trkpt><trkpt lat="59.3443193659" lon="34.6803033259"><ele>167.73</ele><time>2026-08-14T00:05:30Z</time></trkpt><trkpt lat="59.3443301786" lon="34.6801516972"><ele>169.45</ele><time>2026-08-14T00:05:44Z</time></trkpt><trkpt lat="59.3443769496" lon="34.6801399626"><ele>167.57</ele><time>2026-08-14T00:05:59Z</time></trkpt><trkpt lat="59.3443832360" lon="34.6801142301"><ele>166.53</ele><time>2026-08-14T00:06:28Z</time></trkpt><trkpt lat="59.3443840742" lon="34.6801605821"><ele>166.36</ele><time>2026-08-14T00:07:09Z</time></trkpt><trkpt lat="59.3443908636" lon="34.6801407170"><ele>165.50</ele><time>2026-08-14T00:08:02Z</time></trkpt><trkpt lat="59.3443960603" lon="34.6801354364"><ele>165.41</ele><time>2026-08-14T00:08:53Z</time></trkpt><trkpt lat="59.3444023468" lon="34.6801442374"><ele>165.99</ele><time>2026-08-14T00:09:35Z</time></trkpt><trkpt lat="59.3443868402" lon="34.6801795252"><ele>166.43</ele><time>2026-08-14T00:10:12Z</time></trkpt><trkpt lat="59.3444077950" lon="34.6800412238"><ele>166.95</ele><time>2026-08-14T00:10:31Z</time></trkpt><trkpt lat="59.3444565777" lon="34.6799427364"><ele>167.18</ele><time>2026-08-14T00:10:44Z</time></trkpt><trkpt lat="59.3444864172" lon="34.6797668841"><ele>167.04</ele><time>2026-08-14T00:10:55Z</time></trkpt><trkpt lat="59.3444944639" lon="34.6796099748"><ele>167.45</ele><time>2026-08-14T00:11:09Z</time></trkpt><trkpt lat="59.3444701564" lon="34.6794444323"><ele>167.07</ele><time>2026-08-14T00:11:30Z</time></trkpt><trkpt lat="59.3443663884" lon="34.6793605294"><ele>165.47</ele><time>2026-08-14T00:11:41Z</time></trkpt><trkpt lat="59.3443112355" lon="34.6792326216"><ele>164.73</ele><time>2026-08-14T00:11:53Z</time></trkpt><trkpt lat="59.3443036918" lon="34.6791704278"><ele>165.19</ele><time>2026-08-14T00:11:58Z</time></trkpt><trkpt lat="59.3443106487" lon="34.6790668275"><ele>164.84</ele><time>2026-08-14T00:12:13Z</time></trkpt><trkpt lat="59.3442850839" lon="34.6790355630"><ele>163.48</ele><time>2026-08-14T00:12:49Z</time></trkpt><trkpt lat="59.3443011772" lon="34.6790009458"><ele>164.69</ele><time>2026-08-14T00:13:22Z</time></trkpt><trkpt lat="59.3442914542" lon="34.6789850201"><ele>164.79</ele><time>2026-08-14T00:14:05Z</time></trkpt><trkpt lat="59.3442853354" lon="34.6789749619"><ele>165.20</ele><time>2026-08-14T00:14:23Z</time></trkpt><trkpt lat="59.3443779554" lon="34.6789316274"><ele>165.58</ele><time>2026-08-14T00:14:39Z</time></trkpt><trkpt lat="59.3444148358" lon="34.6788238361"><ele>165.26</ele><time>2026-08-14T00:14:50Z</time></trkpt><trkpt lat="59.3444842380" lon="34.6787199844"><ele>164.83</ele><time>2026-08-14T00:15:02Z</time></trkpt><trkpt lat="59.3445398938" lon="34.6786263585"><ele>165.05</ele><time>2026-08-14T00:15:16Z</time></trkpt><trkpt lat="59.3446305860" lon="34.6784623247"><ele>165.98</ele><time>2026-08-14T00:15:29Z</time></trkpt><trkpt lat="59.3447052687" lon="34.6783560421"><ele>166.02</ele><time>2026-08-14T00:15:44Z</time></trkpt><trkpt lat="59.3447221164" lon="34.6782837901"><ele>166.37</ele><time>2026-08-14T00:16:00Z</time></trkpt><trkpt lat="59.3447538838" lon="34.6783245262"><ele>167.78</ele><time>2026-08-14T00:17:09Z</time></trkpt><trkpt lat="59.3447768502" lon="34.6783480793"><ele>169.28</ele><time>2026-08-14T00:18:03Z</time></trkpt><trkpt lat="59.3448227830" lon="34.6783470735"><ele>170.56</ele><time>2026-08-14T00:19:29Z</time></trkpt><trkpt lat="59.3447470944" lon="34.6782421321"><ele>169.86</ele><time>2026-08-14T00:19:59Z</time></trkpt><trkpt lat="59.3447541352" lon="34.6780606639"><ele>168.13</ele><time>2026-08-14T00:20:11Z</time></trkpt><trkpt lat="59.3447789457" lon="34.6778768487"><ele>166.77</ele><time>2026-08-14T00:20:24Z</time></trkpt><trkpt lat="59.3447897583" lon="34.6778260544"><ele>167.29</ele><time>2026-08-14T00:20:28Z</time></trkpt><trkpt lat="59.3448334280" lon="34.6776679717"><ele>165.81</ele><time>2026-08-14T00:20:41Z</time></trkpt><trkpt lat="59.3448151555" lon="34.6774616931"><ele>164.41</ele><time>2026-08-14T00:20:58Z</time></trkpt><trkpt lat="59.3447084539" lon="34.6774327755"><ele>164.66</ele><time>2026-08-14T00:21:11Z</time></trkpt><trkpt lat="59.3446281552" lon="34.6773915365"><ele>163.91</ele><time>2026-08-14T00:21:21Z</time></trkpt><trkpt lat="59.3446586654" lon="34.6772877686"><ele>163.53</ele><time>2026-08-14T00:21:31Z</time></trkpt><trkpt lat="59.3446449190" lon="34.6771774627"><ele>164.14</ele><time>2026-08-14T00:21:49Z</time></trkpt><trkpt lat="59.3446390517" lon="34.6771880239"><ele>165.76</ele><time>2026-08-14T00:22:34Z</time></trkpt><trkpt lat="59.3446431588" lon="34.6771628782"><ele>167.25</ele><time>2026-08-14T00:23:20Z</time></trkpt><trkpt lat="59.3446417339" lon="34.6771138441"><ele>166.16</ele><time>2026-08-14T00:23:59Z</time></trkpt><trkpt lat="59.3446434941" lon="34.6771190409"><ele>166.19</ele><time>2026-08-14T00:24:02Z</time></trkpt><trkpt lat="59.3446309213" lon="34.6771132573"><ele>167.18</ele><time>2026-08-14T00:24:25Z</time></trkpt><trkpt lat="59.3446291611" lon="34.6771625429"><ele>167.87</ele><time>2026-08-14T00:25:26Z</time></trkpt><trkpt lat="59.3446453381" lon="34.6771229804"><ele>167.39</ele><time>2026-08-14T00:26:11Z</time></trkpt><trkpt lat="59.3447234575" lon="34.6770087350"><ele>167.37</ele><time>2026-08-14T00:26:27Z</time></trkpt><trkpt lat="59.3448062707" lon="34.6768279374"><ele>167.96</ele><time>2026-08-14T00:26:40Z</time></trkpt><trkpt lat="59.3448354397" lon="34.6767125186"><ele>168.47</ele><time>2026-08-14T00:26:51Z</time></trkpt><trkpt lat="59.3447792809" lon="34.6766814217"><ele>169.05</ele><time>2026-08-14T00:27:02Z</time></trkpt><trkpt lat="59.3447761796" lon="34.6765187290"><ele>169.26</ele><time>2026-08-14T00:27:13Z</time></trkpt><trkpt lat="59.3447647803" lon="34.6763533540"><ele>168.09</ele><time>2026-08-14T00:27:31Z</time></trkpt><trkpt lat="59.3447602540" lon="34.6760547906"><ele>167.46</ele><time>2026-08-14T00:27:43Z</time></trkpt><trkpt lat="59.3447558954" lon="34.6758904215"><ele>168.40</ele><time>2026-08-14T00:27:55Z</time></trkpt><trkpt lat="59.3447542191" lon="34.6758803632"><ele>166.12</ele><time>2026-08-14T00:28:15Z</time></trkpt><trkpt lat="59.3447486870" lon="34.6758660302"><ele>165.90</ele><time>2026-08-14T00:28:42Z</time></trkpt><trkpt lat="59.3447413947" lon="34.6758184209"><ele>165.89</ele><time>2026-08-14T00:29:21Z</time></trkpt><trkpt lat="59.3447670434" lon="34.6758468356"><ele>166.63</ele><time>2026-08-14T00:29:53Z</time></trkpt><trkpt lat="59.3447633553" lon="34.6758798603"><ele>166.33</ele><time>2026-08-14T00:30:17Z</time></trkpt><trkpt lat="59.3447526265" lon="34.6758714784"><ele>166.95</ele><time>2026-08-14T00:30:50Z</time></trkpt><trkpt lat="59.3447545543" lon="34.6758347657"><ele>166.78</ele><time>2026-08-14T00:31:07Z</time></trkpt><trkpt lat="59.3448016606" lon="34.6757049300"><ele>165.82</ele><time>2026-08-14T00:31:23Z</time></trkpt><trkpt lat="59.3448291533" lon="34.6755720768"><ele>166.08</ele><time>2026-08-14T00:31:34Z</time></trkpt><trkpt lat="59.3448332604" lon="34.6755522955"><ele>166.34</ele><time>2026-08-14T00:31:35Z</time></trkpt><trkpt lat="59.3449034169" lon="34.6753975656"><ele>167.26</ele><time>2026-08-14T00:31:47Z</time></trkpt><trkpt lat="59.3449496850" lon="34.6752585936"><ele>165.98</ele><time>2026-08-14T00:32:00Z</time></trkpt><trkpt lat="59.3449568935" lon="34.6751045343"><ele>165.04</ele><time>2026-08-14T00:32:14Z</time></trkpt><trkpt lat="59.3449844699" lon="34.6750113275"><ele>166.14</ele><time>2026-08-14T00:32:32Z</time></trkpt><trkpt lat="59.3449682929" lon="34.6750271693"><ele>167.02</ele><time>2026-08-14T00:32:51Z</time></trkpt><trkpt lat="59.3449676223" lon="34.6750074718"><ele>168.71</ele><time>2026-08-14T00:33:44Z</time></trkpt><trkpt lat="59.3449669518" lon="34.6750025265"><ele>169.08</ele><time>2026-08-14T00:34:26Z</time></trkpt><trkpt lat="59.3449863978" lon="34.6750007663"><ele>168.27</ele><time>2026-08-14T00:34:43Z</time></trkpt><trkpt lat="59.3450151477" lon="34.6748536639"><ele>167.38</ele><time>2026-08-14T00:35:00Z</time></trkpt><trkpt lat="59.3450821191" lon="34.6746491455"><ele>167.28</ele><time>2026-08-14T00:35:18Z</time></trkpt><trkpt lat="59.3450974580" lon="34.6745151188"><ele>166.13</ele><time>2026-08-14T00:35:33Z</time></trkpt><trkpt lat="59.3450641818" lon="34.6743047331"><ele>165.54</ele><time>2026-08-14T00:35:48Z</time></trkpt><trkpt lat="59.3449884932" lon="34.6741710417"><ele>164.98</ele><time>2026-08-14T00:36:00Z</time></trkpt><trkpt lat="59.3449785188" lon="34.6741512604"><ele>165.07</ele><time>2026-08-14T00:36:01Z</time></trkpt><trkpt lat="59.3449322507" lon="34.6740783378"><ele>164.44</ele><time>2026-08-14T00:36:19Z</time></trkpt><trkpt lat="59.3449437339" lon="34.6740859654"><ele>165.35</ele><time>2026-08-14T00:36:36Z</time></trkpt><trkpt lat="59.3449292332" lon="34.6740531921"><ele>164.89</ele><time>2026-08-14T00:37:22Z</time></trkpt><trkpt lat="59.3449177500" lon="34.6740459837"><ele>167.04</ele><time>2026-08-14T00:38:23Z</time></trkpt><trkpt lat="59.3449123856" lon="34.6739719715"><ele>167.53</ele><time>2026-08-14T00:38:47Z</time></trkpt><trkpt lat="59.3449220248" lon="34.6738838777"><ele>168.52</ele><time>2026-08-14T00:39:06Z</time></trkpt><trkpt lat="59.3449306581" lon="34.6738227736"><ele>168.33</ele><time>2026-08-14T00:39:22Z</time></trkpt><trkpt lat="59.3449295685" lon="34.6737762541"><ele>168.72</ele><time>2026-08-14T00:39:38Z</time></trkpt><trkpt lat="59.3449342623" lon="34.6736655291"><ele>168.47</ele><time>2026-08-14T00:39:54Z</time></trkpt><trkpt lat="59.3449498527" lon="34.6735671256"><ele>168.07</ele><time>2026-08-14T00:40:06Z</time></trkpt><trkpt lat="59.3449684605" lon="34.6734984778"><ele>167.60</ele><time>2026-08-14T00:40:22Z</time></trkpt><trkpt lat="59.3449653592" lon="34.6735084523"><ele>167.36</ele><time>2026-08-14T00:40:43Z</time></trkpt><trkpt lat="59.3449630961" lon="34.6735071950"><ele>167.51</ele><time>2026-08-14T00:41:11Z</time></trkpt><trkpt lat="59.3449862301" lon="34.6734399721"><ele>167.37</ele><time>2026-08-14T00:41:32Z</time></trkpt><trkpt lat="59.3450577278" lon="34.6732862480"><ele>167.12</ele><time>2026-08-14T00:41:50Z</time></trkpt><trkpt lat="59.3451187480" lon="34.6732385550"><ele>166.94</ele><time>2026-08-14T00:42:03Z</time></trkpt><trkpt lat="59.3451215979" lon="34.6732376330"><ele>166.50</ele><time>2026-08-14T00:42:29Z</time></trkpt><trkpt lat="59.3451234419" lon="34.6732458472"><ele>166.19</ele><time>2026-08-14T00:42:52Z</time></trkpt><trkpt lat="59.3451248668" lon="34.6732312627"><ele>166.54</ele><time>2026-08-14T00:43:21Z</time></trkpt><trkpt lat="59.3451233581" lon="34.6732332744"><ele>166.21</ele><time>2026-08-14T00:43:51Z</time></trkpt><trkpt lat="59.3451376911" lon="34.6732538939"><ele>165.65</ele><time>2026-08-14T00:44:32Z</time></trkpt><trkpt lat="59.3451399542" lon="34.6732490323"><ele>165.79</ele><time>2026-08-14T00:44:51Z</time></trkpt><trkpt lat="59.3451334164" lon="34.6732472721"><ele>165.64</ele><time>2026-08-14T00:45:50Z</time></trkpt><trkpt lat="59.3451856356" lon="34.6731408220"><ele>165.27</ele><time>2026-08-14T00:46:16Z</time></trkpt><trkpt lat="59.3452416267" lon="34.6729675680"><ele>165.31</ele><time>2026-08-14T00:46:30Z</time></trkpt><trkpt lat="59.3452927563" lon="34.6728517301"><ele>165.66</ele><time>2026-08-14T00:46:43Z</time></trkpt><trkpt lat="59.3453113642" lon="34.6728146821"><ele>165.52</ele><time>2026-08-14T00:47:01Z</time></trkpt><trkpt lat="59.3452917505" lon="34.6727663185"><ele>165.63</ele><time>2026-08-14T00:47:16Z</time></trkpt><trkpt lat="59.3452832848" lon="34.6727203857"><ele>165.27</ele><time>2026-08-14T00:47:21Z</time></trkpt><trkpt lat="59.3452640902" lon="34.6725569386"><ele>166.04</ele><time>2026-08-14T00:47:35Z</time></trkpt><trkpt lat="59.3452475779" lon="34.6723820921"><ele>166.37</ele><time>2026-08-14T00:47:47Z</time></trkpt><trkpt lat="59.3452837877" lon="34.6722344868"><ele>166.16</ele><time>2026-08-14T00:48:00Z</time></trkpt><trkpt lat="59.3452954385" lon="34.6720558684"><ele>166.93</ele><time>2026-08-14T00:48:16Z</time></trkpt><trkpt lat="59.3452968635" lon="34.6719492506"><ele>167.10</ele><time>2026-08-14T00:48:30Z</time></trkpt><trkpt lat="59.3452985398" lon="34.6720050741"><ele>167.38</ele><time>2026-08-14T00:48:52Z</time></trkpt><trkpt lat="59.3453138787" lon="34.6719215903"><ele>168.00</ele><time>2026-08-14T00:49:38Z</time></trkpt><trkpt lat="59.3452860508" lon="34.6719078440"><ele>167.94</ele><time>2026-08-14T00:50:34Z</time></trkpt><trkpt lat="59.3452911638" lon="34.6719158906"><ele>170.38</ele><time>2026-08-14T00:51:23Z</time></trkpt><trkpt lat="59.3453043234" lon="34.6718983725"><ele>169.55</ele><time>2026-08-14T00:51:57Z</time></trkpt><trkpt lat="59.3452702928" lon="34.6719393600"><ele>170.28</ele><time>2026-08-14T00:52:16Z</time></trkpt><trkpt lat="59.3452083506" lon="34.6718122903"><ele>169.78</ele><time>2026-08-14T00:52:28Z</time></trkpt><trkpt lat="59.3451784272" lon="34.6717053372"><ele>169.49</ele><time>2026-08-14T00:52:40Z</time></trkpt><trkpt lat="59.3450912554" lon="34.6716638468"><ele>169.28</ele><time>2026-08-14T00:52:52Z</time></trkpt><trkpt lat="59.3450644333" lon="34.6716695465"><ele>169.32</ele><time>2026-08-14T00:52:57Z</time></trkpt><trkpt lat="59.3449895829" lon="34.6716584824"><ele>170.00</ele><time>2026-08-14T00:53:10Z</time></trkpt><trkpt lat="59.3449160736" lon="34.6717463247"><ele>169.14</ele><time>2026-08-14T00:53:25Z</time></trkpt><trkpt lat="59.3449263833" lon="34.6717567183"><ele>169.46</ele><time>2026-08-14T00:53:58Z</time></trkpt><trkpt lat="59.3449318316" lon="34.6719280444"><ele>168.91</ele><time>2026-08-14T00:54:12Z</time></trkpt><trkpt lat="59.3449028302" lon="34.6720206644"><ele>169.19</ele><time>2026-08-14T00:54:19Z</time></trkpt><trkpt lat="59.3448224477" lon="34.6721680183"><ele>168.09</ele><time>2026-08-14T00:54:36Z</time></trkpt><trkpt lat="59.3447941169" lon="34.6722418629"><ele>167.86</ele><time>2026-08-14T00:54:54Z</time></trkpt><trkpt lat="59.3447862379" lon="34.6722541843"><ele>166.60</ele><time>2026-08-14T00:55:13Z</time></trkpt><trkpt lat="59.3447198533" lon="34.6723078284"><ele>166.02</ele><time>2026-08-14T00:55:28Z</time></trkpt><trkpt lat="59.3446926959" lon="34.6723155398"><ele>165.50</ele><time>2026-08-14T00:55:58Z</time></trkpt><trkpt lat="59.3446090445" lon="34.6723549347"><ele>165.74</ele><time>2026-08-14T00:56:12Z</time></trkpt><trkpt lat="59.3445390556" lon="34.6723576169"><ele>167.65</ele><time>2026-08-14T00:56:22Z</time></trkpt><trkpt lat="59.3444732577" lon="34.6724610496"><ele>167.29</ele><time>2026-08-14T00:56:38Z</time></trkpt><trkpt lat="59.3443916179" lon="34.6725334693"><ele>167.95</ele><time>2026-08-14T00:56:51Z</time></trkpt><trkpt lat="59.3443832360" lon="34.6725399233"><ele>163.93</ele><time>2026-08-14T00:56:53Z</time></trkpt><trkpt lat="59.3443056196" lon="34.6725070663"><ele>164.51</ele><time>2026-08-14T00:57:07Z</time></trkpt><trkpt lat="59.3442315236" lon="34.6725288592"><ele>165.47</ele><time>2026-08-14T00:57:29Z</time></trkpt><trkpt lat="59.3442215491" lon="34.6725617163"><ele>165.43</ele><time>2026-08-14T00:58:00Z</time></trkpt><trkpt lat="59.3442058749" lon="34.6725614648"><ele>164.02</ele><time>2026-08-14T00:58:57Z</time></trkpt><trkpt lat="59.3442022707" lon="34.6725671645"><ele>166.01</ele><time>2026-08-14T00:59:53Z</time></trkpt><trkpt lat="59.3442223873" lon="34.6725921426"><ele>164.98</ele><time>2026-08-14T01:00:16Z</time></trkpt><trkpt lat="59.3442691583" lon="34.6726554260"><ele>165.75</ele><time>2026-08-14T01:00:27Z</time></trkpt><trkpt lat="59.3442878500" lon="34.6727882791"><ele>166.37</ele><time>2026-08-14T01:00:39Z</time></trkpt><trkpt lat="59.3443450984" lon="34.6727956552"><ele>165.95</ele><time>2026-08-14T01:00:55Z</time></trkpt><trkpt lat="59.3444465194" lon="34.6728701703"><ele>167.38</ele><time>2026-08-14T01:01:07Z</time></trkpt><trkpt lat="59.3444258999" lon="34.6730304323"><ele>167.46</ele><time>2026-08-14T01:01:21Z</time></trkpt><trkpt lat="59.3444662169" lon="34.6731276624"><ele>166.63</ele><time>2026-08-14T01:01:35Z</time></trkpt><trkpt lat="59.3445088807" lon="34.6731896885"><ele>167.20</ele><time>2026-08-14T01:01:58Z</time></trkpt><trkpt lat="59.3445803784" lon="34.6733805444"><ele>166.94</ele><time>2026-08-14T01:02:16Z</time></trkpt><trkpt lat="59.3445531372" lon="34.6735446621"><ele>169.50</ele><time>2026-08-14T01:02:30Z</time></trkpt><trkpt lat="59.3444387242" lon="34.6736195963"><ele>166.63</ele><time>2026-08-14T01:02:45Z</time></trkpt><trkpt lat="59.3444201164" lon="34.6736154892"><ele>166.81</ele><time>2026-08-14T01:02:48Z</time></trkpt><trkpt lat="59.3443190306" lon="34.6736666188"><ele>169.56</ele><time>2026-08-14T01:03:02Z</time></trkpt><trkpt lat="59.3442367204" lon="34.6736488491"><ele>170.44</ele><time>2026-08-14T01:03:19Z</time></trkpt><trkpt lat="59.3442051206" lon="34.6737832949"><ele>167.96</ele><time>2026-08-14T01:03:33Z</time></trkpt><trkpt lat="59.3442007620" lon="34.6737200953"><ele>169.88</ele><time>2026-08-14T01:03:57Z</time></trkpt><trkpt lat="59.3442071322" lon="34.6737102885"><ele>170.21</ele><time>2026-08-14T01:04:24Z</time></trkpt><trkpt lat="59.3442169391" lon="34.6737520304"><ele>169.64</ele><time>2026-08-14T01:04:58Z</time></trkpt><trkpt lat="59.3442063779" lon="34.6737546287"><ele>169.51</ele><time>2026-08-14T01:05:33Z</time></trkpt><trkpt lat="59.3442095630" lon="34.6737566404"><ele>169.90</ele><time>2026-08-14T01:06:03Z</time></trkpt><trkpt lat="59.3442095630" lon="34.6737655252"><ele>170.46</ele><time>2026-08-14T01:06:05Z</time></trkpt><trkpt lat="59.3442418333" lon="34.6738769207"><ele>173.46</ele><time>2026-08-14T01:06:18Z</time></trkpt><trkpt lat="59.3442233931" lon="34.6738601569"><ele>172.17</ele><time>2026-08-14T01:06:37Z</time></trkpt><trkpt lat="59.3442286737" lon="34.6738603245"><ele>168.73</ele><time>2026-08-14T01:07:19Z</time></trkpt><trkpt lat="59.3442302663" lon="34.6738332510"><ele>166.53</ele><time>2026-08-14T01:07:57Z</time></trkpt><trkpt lat="59.3442488741" lon="34.6738756634"><ele>165.74</ele><time>2026-08-14T01:08:34Z</time></trkpt><trkpt lat="59.3443176895" lon="34.6740013920"><ele>165.57</ele><time>2026-08-14T01:08:48Z</time></trkpt><trkpt lat="59.3443642929" lon="34.6741442196"><ele>167.11</ele><time>2026-08-14T01:09:01Z</time></trkpt><trkpt lat="59.3443532288" lon="34.6744375862"><ele>166.13</ele><time>2026-08-14T01:09:24Z</time></trkpt><trkpt lat="59.3443371356" lon="34.6745574474"><ele>166.86</ele><time>2026-08-14T01:09:40Z</time></trkpt><trkpt lat="59.3443512172" lon="34.6747355629"><ele>165.82</ele><time>2026-08-14T01:09:57Z</time></trkpt><trkpt lat="59.3443140853" lon="34.6749051288"><ele>166.23</ele><time>2026-08-14T01:10:18Z</time></trkpt><trkpt lat="59.3442825694" lon="34.6749030333"><ele>163.93</ele><time>2026-08-14T01:10:25Z</time></trkpt><trkpt lat="59.3441819865" lon="34.6749378182"><ele>162.64</ele><time>2026-08-14T01:10:41Z</time></trkpt><trkpt lat="59.3441589363" lon="34.6749655623"><ele>163.04</ele><time>2026-08-14T01:11:01Z</time></trkpt><trkpt lat="59.3441450223" lon="34.6749977488"><ele>163.26</ele><time>2026-08-14T01:11:44Z</time></trkpt><trkpt lat="59.3441405799" lon="34.6750072204"><ele>164.30</ele><time>2026-08-14T01:12:40Z</time></trkpt><trkpt lat="59.3441534881" lon="34.6750329528"><ele>164.69</ele><time>2026-08-14T01:13:13Z</time></trkpt><trkpt lat="59.3441370595" lon="34.6751517244"><ele>163.91</ele><time>2026-08-14T01:13:26Z</time></trkpt><trkpt lat="59.3441576790" lon="34.6753128245"><ele>163.77</ele><time>2026-08-14T01:13:39Z</time></trkpt><trkpt lat="59.3441518955" lon="34.6754163411"><ele>163.92</ele><time>2026-08-14T01:13:48Z</time></trkpt><trkpt lat="59.3441093992" lon="34.6754938737"><ele>165.11</ele><time>2026-08-14T01:14:00Z</time></trkpt><trkpt lat="59.3441012688" lon="34.6756925248"><ele>165.18</ele><time>2026-08-14T01:14:15Z</time></trkpt><trkpt lat="59.3440745305" lon="34.6757782716"><ele>164.80</ele><time>2026-08-14T01:14:29Z</time></trkpt><trkpt lat="59.3440727703" lon="34.6759340912"><ele>166.54</ele><time>2026-08-14T01:14:46Z</time></trkpt><trkpt lat="59.3440403324" lon="34.6760293934"><ele>166.89</ele><time>2026-08-14T01:15:08Z</time></trkpt><trkpt lat="59.3439854309" lon="34.6761209238"><ele>168.04</ele><time>2026-08-14T01:15:20Z</time></trkpt><trkpt lat="59.3439359777" lon="34.6762403660"><ele>168.88</ele><time>2026-08-14T01:15:33Z</time></trkpt><trkpt lat="59.3439307809" lon="34.6762507595"><ele>169.03</ele><time>2026-08-14T01:15:59Z</time></trkpt><trkpt lat="59.3439376540" lon="34.6762192436"><ele>168.37</ele><time>2026-08-14T01:16:08Z</time></trkpt><trkpt lat="59.3439180404" lon="34.6762270387"><ele>169.05</ele><time>2026-08-14T01:16:27Z</time></trkpt><trkpt lat="59.3439223990" lon="34.6762389410"><ele>167.71</ele><time>2026-08-14T01:16:58Z</time></trkpt><trkpt lat="59.3439095747" lon="34.6761930920"><ele>168.62</ele><time>2026-08-14T01:17:14Z</time></trkpt><trkpt lat="59.3439139333" lon="34.6762076765"><ele>169.29</ele><time>2026-08-14T01:17:59Z</time></trkpt><trkpt lat="59.3439382408" lon="34.6763073374"><ele>169.27</ele><time>2026-08-14T01:18:14Z</time></trkpt><trkpt lat="59.3439732771" lon="34.6764797531"><ele>168.86</ele><time>2026-08-14T01:18:26Z</time></trkpt><trkpt lat="59.3440248258" lon="34.6766524203"><ele>169.32</ele><time>2026-08-14T01:18:40Z</time></trkpt><trkpt lat="59.3440178689" lon="34.6767864469"><ele>167.89</ele><time>2026-08-14T01:18:53Z</time></trkpt><trkpt lat="59.3440363929" lon="34.6768180467"><ele>167.94</ele><time>2026-08-14T01:19:00Z</time></trkpt><trkpt lat="59.3440512288" lon="34.6769473795"><ele>169.84</ele><time>2026-08-14T01:19:13Z</time></trkpt><trkpt lat="59.3440374825" lon="34.6770895366"><ele>170.32</ele><time>2026-08-14T01:19:26Z</time></trkpt><trkpt lat="59.3440279271" lon="34.6772521455"><ele>165.87</ele><time>2026-08-14T01:19:40Z</time></trkpt><trkpt lat="59.3439836707" lon="34.6773523930"><ele>165.19</ele><time>2026-08-14T01:19:53Z</time></trkpt><trkpt lat="59.3439439405" lon="34.6774634533"><ele>164.13</ele><time>2026-08-14T01:20:05Z</time></trkpt><trkpt lat="59.3439236563" lon="34.6776022576"><ele>165.28</ele><time>2026-08-14T01:20:20Z</time></trkpt><trkpt lat="59.3439218961" lon="34.6776017547"><ele>164.75</ele><time>2026-08-14T01:20:49Z</time></trkpt><trkpt lat="59.3439091556" lon="34.6776065324"><ele>165.37</ele><time>2026-08-14T01:21:19Z</time></trkpt><trkpt lat="59.3439111672" lon="34.6775965579"><ele>165.47</ele><time>2026-08-14T01:22:00Z</time></trkpt><trkpt lat="59.3439115863" lon="34.6776191890"><ele>165.66</ele><time>2026-08-14T01:22:26Z</time></trkpt><trkpt lat="59.3438942358" lon="34.6776862442"><ele>166.97</ele><time>2026-08-14T01:23:02Z</time></trkpt><trkpt lat="59.3438910507" lon="34.6778840572"><ele>166.93</ele><time>2026-08-14T01:23:15Z</time></trkpt><trkpt lat="59.3438424356" lon="34.6780711412"><ele>167.07</ele><time>2026-08-14T01:23:31Z</time></trkpt><trkpt lat="59.3438659888" lon="34.6781856380"><ele>168.33</ele><time>2026-08-14T01:23:41Z</time></trkpt><trkpt lat="59.3439012766" lon="34.6783364285"><ele>166.90</ele><time>2026-08-14T01:23:56Z</time></trkpt><trkpt lat="59.3438868597" lon="34.6783841215"><ele>166.97</ele><time>2026-08-14T01:24:00Z</time></trkpt><trkpt lat="59.3438129313" lon="34.6784951817"><ele>166.99</ele><time>2026-08-14T01:24:11Z</time></trkpt><trkpt lat="59.3437782302" lon="34.6786506660"><ele>167.39</ele><time>2026-08-14T01:24:25Z</time></trkpt><trkpt lat="59.3437412661" lon="34.6786979400"><ele>167.96</ele><time>2026-08-14T01:24:45Z</time></trkpt><trkpt lat="59.3437706865" lon="34.6786600538"><ele>166.60</ele><time>2026-08-14T01:25:20Z</time></trkpt><trkpt lat="59.3437704351" lon="34.6786677651"><ele>168.27</ele><time>2026-08-14T01:26:12Z</time></trkpt><trkpt lat="59.3437605444" lon="34.6786977723"><ele>167.75</ele><time>2026-08-14T01:26:49Z</time></trkpt><trkpt lat="59.3437549286" lon="34.6788158733"><ele>168.61</ele><time>2026-08-14T01:27:03Z</time></trkpt><trkpt lat="59.3436980993" lon="34.6790284384"><ele>168.54</ele><time>2026-08-14T01:27:20Z</time></trkpt><trkpt lat="59.3437087443" lon="34.6792302746"><ele>166.60</ele><time>2026-08-14T01:27:33Z</time></trkpt><trkpt lat="59.3437192217" lon="34.6793731861"><ele>167.31</ele><time>2026-08-14T01:27:47Z</time></trkpt><trkpt lat="59.3436870351" lon="34.6796111483"><ele>167.61</ele><time>2026-08-14T01:28:05Z</time></trkpt><trkpt lat="59.3435887992" lon="34.6796358749"><ele>163.71</ele><time>2026-08-14T01:28:19Z</time></trkpt><trkpt lat="59.3434938323" lon="34.6796193626"><ele>164.57</ele><time>2026-08-14T01:28:32Z</time></trkpt><trkpt lat="59.3434572872" lon="34.6797655430"><ele>165.52</ele><time>2026-08-14T01:28:46Z</time></trkpt><trkpt lat="59.3434140366" lon="34.6798304189"><ele>166.33</ele><time>2026-08-14T01:29:02Z</time></trkpt><trkpt lat="59.3433648348" lon="34.6799268946"><ele>167.11</ele><time>2026-08-14T01:29:17Z</time></trkpt><trkpt lat="59.3433741387" lon="34.6798987314"><ele>165.57</ele><time>2026-08-14T01:29:34Z</time></trkpt><trkpt lat="59.3433641642" lon="34.6799490228"><ele>165.27</ele><time>2026-08-14T01:30:10Z</time></trkpt><trkpt lat="59.3433681875" lon="34.6799714863"><ele>165.27</ele><time>2026-08-14T01:30:56Z</time></trkpt><trkpt lat="59.3433700316" lon="34.6799688879"><ele>166.89</ele><time>2026-08-14T01:31:18Z</time></trkpt><trkpt lat="59.3433567882" lon="34.6799422335"><ele>169.11</ele><time>2026-08-14T01:31:59Z</time></trkpt><trkpt lat="59.3433572911" lon="34.6798838954"><ele>170.36</ele><time>2026-08-14T01:32:28Z</time></trkpt><trkpt lat="59.3433503341" lon="34.6798543911"><ele>163.39</ele><time>2026-08-14T01:33:07Z</time></trkpt><trkpt lat="59.3433250207" lon="34.6799782757"><ele>164.18</ele><time>2026-08-14T01:33:28Z</time></trkpt><trkpt lat="59.3433342408" lon="34.6802007314"><ele>164.70</ele><time>2026-08-14T01:33:43Z</time></trkpt><trkpt lat="59.3433379289" lon="34.6802281402"><ele>164.82</ele><time>2026-08-14T01:33:45Z</time></trkpt><trkpt lat="59.3433383480" lon="34.6804846264"><ele>165.91</ele><time>2026-08-14T01:33:57Z</time></trkpt><trkpt lat="59.3432892300" lon="34.6807110216"><ele>171.22</ele><time>2026-08-14T01:34:09Z</time></trkpt><trkpt lat="59.3432548642" lon="34.6808404382"><ele>171.35</ele><time>2026-08-14T01:34:22Z</time></trkpt><trkpt lat="59.3432493322" lon="34.6810029633"><ele>170.91</ele><time>2026-08-14T01:34:34Z</time></trkpt><trkpt lat="59.3432390224" lon="34.6812705975"><ele>171.32</ele><time>2026-08-14T01:34:51Z</time></trkpt><trkpt lat="59.3431936763" lon="34.6813916322"><ele>171.91</ele><time>2026-08-14T01:35:06Z</time></trkpt><trkpt lat="59.3432120327" lon="34.6814326197"><ele>168.94</ele><time>2026-08-14T01:35:42Z</time></trkpt><trkpt lat="59.3432047404" lon="34.6814810671"><ele>170.10</ele><time>2026-08-14T01:36:17Z</time></trkpt><trkpt lat="59.3432066683" lon="34.6814138442"><ele>170.71</ele><time>2026-08-14T01:36:37Z</time></trkpt><trkpt lat="59.3431866355" lon="34.6814441867"><ele>170.24</ele><time>2026-08-14T01:36:58Z</time></trkpt><trkpt lat="59.3431857973" lon="34.6815395728"><ele>168.68</ele><time>2026-08-14T01:37:25Z</time></trkpt><trkpt lat="59.3431993760" lon="34.6814855933"><ele>169.07</ele><time>2026-08-14T01:37:45Z</time></trkpt><trkpt lat="59.3431653455" lon="34.6815767884"><ele>167.42</ele><time>2026-08-14T01:38:19Z</time></trkpt><trkpt lat="59.3431840371" lon="34.6815376449"><ele>169.99</ele><time>2026-08-14T01:38:49Z</time></trkpt><trkpt lat="59.3432400282" lon="34.6817464381"><ele>170.04</ele><time>2026-08-14T01:39:03Z</time></trkpt><trkpt lat="59.3432587199" lon="34.6818908583"><ele>170.46</ele><time>2026-08-14T01:39:19Z</time></trkpt><trkpt lat="59.3432466500" lon="34.6821548883"><ele>169.73</ele><time>2026-08-14T01:39:36Z</time></trkpt><trkpt lat="59.3431961909" lon="34.6823138930"><ele>171.09</ele><time>2026-08-14T01:39:50Z</time></trkpt><trkpt lat="59.3431451451" lon="34.6824440639"><ele>170.92</ele><time>2026-08-14T01:40:05Z</time></trkpt><trkpt lat="59.3430756591" lon="34.6824979596"><ele>170.36</ele><time>2026-08-14T01:40:16Z</time></trkpt><trkpt lat="59.3430188298" lon="34.6825569682"><ele>171.22</ele><time>2026-08-14T01:40:40Z</time></trkpt><trkpt lat="59.3430085201" lon="34.6826017275"><ele>172.10</ele><time>2026-08-14T01:41:11Z</time></trkpt><trkpt lat="59.3430001382" lon="34.6826071758"><ele>171.52</ele><time>2026-08-14T01:41:43Z</time></trkpt><trkpt lat="59.3430257868" lon="34.6826506779"><ele>171.80</ele><time>2026-08-14T01:42:16Z</time></trkpt><trkpt lat="59.3430088554" lon="34.6826558746"><ele>170.15</ele><time>2026-08-14T01:42:47Z</time></trkpt><trkpt lat="59.3429980427" lon="34.6826416254"><ele>168.00</ele><time>2026-08-14T01:43:19Z</time></trkpt><trkpt lat="59.3430078495" lon="34.6826147195"><ele>166.62</ele><time>2026-08-14T01:43:53Z</time></trkpt><trkpt lat="59.3429944385" lon="34.6826187428"><ele>165.08</ele><time>2026-08-14T01:44:29Z</time></trkpt><trkpt lat="59.3429851346" lon="34.6827994566"><ele>167.62</ele><time>2026-08-14T01:44:48Z</time></trkpt><trkpt lat="59.3430245295" lon="34.6829302981"><ele>167.94</ele><time>2026-08-14T01:45:01Z</time></trkpt><trkpt lat="59.3430266250" lon="34.6831027977"><ele>168.15</ele><time>2026-08-14T01:45:16Z</time></trkpt><trkpt lat="59.3430558778" lon="34.6832548454"><ele>167.82</ele><time>2026-08-14T01:45:28Z</time></trkpt><trkpt lat="59.3432112783" lon="34.6833381616"><ele>168.24</ele><time>2026-08-14T01:45:45Z</time></trkpt><trkpt lat="59.3432602286" lon="34.6835657302"><ele>167.59</ele><time>2026-08-14T01:46:00Z</time></trkpt><trkpt lat="59.3433191534" lon="34.6836921293"><ele>167.95</ele><time>2026-08-14T01:46:13Z</time></trkpt><trkpt lat="59.3433618173" lon="34.6839352883"><ele>168.37</ele><time>2026-08-14T01:46:29Z</time></trkpt><trkpt lat="59.3433527648" lon="34.6842313372"><ele>169.62</ele><time>2026-08-14T01:46:49Z</time></trkpt><trkpt lat="59.3432902358" lon="34.6843249630"><ele>171.58</ele><time>2026-08-14T01:46:58Z</time></trkpt><trkpt lat="59.3432968576" lon="34.6845269669"><ele>169.82</ele><time>2026-08-14T01:47:13Z</time></trkpt><trkpt lat="59.3433638290" lon="34.6847600676"><ele>169.79</ele><time>2026-08-14T01:47:26Z</time></trkpt><trkpt lat="59.3434169702" lon="34.6848876402"><ele>170.05</ele><time>2026-08-14T01:47:37Z</time></trkpt><trkpt lat="59.3434769846" lon="34.6850685216"><ele>169.70</ele><time>2026-08-14T01:47:51Z</time></trkpt><trkpt lat="59.3435938284" lon="34.6853222419"><ele>169.77</ele><time>2026-08-14T01:48:07Z</time></trkpt><trkpt lat="59.3436696846" lon="34.6855071466"><ele>169.73</ele><time>2026-08-14T01:48:19Z</time></trkpt><trkpt lat="59.3437343929" lon="34.6858205460"><ele>169.01</ele><time>2026-08-14T01:48:34Z</time></trkpt><trkpt lat="59.3437548447" lon="34.6859595180"><ele>168.76</ele><time>2026-08-14T01:48:41Z</time></trkpt><trkpt lat="59.3438036274" lon="34.6863048524"><ele>168.79</ele><time>2026-08-14T01:48:56Z</time></trkpt><trkpt lat="59.3438985944" lon="34.6865102928"><ele>168.27</ele><time>2026-08-14T01:49:09Z</time></trkpt><trkpt lat="59.3439920526" lon="34.6866299864"><ele>167.17</ele><time>2026-08-14T01:49:22Z</time></trkpt><trkpt lat="59.3441560864" lon="34.6867384482"><ele>166.94</ele><time>2026-08-14T01:49:36Z</time></trkpt><trkpt lat="59.3442853354" lon="34.6868647635"><ele>166.65</ele><time>2026-08-14T01:49:49Z</time></trkpt><trkpt lat="59.3443944678" lon="34.6870207507"><ele>166.73</ele><time>2026-08-14T01:50:02Z</time></trkpt><trkpt lat="59.3444462679" lon="34.6871498320"><ele>166.27</ele><time>2026-08-14T01:50:12Z</time></trkpt><trkpt lat="59.3445284944" lon="34.6871977765"><ele>166.22</ele><time>2026-08-14T01:50:29Z</time></trkpt><trkpt lat="59.3445650395" lon="34.6872547735"><ele>165.69</ele><time>2026-08-14T01:50:45Z</time></trkpt><trkpt lat="59.3446137384" lon="34.6873440407"><ele>167.40</ele><time>2026-08-14T01:50:57Z</time></trkpt><trkpt lat="59.3447254691" lon="34.6874452941"><ele>166.68</ele><time>2026-08-14T01:51:19Z</time></trkpt><trkpt lat="59.3448767625" lon="34.6875532530"><ele>167.05</ele><time>2026-08-14T01:51:33Z</time></trkpt><trkpt lat="59.3449809495" lon="34.6875220723"><ele>167.00</ele><time>2026-08-14T01:51:45Z</time></trkpt><trkpt lat="59.3450861424" lon="34.6874900535"><ele>166.32</ele><time>2026-08-14T01:51:58Z</time></trkpt><trkpt lat="59.3452076800" lon="34.6875258442"><ele>164.64</ele><time>2026-08-14T01:52:12Z</time></trkpt><trkpt lat="59.3452488352" lon="34.6875018720"><ele>164.49</ele><time>2026-08-14T01:52:16Z</time></trkpt><trkpt lat="59.3454088457" lon="34.6874498203"><ele>163.81</ele><time>2026-08-14T01:52:30Z</time></trkpt><trkpt lat="59.3455221690" lon="34.6873537637"><ele>162.68</ele><time>2026-08-14T01:52:45Z</time></trkpt><trkpt lat="59.3456336483" lon="34.6873298753"><ele>163.16</ele><time>2026-08-14T01:52:58Z</time></trkpt><trkpt lat="59.3457679264" lon="34.6874035522"><ele>162.19</ele><time>2026-08-14T01:53:14Z</time></trkpt><trkpt lat="59.3458730355" lon="34.6871956810"><ele>163.08</ele><time>2026-08-14T01:53:28Z</time></trkpt><trkpt lat="59.3459759653" lon="34.6871028934"><ele>163.48</ele><time>2026-08-14T01:53:40Z</time></trkpt><trkpt lat="59.3461374845" lon="34.6871150471"><ele>163.26</ele><time>2026-08-14T01:53:56Z</time></trkpt><trkpt lat="59.3462321162" lon="34.6870802622"><ele>162.07</ele><time>2026-08-14T01:54:12Z</time></trkpt><trkpt lat="59.3464012630" lon="34.6870458964"><ele>161.55</ele><time>2026-08-14T01:54:26Z</time></trkpt><trkpt lat="59.3466966413" lon="34.6870861296"><ele>161.50</ele><time>2026-08-14T01:54:52Z</time></trkpt><trkpt lat="59.3468281534" lon="34.6871691942"><ele>161.99</ele><time>2026-08-14T01:55:10Z</time></trkpt><trkpt lat="59.3470182549" lon="34.6872543544"><ele>160.92</ele><time>2026-08-14T01:55:24Z</time></trkpt><trkpt lat="59.3471511919" lon="34.6872740518"><ele>161.17</ele><time>2026-08-14T01:55:44Z</time></trkpt><trkpt lat="59.3473165669" lon="34.6873324737"><ele>161.51</ele><time>2026-08-14T01:55:57Z</time></trkpt><trkpt lat="59.3474133778" lon="34.6874137782"><ele>162.31</ele><time>2026-08-14T01:56:09Z</time></trkpt><trkpt lat="59.3475328200" lon="34.6874477249"><ele>161.97</ele><time>2026-08-14T01:56:20Z</time></trkpt><trkpt lat="59.3476644997" lon="34.6875412669"><ele>161.44</ele><time>2026-08-14T01:56:33Z</time></trkpt><trkpt lat="59.3478263542" lon="34.6875951625"><ele>161.76</ele><time>2026-08-14T01:56:48Z</time></trkpt><trkpt lat="59.3480075710" lon="34.6876434423"><ele>162.30</ele><time>2026-08-14T01:57:05Z</time></trkpt><trkpt lat="59.3481475487" lon="34.6877802350"><ele>162.72</ele><time>2026-08-14T01:57:21Z</time></trkpt><trkpt lat="59.3482815754" lon="34.6879084781"><ele>162.64</ele><time>2026-08-14T01:57:36Z</time></trkpt><trkpt lat="59.3484610319" lon="34.6879909560"><ele>163.13</ele><time>2026-08-14T01:57:51Z</time></trkpt><trkpt lat="59.3485974893" lon="34.6880846657"><ele>163.12</ele><time>2026-08-14T01:58:06Z</time></trkpt><trkpt lat="59.3487745989" lon="34.6882079635"><ele>162.55</ele><time>2026-08-14T01:58:21Z</time></trkpt><trkpt lat="59.3489424884" lon="34.6883154195"><ele>163.03</ele><time>2026-08-14T01:58:36Z</time></trkpt><trkpt lat="59.3490860704" lon="34.6885462571"><ele>163.10</ele><time>2026-08-14T01:58:51Z</time></trkpt><trkpt lat="59.3491314165" lon="34.6886292379"><ele>163.26</ele><time>2026-08-14T01:58:56Z</time></trkpt><trkpt lat="59.3491970468" lon="34.6887698863"><ele>162.61</ele><time>2026-08-14T01:59:04Z</time></trkpt><trkpt lat="59.3492281437" lon="34.6888299845"><ele>162.58</ele><time>2026-08-14T01:59:09Z</time></trkpt><trkpt lat="59.3493322469" lon="34.6891506761"><ele>162.37</ele><time>2026-08-14T01:59:26Z</time></trkpt><trkpt lat="59.3493643496" lon="34.6893563680"><ele>164.12</ele><time>2026-08-14T01:59:35Z</time></trkpt><trkpt lat="59.3494062591" lon="34.6896756347"><ele>163.41</ele><time>2026-08-14T01:59:49Z</time></trkpt><trkpt lat="59.3494160660" lon="34.6897852700"><ele>162.95</ele><time>2026-08-14T01:59:54Z</time></trkpt><trkpt lat="59.3494654354" lon="34.6900818218"><ele>163.30</ele><time>2026-08-14T02:00:08Z</time></trkpt><trkpt lat="59.3495855480" lon="34.6904373821"><ele>163.34</ele><time>2026-08-14T02:00:26Z</time></trkpt><trkpt lat="59.3496441375" lon="34.6907085367"><ele>162.69</ele><time>2026-08-14T02:00:39Z</time></trkpt><trkpt lat="59.3496927526" lon="34.6909975447"><ele>162.65</ele><time>2026-08-14T02:00:53Z</time></trkpt><trkpt lat="59.3496977817" lon="34.6913619898"><ele>162.83</ele><time>2026-08-14T02:01:09Z</time></trkpt><trkpt lat="59.3497328181" lon="34.6917141974"><ele>161.02</ele><time>2026-08-14T02:01:25Z</time></trkpt><trkpt lat="59.3497575447" lon="34.6919877827"><ele>161.39</ele><time>2026-08-14T02:01:37Z</time></trkpt><trkpt lat="59.3497395236" lon="34.6923017688"><ele>161.98</ele><time>2026-08-14T02:01:50Z</time></trkpt><trkpt lat="59.3497293815" lon="34.6924910322"><ele>162.19</ele><time>2026-08-14T02:01:58Z</time></trkpt><trkpt lat="59.3497519288" lon="34.6927387174"><ele>162.29</ele><time>2026-08-14T02:02:09Z</time></trkpt><trkpt lat="59.3497787509" lon="34.6930592414"><ele>162.58</ele><time>2026-08-14T02:02:22Z</time></trkpt><trkpt lat="59.3498026393" lon="34.6933658514"><ele>161.93</ele><time>2026-08-14T02:02:35Z</time></trkpt><trkpt lat="59.3498591334" lon="34.6937198192"><ele>162.13</ele><time>2026-08-14T02:02:50Z</time></trkpt><trkpt lat="59.3498680182" lon="34.6938387584"><ele>162.52</ele><time>2026-08-14T02:02:55Z</time></trkpt><trkpt lat="59.3498903979" lon="34.6942021977"><ele>163.08</ele><time>2026-08-14T02:03:10Z</time></trkpt><trkpt lat="59.3499208242" lon="34.6944867633"><ele>163.16</ele><time>2026-08-14T02:03:23Z</time></trkpt><trkpt lat="59.3499251828" lon="34.6948493645"><ele>163.21</ele><time>2026-08-14T02:03:38Z</time></trkpt><trkpt lat="59.3499727920" lon="34.6952414699"><ele>163.51</ele><time>2026-08-14T02:03:54Z</time></trkpt><trkpt lat="59.3499753904" lon="34.6956174821"><ele>163.14</ele><time>2026-08-14T02:04:09Z</time></trkpt><trkpt lat="59.3499811739" lon="34.6960196458"><ele>162.67</ele><time>2026-08-14T02:04:26Z</time></trkpt><trkpt lat="59.3500321358" lon="34.6963299438"><ele>162.97</ele><time>2026-08-14T02:04:39Z</time></trkpt><trkpt lat="59.3501153681" lon="34.6965862624"><ele>163.30</ele><time>2026-08-14T02:04:51Z</time></trkpt><trkpt lat="59.3501858599" lon="34.6968633682"><ele>163.41</ele><time>2026-08-14T02:05:04Z</time></trkpt><trkpt lat="59.3502773903" lon="34.6972007398"><ele>163.66</ele><time>2026-08-14T02:05:19Z</time></trkpt><trkpt lat="59.3503484689" lon="34.6975957789"><ele>163.72</ele><time>2026-08-14T02:05:36Z</time></trkpt><trkpt lat="59.3504031189" lon="34.6980692726"><ele>163.53</ele><time>2026-08-14T02:05:55Z</time></trkpt><trkpt lat="59.3504707608" lon="34.6984574385"><ele>162.98</ele><time>2026-08-14T02:06:11Z</time></trkpt><trkpt lat="59.3505220581" lon="34.6988433413"><ele>162.70</ele><time>2026-08-14T02:06:27Z</time></trkpt><trkpt lat="59.3505724333" lon="34.6990564931"><ele>162.70</ele><time>2026-08-14T02:06:36Z</time></trkpt><trkpt lat="59.3506119959" lon="34.6993826330"><ele>162.33</ele><time>2026-08-14T02:06:50Z</time></trkpt><trkpt lat="59.3505966570" lon="34.6993947867"><ele>161.71</ele><time>2026-08-14T02:07:08Z</time></trkpt><trkpt lat="59.3505960703" lon="34.6994119696"><ele>157.91</ele><time>2026-08-14T02:07:22Z</time></trkpt><trkpt lat="59.3505678233" lon="34.6994266380"><ele>159.67</ele><time>2026-08-14T02:07:57Z</time></trkpt><trkpt lat="59.3505577650" lon="34.6994112991"><ele>159.45</ele><time>2026-08-14T02:08:24Z</time></trkpt><trkpt lat="59.3505501375" lon="34.6994136460"><ele>160.44</ele><time>2026-08-14T02:09:12Z</time></trkpt><trkpt lat="59.3505410850" lon="34.6993950382"><ele>159.50</ele><time>2026-08-14T02:09:43Z</time></trkpt><trkpt lat="59.3505501375" lon="34.6993888356"><ele>161.36</ele><time>2026-08-14T02:10:26Z</time></trkpt><trkpt lat="59.3505530711" lon="34.6994069405"><ele>161.51</ele><time>2026-08-14T02:10:40Z</time></trkpt><trkpt lat="59.3505887780" lon="34.6993847284"><ele>162.32</ele><time>2026-08-14T02:10:52Z</time></trkpt><trkpt lat="59.3505931366" lon="34.6993477643"><ele>161.79</ele><time>2026-08-14T02:11:15Z</time></trkpt><trkpt lat="59.3505860958" lon="34.6992768534"><ele>161.36</ele><time>2026-08-14T02:11:21Z</time></trkpt><trkpt lat="59.3505545799" lon="34.6990780346"><ele>161.59</ele><time>2026-08-14T02:11:33Z</time></trkpt><trkpt lat="59.3505521491" lon="34.6990847401"><ele>161.53</ele><time>2026-08-14T02:12:01Z</time></trkpt><trkpt lat="59.3505388219" lon="34.6989507973"><ele>161.68</ele><time>2026-08-14T02:12:08Z</time></trkpt><trkpt lat="59.3505192921" lon="34.6988957282"><ele>161.64</ele><time>2026-08-14T02:12:11Z</time></trkpt><trkpt lat="59.3504709285" lon="34.6986299381"><ele>161.26</ele><time>2026-08-14T02:12:23Z</time></trkpt><trkpt lat="59.3504632171" lon="34.6985807363"><ele>161.23</ele><time>2026-08-14T02:12:25Z</time></trkpt><trkpt lat="59.3504597805" lon="34.6985383239"><ele>161.22</ele><time>2026-08-14T02:12:27Z</time></trkpt><trkpt lat="59.3504136801" lon="34.6982332226"><ele>161.81</ele><time>2026-08-14T02:12:41Z</time></trkpt><trkpt lat="59.3503743690" lon="34.6979983617"><ele>161.40</ele><time>2026-08-14T02:12:52Z</time></trkpt><trkpt lat="59.3503677472" lon="34.6978708729"><ele>161.06</ele><time>2026-08-14T02:13:10Z</time></trkpt><trkpt lat="59.3503530789" lon="34.6977184899"><ele>161.73</ele><time>2026-08-14T02:13:36Z</time></trkpt><trkpt lat="59.3503264245" lon="34.6975467447"><ele>161.86</ele><time>2026-08-14T02:13:44Z</time></trkpt><trkpt lat="59.3502729479" lon="34.6972119715"><ele>161.67</ele><time>2026-08-14T02:13:59Z</time></trkpt><trkpt lat="59.3502398394" lon="34.6970829740"><ele>162.13</ele><time>2026-08-14T02:14:06Z</time></trkpt><trkpt lat="59.3501514941" lon="34.6967756934"><ele>162.33</ele><time>2026-08-14T02:14:21Z</time></trkpt><trkpt lat="59.3500541802" lon="34.6964590251"><ele>161.75</ele><time>2026-08-14T02:14:37Z</time></trkpt><trkpt lat="59.3500368297" lon="34.6963883657"><ele>161.73</ele><time>2026-08-14T02:14:40Z</time></trkpt><trkpt lat="59.3499821797" lon="34.6959999483"><ele>161.95</ele><time>2026-08-14T02:14:55Z</time></trkpt><trkpt lat="59.3499798328" lon="34.6955935936"><ele>161.52</ele><time>2026-08-14T02:15:11Z</time></trkpt><trkpt lat="59.3499710318" lon="34.6952340938"><ele>161.43</ele><time>2026-08-14T02:15:26Z</time></trkpt><trkpt lat="59.3499350734" lon="34.6949129831"><ele>161.06</ele><time>2026-08-14T02:15:40Z</time></trkpt><trkpt lat="59.3499362469" lon="34.6946598496"><ele>160.91</ele><time>2026-08-14T02:15:52Z</time></trkpt><trkpt lat="59.3499167170" lon="34.6944154333"><ele>161.12</ele><time>2026-08-14T02:16:05Z</time></trkpt><trkpt lat="59.3499070778" lon="34.6943179518"><ele>161.03</ele><time>2026-08-14T02:16:10Z</time></trkpt><trkpt lat="59.3499065749" lon="34.6942501422"><ele>160.85</ele><time>2026-08-14T02:16:13Z</time></trkpt><trkpt lat="59.3498784956" lon="34.6939445380"><ele>160.66</ele><time>2026-08-14T02:16:27Z</time></trkpt><trkpt lat="59.3498589657" lon="34.6936440468"><ele>160.43</ele><time>2026-08-14T02:16:41Z</time></trkpt><trkpt lat="59.3498149607" lon="34.6932687890"><ele>160.28</ele><time>2026-08-14T02:16:57Z</time></trkpt><trkpt lat="59.3497775774" lon="34.6929431520"><ele>160.58</ele><time>2026-08-14T02:17:11Z</time></trkpt><trkpt lat="59.3497581314" lon="34.6925438382"><ele>160.65</ele><time>2026-08-14T02:17:28Z</time></trkpt><trkpt lat="59.3497600593" lon="34.6922048740"><ele>160.71</ele><time>2026-08-14T02:17:43Z</time></trkpt><trkpt lat="59.3497455586" lon="34.6918996889"><ele>160.66</ele><time>2026-08-14T02:17:56Z</time></trkpt><trkpt lat="59.3497343268" lon="34.6915766504"><ele>160.70</ele><time>2026-08-14T02:18:09Z</time></trkpt><trkpt lat="59.3497122824" lon="34.6914048214"><ele>160.89</ele><time>2026-08-14T02:18:16Z</time></trkpt><trkpt lat="59.3496806826" lon="34.6910166554"><ele>161.22</ele><time>2026-08-14T02:18:32Z</time></trkpt><trkpt lat="59.3496763241" lon="34.6908160765"><ele>161.13</ele><time>2026-08-14T02:18:41Z</time></trkpt><trkpt lat="59.3495747354" lon="34.6903896891"><ele>161.14</ele><time>2026-08-14T02:19:00Z</time></trkpt><trkpt lat="59.3494743202" lon="34.6900668181"><ele>160.97</ele><time>2026-08-14T02:19:16Z</time></trkpt><trkpt lat="59.3494076841" lon="34.6897859406"><ele>160.67</ele><time>2026-08-14T02:19:28Z</time></trkpt><trkpt lat="59.3493652716" lon="34.6894040611"><ele>160.82</ele><time>2026-08-14T02:19:42Z</time></trkpt><trkpt lat="59.3493194226" lon="34.6890625823"><ele>160.72</ele><time>2026-08-14T02:19:57Z</time></trkpt><trkpt lat="59.3492856435" lon="34.6889713872"><ele>160.85</ele><time>2026-08-14T02:20:04Z</time></trkpt><trkpt lat="59.3492058478" lon="34.6887864824"><ele>160.78</ele><time>2026-08-14T02:20:15Z</time></trkpt><trkpt lat="59.3491878267" lon="34.6887526195"><ele>160.81</ele><time>2026-08-14T02:20:17Z</time></trkpt><trkpt lat="59.3490675464" lon="34.6885500289"><ele>161.68</ele><time>2026-08-14T02:20:31Z</time></trkpt><trkpt lat="59.3490387965" lon="34.6884771902"><ele>161.87</ele><time>2026-08-14T02:20:35Z</time></trkpt><trkpt lat="59.3489232939" lon="34.6882610209"><ele>162.18</ele><time>2026-08-14T02:20:51Z</time></trkpt><trkpt lat="59.3487766944" lon="34.6881969832"><ele>162.32</ele><time>2026-08-14T02:21:06Z</time></trkpt><trkpt lat="59.3486339506" lon="34.6881164331"><ele>162.21</ele><time>2026-08-14T02:21:20Z</time></trkpt><trkpt lat="59.3485256564" lon="34.6880356316"><ele>162.71</ele><time>2026-08-14T02:21:34Z</time></trkpt><trkpt lat="59.3483863492" lon="34.6879247390"><ele>162.66</ele><time>2026-08-14T02:21:48Z</time></trkpt><trkpt lat="59.3482665718" lon="34.6877949871"><ele>163.64</ele><time>2026-08-14T02:22:01Z</time></trkpt><trkpt lat="59.3481317908" lon="34.6876700968"><ele>163.03</ele><time>2026-08-14T02:22:14Z</time></trkpt><trkpt lat="59.3479997758" lon="34.6876336355"><ele>162.99</ele><time>2026-08-14T02:22:27Z</time></trkpt><trkpt lat="59.3478386756" lon="34.6875663288"><ele>163.53</ele><time>2026-08-14T02:22:41Z</time></trkpt><trkpt lat="59.3477119412" lon="34.6875448711"><ele>164.16</ele><time>2026-08-14T02:22:54Z</time></trkpt><trkpt lat="59.3475928344" lon="34.6874760557"><ele>164.42</ele><time>2026-08-14T02:23:06Z</time></trkpt><trkpt lat="59.3475217558" lon="34.6874332242"><ele>161.94</ele><time>2026-08-14T02:23:14Z</time></trkpt><trkpt lat="59.3474705424" lon="34.6874135267"><ele>161.96</ele><time>2026-08-14T02:23:19Z</time></trkpt><trkpt lat="59.3473953567" lon="34.6873878781"><ele>161.94</ele><time>2026-08-14T02:23:26Z</time></trkpt><trkpt lat="59.3472429737" lon="34.6873058192"><ele>161.78</ele><time>2026-08-14T02:23:41Z</time></trkpt><trkpt lat="59.3471661955" lon="34.6873190627"><ele>163.83</ele><time>2026-08-14T02:23:56Z</time></trkpt><trkpt lat="59.3471274711" lon="34.6872670949"><ele>161.76</ele><time>2026-08-14T02:24:11Z</time></trkpt><trkpt lat="59.3470085319" lon="34.6872079186"><ele>162.31</ele><time>2026-08-14T02:24:25Z</time></trkpt><trkpt lat="59.3468725774" lon="34.6871446352"><ele>162.20</ele><time>2026-08-14T02:24:40Z</time></trkpt><trkpt lat="59.3467557337" lon="34.6871160530"><ele>162.43</ele><time>2026-08-14T02:24:52Z</time></trkpt><trkpt lat="59.3466000818" lon="34.6870932542"><ele>164.99</ele><time>2026-08-14T02:25:05Z</time></trkpt><trkpt lat="59.3464509677" lon="34.6870595589"><ele>165.31</ele><time>2026-08-14T02:25:19Z</time></trkpt><trkpt lat="59.3462990876" lon="34.6870544460"><ele>164.88</ele><time>2026-08-14T02:25:33Z</time></trkpt><trkpt lat="59.3461435195" lon="34.6870719641"><ele>165.37</ele><time>2026-08-14T02:25:48Z</time></trkpt><trkpt lat="59.3459761329" lon="34.6871012170"><ele>165.49</ele><time>2026-08-14T02:26:02Z</time></trkpt><trkpt lat="59.3459325470" lon="34.6871093474"><ele>165.81</ele><time>2026-08-14T02:26:06Z</time></trkpt><trkpt lat="59.3458198942" lon="34.6873679291"><ele>166.18</ele><time>2026-08-14T02:26:22Z</time></trkpt><trkpt lat="59.3457228318" lon="34.6873732936"><ele>165.93</ele><time>2026-08-14T02:26:32Z</time></trkpt><trkpt lat="59.3455842789" lon="34.6872994490"><ele>165.67</ele><time>2026-08-14T02:26:45Z</time></trkpt><trkpt lat="59.3455509190" lon="34.6873426996"><ele>165.59</ele><time>2026-08-14T02:26:48Z</time></trkpt><trkpt lat="59.3454125337" lon="34.6874322183"><ele>166.00</ele><time>2026-08-14T02:27:02Z</time></trkpt><trkpt lat="59.3452760763" lon="34.6874905564"><ele>165.50</ele><time>2026-08-14T02:27:14Z</time></trkpt><trkpt lat="59.3451294769" lon="34.6874680929"><ele>165.53</ele><time>2026-08-14T02:27:29Z</time></trkpt><trkpt lat="59.3450368568" lon="34.6874677576"><ele>165.45</ele><time>2026-08-14T02:27:36Z</time></trkpt><trkpt lat="59.3448471744" lon="34.6875511575"><ele>165.36</ele><time>2026-08-14T02:27:53Z</time></trkpt><trkpt lat="59.3447361980" lon="34.6874589566"><ele>164.54</ele><time>2026-08-14T02:28:05Z</time></trkpt><trkpt lat="59.3446962163" lon="34.6873680968"><ele>164.18</ele><time>2026-08-14T02:28:10Z</time></trkpt><trkpt lat="59.3446297478" lon="34.6872774884"><ele>164.96</ele><time>2026-08-14T02:28:26Z</time></trkpt><trkpt lat="59.3445673864" lon="34.6872518398"><ele>164.94</ele><time>2026-08-14T02:28:33Z</time></trkpt><trkpt lat="59.3444454297" lon="34.6871534362"><ele>162.33</ele><time>2026-08-14T02:28:47Z</time></trkpt><trkpt lat="59.3443833198" lon="34.6870512608"><ele>162.31</ele><time>2026-08-14T02:28:55Z</time></trkpt><trkpt lat="59.3442715891" lon="34.6868866403"><ele>162.49</ele><time>2026-08-14T02:29:08Z</time></trkpt><trkpt lat="59.3442086410" lon="34.6867766697"><ele>162.77</ele><time>2026-08-14T02:29:16Z</time></trkpt><trkpt lat="59.3441863451" lon="34.6867491771"><ele>163.37</ele><time>2026-08-14T02:29:19Z</time></trkpt><trkpt lat="59.3440159410" lon="34.6866184194"><ele>164.01</ele><time>2026-08-14T02:29:35Z</time></trkpt><trkpt lat="59.3438657373" lon="34.6864599176"><ele>163.44</ele><time>2026-08-14T02:29:49Z</time></trkpt><trkpt lat="59.3437818345" lon="34.6861991566"><ele>162.57</ele><time>2026-08-14T02:30:04Z</time></trkpt><trkpt lat="59.3437148631" lon="34.6858215518"><ele>162.09</ele><time>2026-08-14T02:30:20Z</time></trkpt><trkpt lat="59.3436630629" lon="34.6855498943"><ele>161.90</ele><time>2026-08-14T02:30:33Z</time></trkpt><trkpt lat="59.3435746338" lon="34.6853125188"><ele>161.49</ele><time>2026-08-14T02:30:46Z</time></trkpt><trkpt lat="59.3434424512" lon="34.6849909890"><ele>161.96</ele><time>2026-08-14T02:31:04Z</time></trkpt><trkpt lat="59.3434241787" lon="34.6849380992"><ele>161.80</ele><time>2026-08-14T02:31:07Z</time></trkpt><trkpt lat="59.3433936685" lon="34.6848412883"><ele>161.86</ele><time>2026-08-14T02:31:11Z</time></trkpt><trkpt lat="59.3433069997" lon="34.6845339239"><ele>163.97</ele><time>2026-08-14T02:31:25Z</time></trkpt><trkpt lat="59.3432887271" lon="34.6844128892"><ele>164.03</ele><time>2026-08-14T02:31:30Z</time></trkpt><trkpt lat="59.3432465661" lon="34.6840519644"><ele>164.95</ele><time>2026-08-14T02:31:46Z</time></trkpt><trkpt lat="59.3431833666" lon="34.6838355437"><ele>165.18</ele><time>2026-08-14T02:31:57Z</time></trkpt><trkpt lat="59.3430478312" lon="34.6836450230"><ele>165.29</ele><time>2026-08-14T02:32:10Z</time></trkpt><trkpt lat="59.3429131340" lon="34.6835544985"><ele>166.12</ele><time>2026-08-14T02:32:22Z</time></trkpt><trkpt lat="59.3427576497" lon="34.6835025307"><ele>166.45</ele><time>2026-08-14T02:32:37Z</time></trkpt><trkpt lat="59.3425967172" lon="34.6834398340"><ele>166.58</ele><time>2026-08-14T02:32:52Z</time></trkpt><trkpt lat="59.3424636964" lon="34.6834512334"><ele>165.90</ele><time>2026-08-14T02:33:05Z</time></trkpt><trkpt lat="59.3424055260" lon="34.6834337991"><ele>165.98</ele><time>2026-08-14T02:33:19Z</time></trkpt><trkpt lat="59.3424000777" lon="34.6834479645"><ele>168.03</ele><time>2026-08-14T02:33:42Z</time></trkpt><trkpt lat="59.3423908576" lon="34.6834394988"><ele>166.67</ele><time>2026-08-14T02:34:04Z</time></trkpt><trkpt lat="59.3424034305" lon="34.6834283508"><ele>163.74</ele><time>2026-08-14T02:35:05Z</time></trkpt><trkpt lat="59.3424075376" lon="34.6833954938"><ele>163.97</ele><time>2026-08-14T02:35:56Z</time></trkpt><trkpt lat="59.3423989881" lon="34.6833922248"><ele>163.86</ele><time>2026-08-14T02:36:41Z</time></trkpt><trkpt lat="59.3424013350" lon="34.6834031213"><ele>163.89</ele><time>2026-08-14T02:37:52Z</time></trkpt><trkpt lat="59.3424083758" lon="34.6834255848"><ele>164.44</ele><time>2026-08-14T02:38:33Z</time></trkpt><trkpt lat="59.3424071185" lon="34.6834313683"><ele>164.40</ele><time>2026-08-14T02:39:08Z</time></trkpt><trkpt lat="59.3424202781" lon="34.6834116708"><ele>164.62</ele><time>2026-08-14T02:39:56Z</time></trkpt><trkpt lat="59.3424029276" lon="34.6834232379"><ele>164.37</ele><time>2026-08-14T02:41:10Z</time></trkpt><trkpt lat="59.3424059451" lon="34.6833826695"><ele>164.10</ele><time>2026-08-14T02:42:07Z</time></trkpt><trkpt lat="59.3423955515" lon="34.6834167838"><ele>162.55</ele><time>2026-08-14T02:42:51Z</time></trkpt><trkpt lat="59.3423909415" lon="34.6834415942"><ele>163.68</ele><time>2026-08-14T02:43:13Z</time></trkpt><trkpt lat="59.3423781171" lon="34.6834440250"><ele>164.70</ele><time>2026-08-14T02:43:27Z</time></trkpt><trkpt lat="59.3423880916" lon="34.6834997647"><ele>165.88</ele><time>2026-08-14T02:43:49Z</time></trkpt><trkpt lat="59.3423722498" lon="34.6835110802"><ele>165.65</ele><time>2026-08-14T02:44:09Z</time></trkpt><trkpt lat="59.3423729204" lon="34.6835068893"><ele>166.11</ele><time>2026-08-14T02:44:43Z</time></trkpt><trkpt lat="59.3423675559" lon="34.6834399179"><ele>165.77</ele><time>2026-08-14T02:44:55Z</time></trkpt><trkpt lat="59.3423563242" lon="34.6834392473"><ele>165.67</ele><time>2026-08-14T02:44:58Z</time></trkpt><trkpt lat="59.3422828987" lon="34.6833678335"><ele>165.18</ele><time>2026-08-14T02:45:10Z</time></trkpt><trkpt lat="59.3422960583" lon="34.6833853517"><ele>164.56</ele><time>2026-08-14T02:45:34Z</time></trkpt><trkpt lat="59.3422972318" lon="34.6833572723"><ele>163.72</ele><time>2026-08-14T02:45:56Z</time></trkpt><trkpt lat="59.3422862515" lon="34.6833534166"><ele>163.69</ele><time>2026-08-14T02:46:23Z</time></trkpt><trkpt lat="59.3422957230" lon="34.6833621338"><ele>163.26</ele><time>2026-08-14T02:46:46Z</time></trkpt><trkpt lat="59.3422912806" lon="34.6833157819"><ele>162.49</ele><time>2026-08-14T02:47:26Z</time></trkpt><trkpt lat="59.3422747683" lon="34.6831766423"><ele>161.34</ele><time>2026-08-14T02:47:41Z</time></trkpt><trkpt lat="59.3422672246" lon="34.6830320545"><ele>160.92</ele><time>2026-08-14T02:47:53Z</time></trkpt><trkpt lat="59.3423251435" lon="34.6828137897"><ele>161.19</ele><time>2026-08-14T02:48:04Z</time></trkpt><trkpt lat="59.3423973955" lon="34.6826484986"><ele>156.91</ele><time>2026-08-14T02:48:16Z</time></trkpt><trkpt lat="59.3424328510" lon="34.6824556310"><ele>156.40</ele><time>2026-08-14T02:48:29Z</time></trkpt><trkpt lat="59.3424389698" lon="34.6822746657"><ele>159.49</ele><time>2026-08-14T02:48:45Z</time></trkpt><trkpt lat="59.3424338568" lon="34.6821512841"><ele>161.66</ele><time>2026-08-14T02:49:14Z</time></trkpt><trkpt lat="59.3424958829" lon="34.6820347756"><ele>163.56</ele><time>2026-08-14T02:49:27Z</time></trkpt><trkpt lat="59.3425761815" lon="34.6819611825"><ele>163.86</ele><time>2026-08-14T02:49:41Z</time></trkpt><trkpt lat="59.3426364474" lon="34.6817872580"><ele>162.88</ele><time>2026-08-14T02:49:54Z</time></trkpt><trkpt lat="59.3426200189" lon="34.6815277543"><ele>162.36</ele><time>2026-08-14T02:50:13Z</time></trkpt><trkpt lat="59.3426085357" lon="34.6813106630"><ele>163.16</ele><time>2026-08-14T02:50:31Z</time></trkpt><trkpt lat="59.3426175881" lon="34.6812659875"><ele>162.37</ele><time>2026-08-14T02:51:08Z</time></trkpt><trkpt lat="59.3426129781" lon="34.6812562644"><ele>164.24</ele><time>2026-08-14T02:52:10Z</time></trkpt><trkpt lat="59.3426289875" lon="34.6812134329"><ele>165.75</ele><time>2026-08-14T02:52:54Z</time></trkpt><trkpt lat="59.3426671252" lon="34.6810250916"><ele>165.16</ele><time>2026-08-14T02:53:09Z</time></trkpt><trkpt lat="59.3427410536" lon="34.6807701979"><ele>164.84</ele><time>2026-08-14T02:53:29Z</time></trkpt><trkpt lat="59.3428183347" lon="34.6805655956"><ele>164.74</ele><time>2026-08-14T02:53:45Z</time></trkpt><trkpt lat="59.3427626789" lon="34.6802835446"><ele>163.69</ele><time>2026-08-14T02:54:05Z</time></trkpt><trkpt lat="59.3427541293" lon="34.6801247913"><ele>163.08</ele><time>2026-08-14T02:54:28Z</time></trkpt><trkpt lat="59.3427178357" lon="34.6799547225"><ele>163.06</ele><time>2026-08-14T02:54:58Z</time></trkpt><trkpt lat="59.3427190930" lon="34.6799512859"><ele>164.93</ele><time>2026-08-14T02:55:31Z</time></trkpt><trkpt lat="59.3427065201" lon="34.6799063589"><ele>163.88</ele><time>2026-08-14T02:56:07Z</time></trkpt><trkpt lat="59.3427203503" lon="34.6798958816"><ele>163.25</ele><time>2026-08-14T02:56:11Z</time></trkpt><trkpt lat="59.3427410536" lon="34.6797055285"><ele>162.88</ele><time>2026-08-14T02:56:25Z</time></trkpt><trkpt lat="59.3427431490" lon="34.6794898622"><ele>159.64</ele><time>2026-08-14T02:56:45Z</time></trkpt><trkpt lat="59.3427934404" lon="34.6793051250"><ele>158.88</ele><time>2026-08-14T02:56:58Z</time></trkpt><trkpt lat="59.3428307399" lon="34.6791492216"><ele>159.03</ele><time>2026-08-14T02:57:10Z</time></trkpt><trkpt lat="59.3428267166" lon="34.6790037956"><ele>158.66</ele><time>2026-08-14T02:57:35Z</time></trkpt><trkpt lat="59.3428107910" lon="34.6789907198"><ele>158.56</ele><time>2026-08-14T02:58:17Z</time></trkpt><trkpt lat="59.3428398762" lon="34.6789627243"><ele>158.18</ele><time>2026-08-14T02:59:15Z</time></trkpt><trkpt lat="59.3428466655" lon="34.6789509896"><ele>156.87</ele><time>2026-08-14T02:59:42Z</time></trkpt><trkpt lat="59.3428579811" lon="34.6789706871"><ele>158.14</ele><time>2026-08-14T03:00:01Z</time></trkpt><trkpt lat="59.3428622559" lon="34.6789677534"><ele>157.16</ele><time>2026-08-14T03:00:23Z</time></trkpt><trkpt lat="59.3428780977" lon="34.6789677534"><ele>157.02</ele><time>2026-08-14T03:00:45Z</time></trkpt><trkpt lat="59.3428909220" lon="34.6788366605"><ele>156.49</ele><time>2026-08-14T03:00:56Z</time></trkpt><trkpt lat="59.3429219350" lon="34.6787241753"><ele>154.83</ele><time>2026-08-14T03:01:05Z</time></trkpt><trkpt lat="59.3430105317" lon="34.6785712894"><ele>152.96</ele><time>2026-08-14T03:01:19Z</time></trkpt><trkpt lat="59.3430719711" lon="34.6784096863"><ele>159.58</ele><time>2026-08-14T03:01:40Z</time></trkpt><trkpt lat="59.3431673571" lon="34.6781977918"><ele>160.39</ele><time>2026-08-14T03:01:58Z</time></trkpt><trkpt lat="59.3431570474" lon="34.6780358534"><ele>159.67</ele><time>2026-08-14T03:02:14Z</time></trkpt><trkpt lat="59.3431240227" lon="34.6779920999"><ele>159.31</ele><time>2026-08-14T03:02:30Z</time></trkpt><trkpt lat="59.3431261182" lon="34.6779663675"><ele>159.18</ele><time>2026-08-14T03:02:51Z</time></trkpt><trkpt lat="59.3431195803" lon="34.6779531240"><ele>159.65</ele><time>2026-08-14T03:03:30Z</time></trkpt><trkpt lat="59.3431231845" lon="34.6779331751"><ele>160.72</ele><time>2026-08-14T03:04:08Z</time></trkpt><trkpt lat="59.3430819456" lon="34.6778175887"><ele>160.35</ele><time>2026-08-14T03:04:23Z</time></trkpt><trkpt lat="59.3431134615" lon="34.6776396409"><ele>160.04</ele><time>2026-08-14T03:04:35Z</time></trkpt><trkpt lat="59.3431489170" lon="34.6774336975"><ele>161.41</ele><time>2026-08-14T03:04:46Z</time></trkpt><trkpt lat="59.3432043213" lon="34.6772932168"><ele>161.83</ele><time>2026-08-14T03:04:57Z</time></trkpt><trkpt lat="59.3432092667" lon="34.6771158557"><ele>163.13</ele><time>2026-08-14T03:05:12Z</time></trkpt><trkpt lat="59.3431571312" lon="34.6769340523"><ele>162.42</ele><time>2026-08-14T03:05:30Z</time></trkpt><trkpt lat="59.3431601487" lon="34.6767418552"><ele>162.32</ele><time>2026-08-14T03:05:54Z</time></trkpt><trkpt lat="59.3431791756" lon="34.6764009632"><ele>161.09</ele><time>2026-08-14T03:06:11Z</time></trkpt><trkpt lat="59.3431291357" lon="34.6762999613"><ele>165.05</ele><time>2026-08-14T03:06:43Z</time></trkpt><trkpt lat="59.3431252800" lon="34.6763122827"><ele>165.01</ele><time>2026-08-14T03:07:00Z</time></trkpt><trkpt lat="59.3430754915" lon="34.6763654239"><ele>164.90</ele><time>2026-08-14T03:07:14Z</time></trkpt><trkpt lat="59.3431020621" lon="34.6764226723"><ele>165.22</ele><time>2026-08-14T03:07:27Z</time></trkpt><trkpt lat="59.3431124557" lon="34.6764445491"><ele>165.06</ele><time>2026-08-14T03:07:45Z</time></trkpt><trkpt lat="59.3431221787" lon="34.6764183976"><ele>165.09</ele><time>2026-08-14T03:08:08Z</time></trkpt><trkpt lat="59.3431591429" lon="34.6762950998"><ele>164.79</ele><time>2026-08-14T03:08:23Z</time></trkpt><trkpt lat="59.3432134576" lon="34.6760966163"><ele>162.59</ele><time>2026-08-14T03:08:40Z</time></trkpt><trkpt lat="59.3433026411" lon="34.6758343466"><ele>163.12</ele><time>2026-08-14T03:08:56Z</time></trkpt><trkpt lat="59.3433288764" lon="34.6756720729"><ele>162.15</ele><time>2026-08-14T03:09:11Z</time></trkpt><trkpt lat="59.3433614820" lon="34.6755855717"><ele>162.05</ele><time>2026-08-14T03:09:26Z</time></trkpt><trkpt lat="59.3433841970" lon="34.6753765270"><ele>163.13</ele><time>2026-08-14T03:09:48Z</time></trkpt><trkpt lat="59.3434110191" lon="34.6750840824"><ele>164.00</ele><time>2026-08-14T03:10:00Z</time></trkpt><trkpt lat="59.3434205744" lon="34.6749609523"><ele>163.90</ele><time>2026-08-14T03:10:06Z</time></trkpt><trkpt lat="59.3434151262" lon="34.6748738643"><ele>162.51</ele><time>2026-08-14T03:10:21Z</time></trkpt><trkpt lat="59.3434134498" lon="34.6748538315"><ele>163.02</ele><time>2026-08-14T03:10:45Z</time></trkpt><trkpt lat="59.3433868792" lon="34.6747966669"><ele>164.87</ele><time>2026-08-14T03:11:15Z</time></trkpt><trkpt lat="59.3433811795" lon="34.6748698410"><ele>165.65</ele><time>2026-08-14T03:11:35Z</time></trkpt><trkpt lat="59.3433716241" lon="34.6749098226"><ele>165.80</ele><time>2026-08-14T03:12:20Z</time></trkpt><trkpt lat="59.3434079178" lon="34.6748677455"><ele>162.62</ele><time>2026-08-14T03:12:54Z</time></trkpt><trkpt lat="59.3433845323" lon="34.6748974174"><ele>163.24</ele><time>2026-08-14T03:13:23Z</time></trkpt><trkpt lat="59.3433881365" lon="34.6748490538"><ele>164.64</ele><time>2026-08-14T03:13:50Z</time></trkpt><trkpt lat="59.3433796708" lon="34.6746995207"><ele>165.48</ele><time>2026-08-14T03:14:01Z</time></trkpt><trkpt lat="59.3434542697" lon="34.6745236684"><ele>162.90</ele><time>2026-08-14T03:14:14Z</time></trkpt><trkpt lat="59.3435175531" lon="34.6743277833"><ele>163.42</ele><time>2026-08-14T03:14:27Z</time></trkpt><trkpt lat="59.3435803335" lon="34.6741563734"><ele>163.80</ele><time>2026-08-14T03:14:42Z</time></trkpt><trkpt lat="59.3435702752" lon="34.6741015557"><ele>164.16</ele><time>2026-08-14T03:14:46Z</time></trkpt><trkpt lat="59.3435029685" lon="34.6740255319"><ele>163.80</ele><time>2026-08-14T03:15:00Z</time></trkpt><trkpt lat="59.3433995359" lon="34.6739185788"><ele>162.25</ele><time>2026-08-14T03:15:13Z</time></trkpt><trkpt lat="59.3434056547" lon="34.6739140525"><ele>160.95</ele><time>2026-08-14T03:15:42Z</time></trkpt><trkpt lat="59.3434269447" lon="34.6739012282"><ele>162.05</ele><time>2026-08-14T03:16:16Z</time></trkpt><trkpt lat="59.3434278667" lon="34.6739023179"><ele>162.56</ele><time>2026-08-14T03:16:55Z</time></trkpt><trkpt lat="59.3434470613" lon="34.6739707980"><ele>162.98</ele><time>2026-08-14T03:17:32Z</time></trkpt><trkpt lat="59.3434497435" lon="34.6739630867"><ele>163.32</ele><time>2026-08-14T03:17:52Z</time></trkpt><trkpt lat="59.3434353266" lon="34.6738411300"><ele>163.36</ele><time>2026-08-14T03:18:26Z</time></trkpt><trkpt lat="59.3434711173" lon="34.6736501902"><ele>163.57</ele><time>2026-08-14T03:18:44Z</time></trkpt><trkpt lat="59.3434827682" lon="34.6734198555"><ele>164.80</ele><time>2026-08-14T03:18:59Z</time></trkpt><trkpt lat="59.3434366677" lon="34.6733383834"><ele>162.64</ele><time>2026-08-14T03:19:14Z</time></trkpt><trkpt lat="59.3434845284" lon="34.6731985733"><ele>165.41</ele><time>2026-08-14T03:19:34Z</time></trkpt><trkpt lat="59.3437036313" lon="34.6728772949"><ele>163.62</ele><time>2026-08-14T03:20:06Z</time></trkpt><trkpt lat="59.3437648192" lon="34.6726888698"><ele>165.11</ele><time>2026-08-14T03:20:28Z</time></trkpt><trkpt lat="59.3438084889" lon="34.6725927293"><ele>166.84</ele><time>2026-08-14T03:21:23Z</time></trkpt><trkpt lat="59.3438267615" lon="34.6726003569"><ele>166.23</ele><time>2026-08-14T03:21:40Z</time></trkpt><trkpt lat="59.3438310362" lon="34.6725818329"><ele>167.86</ele><time>2026-08-14T03:22:07Z</time></trkpt><trkpt lat="59.3438101653" lon="34.6724543441"><ele>169.91</ele><time>2026-08-14T03:22:29Z</time></trkpt><trkpt lat="59.3437717762" lon="34.6722917352"><ele>169.95</ele><time>2026-08-14T03:22:41Z</time></trkpt><trkpt lat="59.3437120970" lon="34.6719699539"><ele>168.09</ele><time>2026-08-14T03:23:05Z</time></trkpt><trkpt lat="59.3436346482" lon="34.6717764996"><ele>166.34</ele><time>2026-08-14T03:23:30Z</time></trkpt><trkpt lat="59.3436565250" lon="34.6714220289"><ele>167.50</ele><time>2026-08-14T03:23:53Z</time></trkpt><trkpt lat="59.3437464628" lon="34.6714023314"><ele>167.52</ele><time>2026-08-14T03:24:15Z</time></trkpt><trkpt lat="59.3437634781" lon="34.6713848971"><ele>167.61</ele><time>2026-08-14T03:24:49Z</time></trkpt><trkpt lat="59.3437280226" lon="34.6713854000"><ele>168.75</ele><time>2026-08-14T03:25:20Z</time></trkpt><trkpt lat="59.3437677529" lon="34.6714254655"><ele>172.41</ele><time>2026-08-14T03:26:06Z</time></trkpt><trkpt lat="59.3437986821" lon="34.6716840472"><ele>172.72</ele><time>2026-08-14T03:26:22Z</time></trkpt><trkpt lat="59.3438301980" lon="34.6718699578"><ele>172.05</ele><time>2026-08-14T03:26:38Z</time></trkpt><trkpt lat="59.3438837584" lon="34.6720887255"><ele>171.07</ele><time>2026-08-14T03:26:55Z</time></trkpt><trkpt lat="59.3439092394" lon="34.6721151285"><ele>170.90</ele><time>2026-08-14T03:26:59Z</time></trkpt><trkpt lat="59.3440208863" lon="34.6723072417"><ele>170.68</ele><time>2026-08-14T03:27:16Z</time></trkpt><trkpt lat="59.3440301903" lon="34.6723050624"><ele>170.70</ele><time>2026-08-14T03:27:18Z</time></trkpt><trkpt lat="59.3440049607" lon="34.6724195592"><ele>167.68</ele><time>2026-08-14T03:27:30Z</time></trkpt><trkpt lat="59.3440546654" lon="34.6726627182"><ele>167.48</ele><time>2026-08-14T03:27:42Z</time></trkpt><trkpt lat="59.3441090640" lon="34.6729201265"><ele>167.39</ele><time>2026-08-14T03:27:56Z</time></trkpt><trkpt lat="59.3441347964" lon="34.6731681470"><ele>167.25</ele><time>2026-08-14T03:28:11Z</time></trkpt><trkpt lat="59.3441797234" lon="34.6731908619"><ele>168.96</ele><time>2026-08-14T03:28:29Z</time></trkpt><trkpt lat="59.3441851716" lon="34.6731830668"><ele>169.88</ele><time>2026-08-14T03:28:33Z</time></trkpt><trkpt lat="59.3442602735" lon="34.6730730962"><ele>170.26</ele><time>2026-08-14T03:28:44Z</time></trkpt><trkpt lat="59.3442839943" lon="34.6729472838"><ele>169.98</ele><time>2026-08-14T03:28:58Z</time></trkpt><trkpt lat="59.3443686515" lon="34.6728441864"><ele>169.26</ele><time>2026-08-14T03:29:12Z</time></trkpt><trkpt lat="59.3444448430" lon="34.6727303602"><ele>168.08</ele><time>2026-08-14T03:29:25Z</time></trkpt><trkpt lat="59.3445197772" lon="34.6727076452"><ele>166.59</ele><time>2026-08-14T03:29:37Z</time></trkpt><trkpt lat="59.3445757683" lon="34.6726053860"><ele>166.71</ele><time>2026-08-14T03:29:52Z</time></trkpt><trkpt lat="59.3446136545" lon="34.6724563558"><ele>165.86</ele><time>2026-08-14T03:30:04Z</time></trkpt><trkpt lat="59.3446478527" lon="34.6722967643"><ele>166.59</ele><time>2026-08-14T03:30:16Z</time></trkpt><trkpt lat="59.3446822185" lon="34.6721929964"><ele>166.69</ele><time>2026-08-14T03:30:34Z</time></trkpt><trkpt lat="59.3447183445" lon="34.6720754821"><ele>166.32</ele><time>2026-08-14T03:30:45Z</time></trkpt><trkpt lat="59.3447474297" lon="34.6718927566"><ele>166.23</ele><time>2026-08-14T03:31:04Z</time></trkpt><trkpt lat="59.3448207714" lon="34.6720647532"><ele>165.36</ele><time>2026-08-14T03:31:21Z</time></trkpt><trkpt lat="59.3449216895" lon="34.6720043197"><ele>165.50</ele><time>2026-08-14T03:31:36Z</time></trkpt><trkpt lat="59.3450395390" lon="34.6719354205"><ele>166.18</ele><time>2026-08-14T03:32:03Z</time></trkpt><trkpt lat="59.3450785987" lon="34.6719053295"><ele>163.28</ele><time>2026-08-14T03:32:24Z</time></trkpt><trkpt lat="59.3452553730" lon="34.6718809381"><ele>161.89</ele><time>2026-08-14T03:32:40Z</time></trkpt><trkpt lat="59.3453738932" lon="34.6718922537"><ele>162.61</ele><time>2026-08-14T03:32:56Z</time></trkpt><trkpt lat="59.3454587180" lon="34.6718720533"><ele>164.42</ele><time>2026-08-14T03:33:15Z</time></trkpt><trkpt lat="59.3454616517" lon="34.6718672756"><ele>162.86</ele><time>2026-08-14T03:33:17Z</time></trkpt><trkpt lat="59.3454475701" lon="34.6717783436"><ele>165.24</ele><time>2026-08-14T03:33:31Z</time></trkpt><trkpt lat="59.3454611488" lon="34.6716713905"><ele>167.27</ele><time>2026-08-14T03:34:08Z</time></trkpt><trkpt lat="59.3454933353" lon="34.6717200894"><ele>167.71</ele><time>2026-08-14T03:34:49Z</time></trkpt><trkpt lat="59.3454749789" lon="34.6717204247"><ele>168.57</ele><time>2026-08-14T03:35:22Z</time></trkpt><trkpt lat="59.3454232626" lon="34.6715847217"><ele>169.16</ele><time>2026-08-14T03:35:34Z</time></trkpt><trkpt lat="59.3454192393" lon="34.6714041755"><ele>167.73</ele><time>2026-08-14T03:35:47Z</time></trkpt><trkpt lat="59.3454048224" lon="34.6713730786"><ele>167.88</ele><time>2026-08-14T03:35:52Z</time></trkpt><trkpt lat="59.3453208357" lon="34.6713463403"><ele>167.75</ele><time>2026-08-14T03:36:05Z</time></trkpt><trkpt lat="59.3452848773" lon="34.6712761838"><ele>168.45</ele><time>2026-08-14T03:36:19Z</time></trkpt><trkpt lat="59.3453248590" lon="34.6710235532"><ele>166.99</ele><time>2026-08-14T03:36:40Z</time></trkpt><trkpt lat="59.3453185726" lon="34.6707993373"><ele>167.28</ele><time>2026-08-14T03:37:06Z</time></trkpt><trkpt lat="59.3452975340" lon="34.6705131792"><ele>167.63</ele><time>2026-08-14T03:37:17Z</time></trkpt><trkpt lat="59.3452375196" lon="34.6702866163"><ele>170.03</ele><time>2026-08-14T03:37:39Z</time></trkpt><trkpt lat="59.3452440575" lon="34.6702320501"><ele>170.35</ele><time>2026-08-14T03:38:18Z</time></trkpt><trkpt lat="59.3452461530" lon="34.6702287812"><ele>170.65</ele><time>2026-08-14T03:38:19Z</time></trkpt><trkpt lat="59.3453338277" lon="34.6707859263"><ele>224.42</ele><time>2026-08-14T03:41:09Z</time></trkpt><trkpt lat="59.3452461530" lon="34.6703589521"><ele>188.50</ele><time>2026-08-14T03:41:21Z</time></trkpt><trkpt lat="59.3452356756" lon="34.6703343932"><ele>175.06</ele><time>2026-08-14T03:41:42Z</time></trkpt><trkpt lat="59.3452391960" lon="34.6703066491"><ele>173.25</ele><time>2026-08-14T03:42:02Z</time></trkpt><trkpt lat="59.3452377710" lon="34.6702356543"><ele>171.26</ele><time>2026-08-14T03:42:25Z</time></trkpt><trkpt lat="59.3452034891" lon="34.6702195611"><ele>175.33</ele><time>2026-08-14T03:42:56Z</time></trkpt><trkpt lat="59.3452011421" lon="34.6702417731"><ele>174.58</ele><time>2026-08-14T03:43:37Z</time></trkpt><trkpt lat="59.3452414591" lon="34.6702720318"><ele>174.87</ele><time>2026-08-14T03:43:54Z</time></trkpt><trkpt lat="59.3452363461" lon="34.6702695172"><ele>176.57</ele><time>2026-08-14T03:44:15Z</time></trkpt><trkpt lat="59.3452717178" lon="34.6702667512"><ele>176.20</ele><time>2026-08-14T03:44:34Z</time></trkpt><trkpt lat="59.3452603184" lon="34.6702430304"><ele>175.58</ele><time>2026-08-14T03:44:50Z</time></trkpt><trkpt lat="59.3452252820" lon="34.6701657493"><ele>175.59</ele><time>2026-08-14T03:45:10Z</time></trkpt><trkpt lat="59.3452285510" lon="34.6700893901"><ele>173.29</ele><time>2026-08-14T03:45:23Z</time></trkpt><trkpt lat="59.3452570494" lon="34.6699559502"><ele>171.23</ele><time>2026-08-14T03:45:41Z</time></trkpt><trkpt lat="59.3452568818" lon="34.6698049922"><ele>171.21</ele><time>2026-08-14T03:45:54Z</time></trkpt><trkpt lat="59.3452737294" lon="34.6696576383"><ele>170.33</ele><time>2026-08-14T03:46:08Z</time></trkpt><trkpt lat="59.3452936783" lon="34.6695094462"><ele>170.51</ele><time>2026-08-14T03:46:22Z</time></trkpt><trkpt lat="59.3453653436" lon="34.6693352703"><ele>170.78</ele><time>2026-08-14T03:46:36Z</time></trkpt><trkpt lat="59.3453870527" lon="34.6691750921"><ele>169.30</ele><time>2026-08-14T03:46:48Z</time></trkpt><trkpt lat="59.3454811815" lon="34.6690359525"><ele>168.88</ele><time>2026-08-14T03:47:03Z</time></trkpt><trkpt lat="59.3455335684" lon="34.6690559853"><ele>169.46</ele><time>2026-08-14T03:47:16Z</time></trkpt><trkpt lat="59.3455874640" lon="34.6691194363"><ele>169.87</ele><time>2026-08-14T03:47:28Z</time></trkpt><trkpt lat="59.3456581235" lon="34.6692289878"><ele>169.92</ele><time>2026-08-14T03:47:50Z</time></trkpt><trkpt lat="59.3457385898" lon="34.6692184266"><ele>168.61</ele><time>2026-08-14T03:48:03Z</time></trkpt><trkpt lat="59.3458015379" lon="34.6691822167"><ele>168.39</ele><time>2026-08-14T03:48:15Z</time></trkpt><trkpt lat="59.3458262645" lon="34.6690988168"><ele>166.95</ele><time>2026-08-14T03:48:32Z</time></trkpt><trkpt lat="59.3458313774" lon="34.6690883394"><ele>167.42</ele><time>2026-08-14T03:48:50Z</time></trkpt><trkpt lat="59.3458466325" lon="34.6691071987"><ele>168.14</ele><time>2026-08-14T03:49:06Z</time></trkpt><trkpt lat="59.3458507396" lon="34.6691048518"><ele>165.70</ele><time>2026-08-14T03:49:41Z</time></trkpt><trkpt lat="59.3458313774" lon="34.6691146586"><ele>166.25</ele><time>2026-08-14T03:50:14Z</time></trkpt><trkpt lat="59.3458329700" lon="34.6690431610"><ele>166.63</ele><time>2026-08-14T03:50:45Z</time></trkpt><trkpt lat="59.3458677549" lon="34.6688910294"><ele>166.94</ele><time>2026-08-14T03:51:00Z</time></trkpt><trkpt lat="59.3459056411" lon="34.6688210405"><ele>166.53</ele><time>2026-08-14T03:51:12Z</time></trkpt><trkpt lat="59.3459345587" lon="34.6687108185"><ele>166.59</ele><time>2026-08-14T03:51:22Z</time></trkpt><trkpt lat="59.3459381629" lon="34.6685845871"><ele>167.32</ele><time>2026-08-14T03:51:36Z</time></trkpt><trkpt lat="59.3458642345" lon="34.6685358882"><ele>166.28</ele><time>2026-08-14T03:51:52Z</time></trkpt><trkpt lat="59.3457924854" lon="34.6685850900"><ele>166.53</ele><time>2026-08-14T03:52:05Z</time></trkpt><trkpt lat="59.3457179703" lon="34.6685401630"><ele>166.76</ele><time>2026-08-14T03:52:21Z</time></trkpt><trkpt lat="59.3456998654" lon="34.6684146859"><ele>166.18</ele><time>2026-08-14T03:52:31Z</time></trkpt><trkpt lat="59.3456812575" lon="34.6682971716"><ele>165.71</ele><time>2026-08-14T03:52:43Z</time></trkpt><trkpt lat="59.3456043955" lon="34.6680500731"><ele>166.14</ele><time>2026-08-14T03:52:56Z</time></trkpt><trkpt lat="59.3455930799" lon="34.6679651644"><ele>167.12</ele><time>2026-08-14T03:53:10Z</time></trkpt><trkpt lat="59.3455892242" lon="34.6679937467"><ele>168.58</ele><time>2026-08-14T03:53:49Z</time></trkpt><trkpt lat="59.3456019647" lon="34.6679479815"><ele>169.84</ele><time>2026-08-14T03:54:45Z</time></trkpt><trkpt lat="59.3455789983" lon="34.6678665932"><ele>169.56</ele><time>2026-08-14T03:55:06Z</time></trkpt><trkpt lat="59.3455870450" lon="34.6677118633"><ele>169.32</ele><time>2026-08-14T03:55:19Z</time></trkpt><trkpt lat="59.3455685209" lon="34.6675296407"><ele>169.54</ele><time>2026-08-14T03:55:33Z</time></trkpt><trkpt lat="59.3456249312" lon="34.6672674548"><ele>169.88</ele><time>2026-08-14T03:55:52Z</time></trkpt><trkpt lat="59.3456649967" lon="34.6670666244"><ele>169.52</ele><time>2026-08-14T03:56:11Z</time></trkpt><trkpt lat="59.3455760647" lon="34.6668709908"><ele>168.26</ele><time>2026-08-14T03:56:25Z</time></trkpt><trkpt lat="59.3455946725" lon="34.6666856669"><ele>168.46</ele><time>2026-08-14T03:56:39Z</time></trkpt><trkpt lat="59.3456621468" lon="34.6664992534"><ele>169.95</ele><time>2026-08-14T03:56:56Z</time></trkpt><trkpt lat="59.3457086664" lon="34.6665203758"><ele>169.27</ele><time>2026-08-14T03:57:13Z</time></trkpt><trkpt lat="59.3456968479" lon="34.6664993372"><ele>168.29</ele><time>2026-08-14T03:58:09Z</time></trkpt><trkpt lat="59.3457246758" lon="34.6664936375"><ele>170.40</ele><time>2026-08-14T03:58:53Z</time></trkpt><trkpt lat="59.3457518332" lon="34.6664872672"><ele>170.05</ele><time>2026-08-14T03:59:16Z</time></trkpt><trkpt lat="59.3458518293" lon="34.6663873550"><ele>170.03</ele><time>2026-08-14T03:59:29Z</time></trkpt><trkpt lat="59.3459145259" lon="34.6663127560"><ele>169.77</ele><time>2026-08-14T03:59:44Z</time></trkpt><trkpt lat="59.3459489755" lon="34.6661569364"><ele>169.31</ele><time>2026-08-14T03:59:57Z</time></trkpt><trkpt lat="59.3459263444" lon="34.6660718601"><ele>173.02</ele><time>2026-08-14T04:00:12Z</time></trkpt><trkpt lat="59.3459465448" lon="34.6661463752"><ele>173.04</ele><time>2026-08-14T04:00:34Z</time></trkpt><trkpt lat="59.3460029550" lon="34.6662009414"><ele>174.15</ele><time>2026-08-14T04:00:53Z</time></trkpt><trkpt lat="59.3459464610" lon="34.6661243308"><ele>173.65</ele><time>2026-08-14T04:01:14Z</time></trkpt><trkpt lat="59.3459412642" lon="34.6660830919"><ele>173.27</ele><time>2026-08-14T04:01:31Z</time></trkpt><trkpt lat="59.3459381629" lon="34.6660407633"><ele>173.40</ele><time>2026-08-14T04:01:44Z</time></trkpt><trkpt lat="59.3459011987" lon="34.6660448704"><ele>173.83</ele><time>2026-08-14T04:02:05Z</time></trkpt><trkpt lat="59.3458241690" lon="34.6659821738"><ele>173.54</ele><time>2026-08-14T04:02:18Z</time></trkpt><trkpt lat="59.3458331376" lon="34.6657608915"><ele>172.46</ele><time>2026-08-14T04:02:36Z</time></trkpt><trkpt lat="59.3458274379" lon="34.6657448821"><ele>172.71</ele><time>2026-08-14T04:02:59Z</time></trkpt><trkpt lat="59.3458320480" lon="34.6657345723"><ele>173.10</ele><time>2026-08-14T04:03:35Z</time></trkpt><trkpt lat="59.3458373286" lon="34.6657410264"><ele>172.72</ele><time>2026-08-14T04:04:19Z</time></trkpt><trkpt lat="59.3458875362" lon="34.6656594705"><ele>171.76</ele><time>2026-08-14T04:04:45Z</time></trkpt><trkpt lat="59.3458979297" lon="34.6654904913"><ele>171.74</ele><time>2026-08-14T04:05:03Z</time></trkpt><trkpt lat="59.3459545914" lon="34.6653654333"><ele>171.70</ele><time>2026-08-14T04:05:14Z</time></trkpt><trkpt lat="59.3460159469" lon="34.6652904991"><ele>171.24</ele><time>2026-08-14T04:05:33Z</time></trkpt><trkpt lat="59.3460915517" lon="34.6652517747"><ele>171.27</ele><time>2026-08-14T04:05:41Z</time></trkpt><trkpt lat="59.3461451959" lon="34.6652422193"><ele>171.42</ele><time>2026-08-14T04:05:54Z</time></trkpt><trkpt lat="59.3461750355" lon="34.6650841366"><ele>169.93</ele><time>2026-08-14T04:06:09Z</time></trkpt><trkpt lat="59.3462049589" lon="34.6649797820"><ele>168.44</ele><time>2026-08-14T04:06:21Z</time></trkpt><trkpt lat="59.3461907934" lon="34.6648615971"><ele>168.09</ele><time>2026-08-14T04:06:35Z</time></trkpt><trkpt lat="59.3461935595" lon="34.6648347750"><ele>168.79</ele><time>2026-08-14T04:07:08Z</time></trkpt><trkpt lat="59.3461992592" lon="34.6648415644"><ele>169.21</ele><time>2026-08-14T04:07:31Z</time></trkpt><trkpt lat="59.3461902905" lon="34.6648456715"><ele>169.38</ele><time>2026-08-14T04:07:47Z</time></trkpt><trkpt lat="59.3461549189" lon="34.6648714878"><ele>170.37</ele><time>2026-08-14T04:08:24Z</time></trkpt><trkpt lat="59.3461656477" lon="34.6648785286"><ele>169.46</ele><time>2026-08-14T04:08:42Z</time></trkpt><trkpt lat="59.3461628817" lon="34.6648912691"><ele>169.10</ele><time>2026-08-14T04:09:03Z</time></trkpt><trkpt lat="59.3461518176" lon="34.6647851542"><ele>166.53</ele><time>2026-08-14T04:09:23Z</time></trkpt><trkpt lat="59.3461013585" lon="34.6647011675"><ele>167.42</ele><time>2026-08-14T04:09:37Z</time></trkpt><trkpt lat="59.3460629694" lon="34.6646200307"><ele>168.45</ele><time>2026-08-14T04:09:52Z</time></trkpt><trkpt lat="59.3460557610" lon="34.6647067834"><ele>169.82</ele><time>2026-08-14T04:10:30Z</time></trkpt><trkpt lat="59.3460278492" lon="34.6646436676"><ele>169.32</ele><time>2026-08-14T04:10:47Z</time></trkpt><trkpt lat="59.3459482212" lon="34.6646070387"><ele>170.53</ele><time>2026-08-14T04:10:59Z</time></trkpt><trkpt lat="59.3459003605" lon="34.6645574179"><ele>169.61</ele><time>2026-08-14T04:11:14Z</time></trkpt><trkpt lat="59.3458467163" lon="34.6645216271"><ele>169.12</ele><time>2026-08-14T04:11:38Z</time></trkpt><trkpt lat="59.3458261807" lon="34.6644616965"><ele>169.02</ele><time>2026-08-14T04:11:53Z</time></trkpt><trkpt lat="59.3457792420" lon="34.6644263249"><ele>168.97</ele><time>2026-08-14T04:12:17Z</time></trkpt><trkpt lat="59.3457336444" lon="34.6643833257"><ele>168.73</ele><time>2026-08-14T04:12:27Z</time></trkpt><trkpt lat="59.3456952553" lon="34.6642498858"><ele>169.09</ele><time>2026-08-14T04:12:48Z</time></trkpt><trkpt lat="59.3455853686" lon="34.6642437670"><ele>169.07</ele><time>2026-08-14T04:13:05Z</time></trkpt><trkpt lat="59.3455177266" lon="34.6642827429"><ele>169.27</ele><time>2026-08-14T04:13:13Z</time></trkpt><trkpt lat="59.3454792537" lon="34.6644402388"><ele>168.22</ele><time>2026-08-14T04:13:26Z</time></trkpt><trkpt lat="59.3454147968" lon="34.6643871814"><ele>168.34</ele><time>2026-08-14T04:13:40Z</time></trkpt><trkpt lat="59.3453205843" lon="34.6643498819"><ele>168.60</ele><time>2026-08-14T04:13:54Z</time></trkpt><trkpt lat="59.3452314846" lon="34.6643779613"><ele>168.81</ele><time>2026-08-14T04:14:09Z</time></trkpt><trkpt lat="59.3451397866" lon="34.6643201262"><ele>168.28</ele><time>2026-08-14T04:14:22Z</time></trkpt><trkpt lat="59.3450795207" lon="34.6642686613"><ele>169.25</ele><time>2026-08-14T04:14:33Z</time></trkpt><trkpt lat="59.3450312410" lon="34.6643193718"><ele>168.68</ele><time>2026-08-14T04:14:47Z</time></trkpt><trkpt lat="59.3450440653" lon="34.6643265802"><ele>168.51</ele><time>2026-08-14T04:15:09Z</time></trkpt><trkpt lat="59.3450621702" lon="34.6644147579"><ele>169.05</ele><time>2026-08-14T04:15:34Z</time></trkpt><trkpt lat="59.3450519443" lon="34.6644275822"><ele>170.47</ele><time>2026-08-14T04:15:55Z</time></trkpt><trkpt lat="59.3450186681" lon="34.6644619480"><ele>170.34</ele><time>2026-08-14T04:16:49Z</time></trkpt><trkpt lat="59.3450214341" lon="34.6644603554"><ele>170.09</ele><time>2026-08-14T04:17:39Z</time></trkpt><trkpt lat="59.3450522795" lon="34.6646248922"><ele>170.20</ele><time>2026-08-14T04:18:35Z</time></trkpt><trkpt lat="59.3451275490" lon="34.6648321766"><ele>170.10</ele><time>2026-08-14T04:18:56Z</time></trkpt><trkpt lat="59.3451663572" lon="34.6650009882"><ele>170.04</ele><time>2026-08-14T04:19:10Z</time></trkpt><trkpt lat="59.3451743200" lon="34.6650020778"><ele>169.77</ele><time>2026-08-14T04:19:31Z</time></trkpt><trkpt lat="59.3451674469" lon="34.6649997309"><ele>169.47</ele><time>2026-08-14T04:19:56Z</time></trkpt><trkpt lat="59.3451829534" lon="34.6649919357"><ele>170.97</ele><time>2026-08-14T04:20:11Z</time></trkpt><trkpt lat="59.3452170677" lon="34.6650470886"><ele>171.13</ele><time>2026-08-14T04:20:35Z</time></trkpt><trkpt lat="59.3452707957" lon="34.6651514433"><ele>170.62</ele><time>2026-08-14T04:20:46Z</time></trkpt><trkpt lat="59.3453085981" lon="34.6652237792"><ele>170.54</ele><time>2026-08-14T04:20:53Z</time></trkpt><trkpt lat="59.3453462329" lon="34.6652861405"><ele>173.78</ele><time>2026-08-14T04:20:57Z</time></trkpt><trkpt lat="59.3453339953" lon="34.6655055787"><ele>172.65</ele><time>2026-08-14T04:21:11Z</time></trkpt><trkpt lat="59.3453115318" lon="34.6655839495"><ele>170.58</ele><time>2026-08-14T04:21:24Z</time></trkpt><trkpt lat="59.3453426287" lon="34.6657194849"><ele>169.91</ele><time>2026-08-14T04:21:45Z</time></trkpt><trkpt lat="59.3453218415" lon="34.6658400167"><ele>167.64</ele><time>2026-08-14T04:21:59Z</time></trkpt><trkpt lat="59.3453424610" lon="34.6659657452"><ele>168.10</ele><time>2026-08-14T04:22:12Z</time></trkpt><trkpt lat="59.3453921657" lon="34.6660348959"><ele>169.63</ele><time>2026-08-14T04:22:29Z</time></trkpt><trkpt lat="59.3454228435" lon="34.6660826728"><ele>169.15</ele><time>2026-08-14T04:22:41Z</time></trkpt><trkpt lat="59.3454467319" lon="34.6662126761"><ele>170.24</ele><time>2026-08-14T04:22:57Z</time></trkpt><trkpt lat="59.3454495817" lon="34.6662176214"><ele>170.13</ele><time>2026-08-14T04:23:00Z</time></trkpt><trkpt lat="59.3455270305" lon="34.6662152745"><ele>170.14</ele><time>2026-08-14T04:23:13Z</time></trkpt><trkpt lat="59.3455189839" lon="34.6662890352"><ele>170.07</ele><time>2026-08-14T04:23:38Z</time></trkpt><trkpt lat="59.3455226719" lon="34.6662866883"><ele>169.93</ele><time>2026-08-14T04:24:02Z</time></trkpt><trkpt lat="59.3455251865" lon="34.6662657335"><ele>170.05</ele><time>2026-08-14T04:24:36Z</time></trkpt><trkpt lat="59.3455137871" lon="34.6662871912"><ele>169.09</ele><time>2026-08-14T04:25:08Z</time></trkpt><trkpt lat="59.3455151282" lon="34.6663807333"><ele>169.90</ele><time>2026-08-14T04:25:29Z</time></trkpt><trkpt lat="59.3455132842" lon="34.6664733533"><ele>170.06</ele><time>2026-08-14T04:25:35Z</time></trkpt><trkpt lat="59.3454737216" lon="34.6665804740"><ele>173.38</ele><time>2026-08-14T04:25:47Z</time></trkpt><trkpt lat="59.3455156311" lon="34.6667005867"><ele>172.42</ele><time>2026-08-14T04:26:01Z</time></trkpt><trkpt lat="59.3454859592" lon="34.6668411512"><ele>171.07</ele><time>2026-08-14T04:26:14Z</time></trkpt><trkpt lat="59.3454298843" lon="34.6670064423"><ele>170.42</ele><time>2026-08-14T04:26:33Z</time></trkpt><trkpt lat="59.3453283794" lon="34.6669284906"><ele>173.02</ele><time>2026-08-14T04:26:47Z</time></trkpt><trkpt lat="59.3452717178" lon="34.6669706516"><ele>171.34</ele><time>2026-08-14T04:27:00Z</time></trkpt><trkpt lat="59.3452167325" lon="34.6671234537"><ele>172.10</ele><time>2026-08-14T04:27:20Z</time></trkpt><trkpt lat="59.3451327458" lon="34.6672196779"><ele>172.02</ele><time>2026-08-14T04:27:39Z</time></trkpt><trkpt lat="59.3450583983" lon="34.6673550457"><ele>172.58</ele><time>2026-08-14T04:27:49Z</time></trkpt><trkpt lat="59.3450228591" lon="34.6674791817"><ele>170.21</ele><time>2026-08-14T04:28:00Z</time></trkpt><trkpt lat="59.3450294808" lon="34.6677052416"><ele>170.36</ele><time>2026-08-14T04:28:16Z</time></trkpt><trkpt lat="59.3449953664" lon="34.6678326465"><ele>170.24</ele><time>2026-08-14T04:28:31Z</time></trkpt><trkpt lat="59.3450011499" lon="34.6677766554"><ele>170.36</ele><time>2026-08-14T04:29:01Z</time></trkpt><trkpt lat="59.3449900858" lon="34.6677985322"><ele>170.02</ele><time>2026-08-14T04:29:36Z</time></trkpt><trkpt lat="59.3449857272" lon="34.6678199898"><ele>170.01</ele><time>2026-08-14T04:30:27Z</time></trkpt><trkpt lat="59.3449767586" lon="34.6678581275"><ele>169.95</ele><time>2026-08-14T04:30:56Z</time></trkpt><trkpt lat="59.3449789379" lon="34.6679068264"><ele>171.08</ele><time>2026-08-14T04:31:21Z</time></trkpt><trkpt lat="59.3449842185" lon="34.6678893920"><ele>170.36</ele><time>2026-08-14T04:31:45Z</time></trkpt><trkpt lat="59.3449900858" lon="34.6680214908"><ele>170.49</ele><time>2026-08-14T04:32:02Z</time></trkpt><trkpt lat="59.3449845538" lon="34.6680822596"><ele>169.93</ele><time>2026-08-14T04:32:22Z</time></trkpt><trkpt lat="59.3450039998" lon="34.6680736262"><ele>170.18</ele><time>2026-08-14T04:32:48Z</time></trkpt><trkpt lat="59.3450278882" lon="34.6682441980"><ele>170.37</ele><time>2026-08-14T04:33:02Z</time></trkpt><trkpt lat="59.3450096995" lon="34.6684385743"><ele>170.41</ele><time>2026-08-14T04:33:15Z</time></trkpt><trkpt lat="59.3449762557" lon="34.6685253270"><ele>171.46</ele><time>2026-08-14T04:33:27Z</time></trkpt><trkpt lat="59.3448960409" lon="34.6685918793"><ele>169.39</ele><time>2026-08-14T04:33:40Z</time></trkpt><trkpt lat="59.3448577356" lon="34.6687251516"><ele>170.22</ele><time>2026-08-14T04:33:57Z</time></trkpt><trkpt lat="59.3447763473" lon="34.6687699948"><ele>168.26</ele><time>2026-08-14T04:34:18Z</time></trkpt><trkpt lat="59.3447745871" lon="34.6687805559"><ele>168.63</ele><time>2026-08-14T04:34:50Z</time></trkpt><trkpt lat="59.3447860703" lon="34.6687693242"><ele>167.96</ele><time>2026-08-14T04:35:22Z</time></trkpt><trkpt lat="59.3447853997" lon="34.6687876806"><ele>168.05</ele><time>2026-08-14T04:36:20Z</time></trkpt><trkpt lat="59.3447864894" lon="34.6687834896"><ele>169.00</ele><time>2026-08-14T04:36:49Z</time></trkpt><trkpt lat="59.3447779398" lon="34.6688396484"><ele>169.05</ele><time>2026-08-14T04:37:17Z</time></trkpt><trkpt lat="59.3447734974" lon="34.6688359603"><ele>168.61</ele><time>2026-08-14T04:37:37Z</time></trkpt><trkpt lat="59.3447523750" lon="34.6688926220"><ele>169.45</ele><time>2026-08-14T04:38:11Z</time></trkpt><trkpt lat="59.3447060231" lon="34.6690043528"><ele>168.67</ele><time>2026-08-14T04:38:23Z</time></trkpt><trkpt lat="59.3446759321" lon="34.6691478509"><ele>169.22</ele><time>2026-08-14T04:38:40Z</time></trkpt><trkpt lat="59.3446291611" lon="34.6691517904"><ele>170.45</ele><time>2026-08-14T04:38:53Z</time></trkpt><trkpt lat="59.3446233775" lon="34.6692979708"><ele>168.02</ele><time>2026-08-14T04:39:11Z</time></trkpt><trkpt lat="59.3446536362" lon="34.6694659442"><ele>168.17</ele><time>2026-08-14T04:39:28Z</time></trkpt><trkpt lat="59.3447104655" lon="34.6695962828"><ele>168.20</ele><time>2026-08-14T04:39:43Z</time></trkpt><trkpt lat="59.3447774369" lon="34.6697158925"><ele>168.47</ele><time>2026-08-14T04:40:01Z</time></trkpt><trkpt lat="59.3448139820" lon="34.6698407829"><ele>168.67</ele><time>2026-08-14T04:40:15Z</time></trkpt><trkpt lat="59.3448632676" lon="34.6699178964"><ele>171.12</ele><time>2026-08-14T04:40:27Z</time></trkpt><trkpt lat="59.3448645249" lon="34.6699337382"><ele>172.18</ele><time>2026-08-14T04:41:21Z</time></trkpt><trkpt lat="59.3448575679" lon="34.6699344926"><ele>172.63</ele><time>2026-08-14T04:42:16Z</time></trkpt><trkpt lat="59.3448775169" lon="34.6700831875"><ele>171.34</ele><time>2026-08-14T04:42:33Z</time></trkpt><trkpt lat="59.3448912632" lon="34.6703040507"><ele>170.75</ele><time>2026-08-14T04:42:48Z</time></trkpt><trkpt lat="59.3448650278" lon="34.6705542505"><ele>171.21</ele><time>2026-08-14T04:43:03Z</time></trkpt><trkpt lat="59.3448330928" lon="34.6706104930"><ele>171.37</ele><time>2026-08-14T04:43:16Z</time></trkpt><trkpt lat="59.3448154908" lon="34.6708274167"><ele>170.97</ele><time>2026-08-14T04:43:34Z</time></trkpt><trkpt lat="59.3447987270" lon="34.6709343698"><ele>170.78</ele><time>2026-08-14T04:43:48Z</time></trkpt><trkpt lat="59.3447395507" lon="34.6710051969"><ele>170.50</ele><time>2026-08-14T04:44:00Z</time></trkpt><trkpt lat="59.3446859904" lon="34.6711026784"><ele>171.15</ele><time>2026-08-14T04:44:13Z</time></trkpt><trkpt lat="59.3446646165" lon="34.6712127328"><ele>170.65</ele><time>2026-08-14T04:44:37Z</time></trkpt><trkpt lat="59.3446924444" lon="34.6713137347"><ele>170.49</ele><time>2026-08-14T04:45:06Z</time></trkpt><trkpt lat="59.3446774408" lon="34.6712533850"><ele>171.00</ele><time>2026-08-14T04:45:27Z</time></trkpt><trkpt lat="59.3446656223" lon="34.6712033451"><ele>170.71</ele><time>2026-08-14T04:45:52Z</time></trkpt><trkpt lat="59.3446422368" lon="34.6712439973"><ele>169.18</ele><time>2026-08-14T04:46:16Z</time></trkpt><trkpt lat="59.3445875868" lon="34.6713508666"><ele>169.13</ele><time>2026-08-14T04:46:30Z</time></trkpt><trkpt lat="59.3445782829" lon="34.6714915987"><ele>166.78</ele><time>2026-08-14T04:46:48Z</time></trkpt><trkpt lat="59.3445604295" lon="34.6716132201"><ele>165.85</ele><time>2026-08-14T04:47:00Z</time></trkpt><trkpt lat="59.3445419893" lon="34.6717168204"><ele>165.58</ele><time>2026-08-14T04:47:13Z</time></trkpt><trkpt lat="59.3445744272" lon="34.6718325745"><ele>166.96</ele><time>2026-08-14T04:47:30Z</time></trkpt><trkpt lat="59.3445461802" lon="34.6719284635"><ele>166.27</ele><time>2026-08-14T04:47:45Z</time></trkpt><trkpt lat="59.3445147481" lon="34.6720527671"><ele>165.39</ele><time>2026-08-14T04:48:01Z</time></trkpt><trkpt lat="59.3444483634" lon="34.6722520888"><ele>166.35</ele><time>2026-08-14T04:48:14Z</time></trkpt><trkpt lat="59.3444075435" lon="34.6722304635"><ele>166.79</ele><time>2026-08-14T04:48:38Z</time></trkpt><trkpt lat="59.3443941325" lon="34.6722205728"><ele>166.82</ele><time>2026-08-14T04:49:29Z</time></trkpt><trkpt lat="59.3443983234" lon="34.6722442936"><ele>165.43</ele><time>2026-08-14T04:50:17Z</time></trkpt><trkpt lat="59.3443711661" lon="34.6722501609"><ele>166.57</ele><time>2026-08-14T04:50:44Z</time></trkpt><trkpt lat="59.3442859221" lon="34.6721317247"><ele>167.27</ele><time>2026-08-14T04:51:03Z</time></trkpt><trkpt lat="59.3441910390" lon="34.6720783319"><ele>168.92</ele><time>2026-08-14T04:51:20Z</time></trkpt><trkpt lat="59.3441410828" lon="34.6720522642"><ele>168.51</ele><time>2026-08-14T04:51:33Z</time></trkpt><trkpt lat="59.3440420926" lon="34.6719977818"><ele>168.85</ele><time>2026-08-14T04:51:55Z</time></trkpt><trkpt lat="59.3439238239" lon="34.6718505956"><ele>168.91</ele><time>2026-08-14T04:52:11Z</time></trkpt><trkpt lat="59.3438260909" lon="34.6717488393"><ele>168.42</ele><time>2026-08-14T04:52:25Z</time></trkpt><trkpt lat="59.3437868636" lon="34.6715364419"><ele>167.75</ele><time>2026-08-14T04:52:38Z</time></trkpt><trkpt lat="59.3437936530" lon="34.6715720650"><ele>167.91</ele><time>2026-08-14T04:53:09Z</time></trkpt><trkpt lat="59.3437863607" lon="34.6715574805"><ele>167.20</ele><time>2026-08-14T04:53:15Z</time></trkpt><trkpt lat="59.3438171223" lon="34.6714491863"><ele>168.26</ele><time>2026-08-14T04:53:32Z</time></trkpt><trkpt lat="59.3439505622" lon="34.6712352801"><ele>167.59</ele><time>2026-08-14T04:53:55Z</time></trkpt><trkpt lat="59.3440082297" lon="34.6710931230"><ele>168.08</ele><time>2026-08-14T04:54:10Z</time></trkpt><trkpt lat="59.3440038711" lon="34.6709317714"><ele>166.32</ele><time>2026-08-14T04:54:23Z</time></trkpt><trkpt lat="59.3440248258" lon="34.6706282627"><ele>168.29</ele><time>2026-08-14T04:54:42Z</time></trkpt><trkpt lat="59.3439910468" lon="34.6704925597"><ele>168.65</ele><time>2026-08-14T04:55:01Z</time></trkpt><trkpt lat="59.3440133426" lon="34.6702977642"><ele>168.50</ele><time>2026-08-14T04:55:22Z</time></trkpt><trkpt lat="59.3440216407" lon="34.6702368278"><ele>171.01</ele><time>2026-08-14T04:55:40Z</time></trkpt><trkpt lat="59.3440096546" lon="34.6702230815"><ele>170.16</ele><time>2026-08-14T04:56:21Z</time></trkpt><trkpt lat="59.3440091517" lon="34.6702114306"><ele>170.24</ele><time>2026-08-14T04:56:52Z</time></trkpt><trkpt lat="59.3440211378" lon="34.6700945869"><ele>170.16</ele><time>2026-08-14T04:57:26Z</time></trkpt><trkpt lat="59.3440073915" lon="34.6699229255"><ele>170.83</ele><time>2026-08-14T04:57:40Z</time></trkpt><trkpt lat="59.3439948186" lon="34.6697655972"><ele>170.97</ele><time>2026-08-14T04:57:55Z</time></trkpt><trkpt lat="59.3439464550" lon="34.6695807762"><ele>169.05</ele><time>2026-08-14T04:58:11Z</time></trkpt><trkpt lat="59.3439175375" lon="34.6693621762"><ele>171.24</ele><time>2026-08-14T04:58:27Z</time></trkpt><trkpt lat="59.3439810723" lon="34.6692018304"><ele>170.64</ele><time>2026-08-14T04:58:41Z</time></trkpt><trkpt lat="59.3440390751" lon="34.6690717433"><ele>169.79</ele><time>2026-08-14T04:58:58Z</time></trkpt><trkpt lat="59.3440486304" lon="34.6690607630"><ele>169.88</ele><time>2026-08-14T04:58:59Z</time></trkpt><trkpt lat="59.3441173621" lon="34.6689381357"><ele>169.60</ele><time>2026-08-14T04:59:12Z</time></trkpt><trkpt lat="59.3441314436" lon="34.6688704938"><ele>168.66</ele><time>2026-08-14T04:59:40Z</time></trkpt><trkpt lat="59.3441313598" lon="34.6688462701"><ele>169.75</ele><time>2026-08-14T05:00:33Z</time></trkpt><trkpt lat="59.3441237323" lon="34.6688455995"><ele>170.42</ele><time>2026-08-14T05:01:18Z</time></trkpt><trkpt lat="59.3441657256" lon="34.6687775385"><ele>170.44</ele><time>2026-08-14T05:01:32Z</time></trkpt><trkpt lat="59.3442131672" lon="34.6685805637"><ele>170.89</ele><time>2026-08-14T05:01:46Z</time></trkpt><trkpt lat="59.3442746904" lon="34.6684531588"><ele>170.65</ele><time>2026-08-14T05:02:00Z</time></trkpt><trkpt lat="59.3443307653" lon="34.6682995185"><ele>172.09</ele><time>2026-08-14T05:02:11Z</time></trkpt><trkpt lat="59.3443064578" lon="34.6681551822"><ele>171.23</ele><time>2026-08-14T05:02:24Z</time></trkpt><trkpt lat="59.3443018477" lon="34.6680322196"><ele>170.07</ele><time>2026-08-14T05:02:48Z</time></trkpt><trkpt lat="59.3442645483" lon="34.6678524278"><ele>169.48</ele><time>2026-08-14T05:03:01Z</time></trkpt><trkpt lat="59.3442790490" lon="34.6678314731"><ele>167.51</ele><time>2026-08-14T05:03:19Z</time></trkpt><trkpt lat="59.3442554958" lon="34.6678272821"><ele>167.02</ele><time>2026-08-14T05:03:58Z</time></trkpt><trkpt lat="59.3442711700" lon="34.6678265277"><ele>167.78</ele><time>2026-08-14T05:04:37Z</time></trkpt><trkpt lat="59.3442618661" lon="34.6678159665"><ele>169.31</ele><time>2026-08-14T05:05:29Z</time></trkpt><trkpt lat="59.3442628719" lon="34.6677945927"><ele>170.05</ele><time>2026-08-14T05:06:21Z</time></trkpt><trkpt lat="59.3442468625" lon="34.6678203251"><ele>169.34</ele><time>2026-08-14T05:06:57Z</time></trkpt><trkpt lat="59.3442539871" lon="34.6677898988"><ele>169.98</ele><time>2026-08-14T05:07:19Z</time></trkpt><trkpt lat="59.3443200365" lon="34.6678204928"><ele>170.44</ele><time>2026-08-14T05:07:38Z</time></trkpt><trkpt lat="59.3443483673" lon="34.6676614881"><ele>169.55</ele><time>2026-08-14T05:07:49Z</time></trkpt><trkpt lat="59.3443107326" lon="34.6674846299"><ele>166.67</ele><time>2026-08-14T05:08:05Z</time></trkpt><trkpt lat="59.3443097267" lon="34.6673471667"><ele>168.11</ele><time>2026-08-14T05:08:18Z</time></trkpt><trkpt lat="59.3443280831" lon="34.6671704762"><ele>168.99</ele><time>2026-08-14T05:08:30Z</time></trkpt><trkpt lat="59.3443525583" lon="34.6671043430"><ele>167.43</ele><time>2026-08-14T05:08:36Z</time></trkpt><trkpt lat="59.3443435896" lon="34.6669638623"><ele>168.06</ele><time>2026-08-14T05:08:50Z</time></trkpt><trkpt lat="59.3443351239" lon="34.6668435819"><ele>168.05</ele><time>2026-08-14T05:09:04Z</time></trkpt><trkpt lat="59.3443483673" lon="34.6668085456"><ele>168.11</ele><time>2026-08-14T05:09:07Z</time></trkpt><trkpt lat="59.3444108963" lon="34.6666444279"><ele>167.97</ele><time>2026-08-14T05:09:25Z</time></trkpt><trkpt lat="59.3444702402" lon="34.6664968226"><ele>168.15</ele><time>2026-08-14T05:09:49Z</time></trkpt><trkpt lat="59.3444936257" lon="34.6664991695"><ele>169.99</ele><time>2026-08-14T05:10:41Z</time></trkpt><trkpt lat="59.3444897700" lon="34.6664805617"><ele>170.48</ele><time>2026-08-14T05:11:41Z</time></trkpt><trkpt lat="59.3445311766" lon="34.6662861854"><ele>170.38</ele><time>2026-08-14T05:11:55Z</time></trkpt><trkpt lat="59.3445288297" lon="34.6661425196"><ele>169.39</ele><time>2026-08-14T05:12:10Z</time></trkpt><trkpt lat="59.3445579987" lon="34.6660306212"><ele>168.89</ele><time>2026-08-14T05:12:24Z</time></trkpt><trkpt lat="59.3446043506" lon="34.6658586245"><ele>169.05</ele><time>2026-08-14T05:12:37Z</time></trkpt><trkpt lat="59.3446462601" lon="34.6656953450"><ele>168.54</ele><time>2026-08-14T05:12:51Z</time></trkpt><trkpt lat="59.3446738366" lon="34.6656213328"><ele>169.17</ele><time>2026-08-14T05:13:03Z</time></trkpt><trkpt lat="59.3447256368" lon="34.6655950975"><ele>169.33</ele><time>2026-08-14T05:13:15Z</time></trkpt><trkpt lat="59.3447210267" lon="34.6654784214"><ele>169.45</ele><time>2026-08-14T05:13:31Z</time></trkpt><trkpt lat="59.3447095435" lon="34.6652880684"><ele>168.97</ele><time>2026-08-14T05:13:47Z</time></trkpt><trkpt lat="59.3446778599" lon="34.6651530359"><ele>171.73</ele><time>2026-08-14T05:14:08Z</time></trkpt><trkpt lat="59.3447001558" lon="34.6650853939"><ele>169.99</ele><time>2026-08-14T05:14:25Z</time></trkpt><trkpt lat="59.3447056878" lon="34.6650844719"><ele>170.18</ele><time>2026-08-14T05:14:55Z</time></trkpt><trkpt lat="59.3447054364" lon="34.6650751680"><ele>170.61</ele><time>2026-08-14T05:15:27Z</time></trkpt><trkpt lat="59.3447128963" lon="34.6651244536"><ele>170.83</ele><time>2026-08-14T05:15:45Z</time></trkpt><trkpt lat="59.3447097950" lon="34.6650641877"><ele>172.17</ele><time>2026-08-14T05:16:14Z</time></trkpt><trkpt lat="59.3447391316" lon="34.6649893373"><ele>171.36</ele><time>2026-08-14T05:16:36Z</time></trkpt><trkpt lat="59.3447508663" lon="34.6648889221"><ele>171.13</ele><time>2026-08-14T05:16:44Z</time></trkpt><trkpt lat="59.3447480164" lon="34.6647542249"><ele>169.87</ele><time>2026-08-14T05:16:56Z</time></trkpt><trkpt lat="59.3447172549" lon="34.6646984853"><ele>170.97</ele><time>2026-08-14T05:17:00Z</time></trkpt><trkpt lat="59.3447211944" lon="34.6645710804"><ele>172.02</ele><time>2026-08-14T05:17:12Z</time></trkpt><trkpt lat="59.3447646964" lon="34.6644357964"><ele>171.89</ele><time>2026-08-14T05:17:25Z</time></trkpt><trkpt lat="59.3447739165" lon="34.6643893607"><ele>170.94</ele><time>2026-08-14T05:17:39Z</time></trkpt><trkpt lat="59.3447781913" lon="34.6643047873"><ele>170.03</ele><time>2026-08-14T05:17:51Z</time></trkpt><trkpt lat="59.3447646964" lon="34.6641965769"><ele>169.60</ele><time>2026-08-14T05:18:05Z</time></trkpt><trkpt lat="59.3447634391" lon="34.6641339641"><ele>169.49</ele><time>2026-08-14T05:18:26Z</time></trkpt><trkpt lat="59.3447614275" lon="34.6640678309"><ele>169.56</ele><time>2026-08-14T05:18:43Z</time></trkpt><trkpt lat="59.3447688874" lon="34.6640813258"><ele>169.35</ele><time>2026-08-14T05:19:06Z</time></trkpt><trkpt lat="59.3447630201" lon="34.6640739497"><ele>169.36</ele><time>2026-08-14T05:19:47Z</time></trkpt><trkpt lat="59.3447622657" lon="34.6640732791"><ele>168.07</ele><time>2026-08-14T05:20:13Z</time></trkpt><trkpt lat="59.3447827175" lon="34.6640164498"><ele>168.18</ele><time>2026-08-14T05:21:01Z</time></trkpt><trkpt lat="59.3447880819" lon="34.6639303677"><ele>167.92</ele><time>2026-08-14T05:21:28Z</time></trkpt><trkpt lat="59.3448364455" lon="34.6637685969"><ele>167.62</ele><time>2026-08-14T05:21:59Z</time></trkpt><trkpt lat="59.3448738288" lon="34.6636415273"><ele>168.73</ele><time>2026-08-14T05:22:19Z</time></trkpt><trkpt lat="59.3449438177" lon="34.6635004599"><ele>169.14</ele><time>2026-08-14T05:22:33Z</time></trkpt><trkpt lat="59.3449699692" lon="34.6634060796"><ele>166.74</ele><time>2026-08-14T05:22:55Z</time></trkpt><trkpt lat="59.3450043350" lon="34.6632964443"><ele>168.87</ele><time>2026-08-14T05:23:10Z</time></trkpt><trkpt lat="59.3449925166" lon="34.6632293891"><ele>169.55</ele><time>2026-08-14T05:23:31Z</time></trkpt><trkpt lat="59.3449876551" lon="34.6632000525"><ele>169.74</ele><time>2026-08-14T05:23:57Z</time></trkpt><trkpt lat="59.3449936900" lon="34.6632273775"><ele>172.62</ele><time>2026-08-14T05:24:39Z</time></trkpt><trkpt lat="59.3449757528" lon="34.6632757410"><ele>171.45</ele><time>2026-08-14T05:25:28Z</time></trkpt><trkpt lat="59.3450044189" lon="34.6633201651"><ele>171.73</ele><time>2026-08-14T05:25:40Z</time></trkpt><trkpt lat="59.3450385332" lon="34.6634506714"><ele>171.04</ele><time>2026-08-14T05:25:53Z</time></trkpt><trkpt lat="59.3450589851" lon="34.6635900624"><ele>169.42</ele><time>2026-08-14T05:26:07Z</time></trkpt><trkpt lat="59.3449964561" lon="34.6636021324"><ele>169.12</ele><time>2026-08-14T05:26:20Z</time></trkpt><trkpt lat="59.3449680414" lon="34.6635915712"><ele>168.31</ele><time>2026-08-14T05:26:28Z</time></trkpt><trkpt lat="59.3448959570" lon="34.6635775734"><ele>169.35</ele><time>2026-08-14T05:26:41Z</time></trkpt><trkpt lat="59.3448894192" lon="34.6635921579"><ele>169.42</ele><time>2026-08-14T05:26:43Z</time></trkpt><trkpt lat="59.3448839709" lon="34.6637107618"><ele>168.68</ele><time>2026-08-14T05:26:54Z</time></trkpt><trkpt lat="59.3448198494" lon="34.6637721173"><ele>168.76</ele><time>2026-08-14T05:27:16Z</time></trkpt><trkpt lat="59.3447642773" lon="34.6637977660"><ele>168.49</ele><time>2026-08-14T05:27:30Z</time></trkpt><trkpt lat="59.3446816318" lon="34.6638337243"><ele>169.03</ele><time>2026-08-14T05:27:50Z</time></trkpt><trkpt lat="59.3445867486" lon="34.6638091654"><ele>169.48</ele><time>2026-08-14T05:28:15Z</time></trkpt><trkpt lat="59.3445467670" lon="34.6637489833"><ele>168.04</ele><time>2026-08-14T05:28:34Z</time></trkpt><trkpt lat="59.3445027620" lon="34.6637365781"><ele>167.99</ele><time>2026-08-14T05:28:45Z</time></trkpt><trkpt lat="59.3444596790" lon="34.6636733785"><ele>167.85</ele><time>2026-08-14T05:28:52Z</time></trkpt><trkpt lat="59.3444561586" lon="34.6636566985"><ele>167.94</ele><time>2026-08-14T05:29:15Z</time></trkpt><trkpt lat="59.3444184400" lon="34.6636661701"><ele>169.26</ele><time>2026-08-14T05:29:21Z</time></trkpt><trkpt lat="59.3443627842" lon="34.6636611409"><ele>169.21</ele><time>2026-08-14T05:29:32Z</time></trkpt><trkpt lat="59.3442751933" lon="34.6636385936"><ele>168.51</ele><time>2026-08-14T05:29:53Z</time></trkpt><trkpt lat="59.3441947270" lon="34.6636295412"><ele>168.71</ele><time>2026-08-14T05:30:08Z</time></trkpt><trkpt lat="59.3440849241" lon="34.6634470671"><ele>169.26</ele><time>2026-08-14T05:30:22Z</time></trkpt><trkpt lat="59.3440522347" lon="34.6633401979"><ele>169.07</ele><time>2026-08-14T05:30:33Z</time></trkpt><trkpt lat="59.3439753726" lon="34.6633387730"><ele>168.43</ele><time>2026-08-14T05:30:50Z</time></trkpt><trkpt lat="59.3438775558" lon="34.6632705443"><ele>168.66</ele><time>2026-08-14T05:31:05Z</time></trkpt><trkpt lat="59.3438890390" lon="34.6632216778"><ele>169.91</ele><time>2026-08-14T05:31:25Z</time></trkpt><trkpt lat="59.3438911345" lon="34.6632644255"><ele>170.32</ele><time>2026-08-14T05:31:54Z</time></trkpt><trkpt lat="59.3438815791" lon="34.6632689517"><ele>169.89</ele><time>2026-08-14T05:32:38Z</time></trkpt><trkpt lat="59.3438971695" lon="34.6632357594"><ele>169.78</ele><time>2026-08-14T05:33:23Z</time></trkpt><trkpt lat="59.3438819982" lon="34.6632111166"><ele>169.28</ele><time>2026-08-14T05:33:49Z</time></trkpt><trkpt lat="59.3439155258" lon="34.6632047463"><ele>167.77</ele><time>2026-08-14T05:35:01Z</time></trkpt><trkpt lat="59.3439055514" lon="34.6632420458"><ele>167.68</ele><time>2026-08-14T05:35:42Z</time></trkpt><trkpt lat="59.3439125922" lon="34.6631869767"><ele>171.37</ele><time>2026-08-14T05:36:36Z</time></trkpt><trkpt lat="59.3438971695" lon="34.6632034890"><ele>170.83</ele><time>2026-08-14T05:37:38Z</time></trkpt><trkpt lat="59.3439139333" lon="34.6632216778"><ele>170.03</ele><time>2026-08-14T05:38:52Z</time></trkpt><trkpt lat="59.3439159449" lon="34.6632312331"><ele>166.99</ele><time>2026-08-14T05:39:52Z</time></trkpt><trkpt lat="59.3439072277" lon="34.6632080991"><ele>167.17</ele><time>2026-08-14T05:40:27Z</time></trkpt><trkpt lat="59.3439149391" lon="34.6631936822"><ele>167.96</ele><time>2026-08-14T05:41:20Z</time></trkpt><trkpt lat="59.3439181242" lon="34.6632016450"><ele>169.29</ele><time>2026-08-14T05:42:19Z</time></trkpt><trkpt lat="59.3439265899" lon="34.6632256173"><ele>169.32</ele><time>2026-08-14T05:43:34Z</time></trkpt><trkpt lat="59.3439255841" lon="34.6631950233"><ele>169.57</ele><time>2026-08-14T05:44:28Z</time></trkpt><trkpt lat="59.3439345527" lon="34.6632063389"><ele>170.34</ele><time>2026-08-14T05:45:28Z</time></trkpt><trkpt lat="59.3439286854" lon="34.6632418782"><ele>172.07</ele><time>2026-08-14T05:46:24Z</time></trkpt><trkpt lat="59.3439297751" lon="34.6632288862"><ele>173.14</ele><time>2026-08-14T05:47:25Z</time></trkpt><trkpt lat="59.3439274281" lon="34.6632199176"><ele>173.42</ele><time>2026-08-14T05:48:24Z</time></trkpt><trkpt lat="59.3439210579" lon="34.6632268745"><ele>174.24</ele><time>2026-08-14T05:49:16Z</time></trkpt><trkpt lat="59.3438994326" lon="34.6632141341"><ele>173.10</ele><time>2026-08-14T05:50:30Z</time></trkpt><trkpt lat="59.3438928947" lon="34.6632248629"><ele>173.55</ele><time>2026-08-14T05:50:55Z</time></trkpt><trkpt lat="59.3438778911" lon="34.6632197499"><ele>175.41</ele><time>2026-08-14T05:51:49Z</time></trkpt><trkpt lat="59.3438634742" lon="34.6631618310"><ele>172.89</ele><time>2026-08-14T05:52:45Z</time></trkpt><trkpt lat="59.3438823335" lon="34.6631842945"><ele>172.30</ele><time>2026-08-14T05:53:16Z</time></trkpt><trkpt lat="59.3438893743" lon="34.6631367691"><ele>172.52</ele><time>2026-08-14T05:53:50Z</time></trkpt><trkpt lat="59.3438869435" lon="34.6631362662"><ele>171.28</ele><time>2026-08-14T05:54:35Z</time></trkpt><trkpt lat="59.3438675813" lon="34.6631842945"><ele>171.15</ele><time>2026-08-14T05:55:14Z</time></trkpt><trkpt lat="59.3438792322" lon="34.6632254496"><ele>170.67</ele><time>2026-08-14T05:55:34Z</time></trkpt><trkpt lat="59.3438899610" lon="34.6632280480"><ele>170.11</ele><time>2026-08-14T05:56:03Z</time></trkpt><trkpt lat="59.3439040426" lon="34.6632353403"><ele>168.74</ele><time>2026-08-14T05:56:22Z</time></trkpt><trkpt lat="59.3438907992" lon="34.6633861307"><ele>169.20</ele><time>2026-08-14T05:56:52Z</time></trkpt><trkpt lat="59.3439201359" lon="34.6635073330"><ele>169.65</ele><time>2026-08-14T05:57:04Z</time></trkpt><trkpt lat="59.3439605366" lon="34.6636681817"><ele>167.73</ele><time>2026-08-14T05:57:17Z</time></trkpt><trkpt lat="59.3440544978" lon="34.6637783200"><ele>168.69</ele><time>2026-08-14T05:57:39Z</time></trkpt><trkpt lat="59.3440798949" lon="34.6639217343"><ele>168.81</ele><time>2026-08-14T05:57:54Z</time></trkpt><trkpt lat="59.3440709263" lon="34.6640905458"><ele>168.19</ele><time>2026-08-14T05:58:09Z</time></trkpt><trkpt lat="59.3440622929" lon="34.6642619558"><ele>168.32</ele><time>2026-08-14T05:58:16Z</time></trkpt><trkpt lat="59.3440491334" lon="34.6643716749"><ele>166.82</ele><time>2026-08-14T05:58:30Z</time></trkpt><trkpt lat="59.3439773843" lon="34.6644659713"><ele>168.26</ele><time>2026-08-14T05:58:43Z</time></trkpt><trkpt lat="59.3438999355" lon="34.6646161750"><ele>168.53</ele><time>2026-08-14T05:59:01Z</time></trkpt><trkpt lat="59.3438679166" lon="34.6646827273"><ele>170.29</ele><time>2026-08-14T05:59:21Z</time></trkpt><trkpt lat="59.3438650668" lon="34.6646770276"><ele>172.81</ele><time>2026-08-14T05:59:55Z</time></trkpt><trkpt lat="59.3438677490" lon="34.6646654606"><ele>172.59</ele><time>2026-08-14T06:00:15Z</time></trkpt><trkpt lat="59.3438469619" lon="34.6646975633"><ele>172.58</ele><time>2026-08-14T06:00:36Z</time></trkpt><trkpt lat="59.3438546732" lon="34.6646927856"><ele>172.25</ele><time>2026-08-14T06:01:03Z</time></trkpt><trkpt lat="59.3439193815" lon="34.6647603437"><ele>171.01</ele><time>2026-08-14T06:01:23Z</time></trkpt><trkpt lat="59.3439204711" lon="34.6648668777"><ele>170.99</ele><time>2026-08-14T06:01:35Z</time></trkpt><trkpt lat="59.3439245783" lon="34.6651232801"><ele>170.87</ele><time>2026-08-14T06:01:53Z</time></trkpt><trkpt lat="59.3438880332" lon="34.6653154772"><ele>170.73</ele><time>2026-08-14T06:02:09Z</time></trkpt><trkpt lat="59.3438415974" lon="34.6654486656"><ele>170.45</ele><time>2026-08-14T06:02:23Z</time></trkpt><trkpt lat="59.3437454570" lon="34.6655625757"><ele>171.26</ele><time>2026-08-14T06:02:36Z</time></trkpt><trkpt lat="59.3436372466" lon="34.6656359173"><ele>170.85</ele><time>2026-08-14T06:02:50Z</time></trkpt><trkpt lat="59.3436310440" lon="34.6656485740"><ele>170.86</ele><time>2026-08-14T06:03:14Z</time></trkpt><trkpt lat="59.3436168786" lon="34.6656695288"><ele>170.06</ele><time>2026-08-14T06:03:47Z</time></trkpt><trkpt lat="59.3436004501" lon="34.6656706184"><ele>170.48</ele><time>2026-08-14T06:04:36Z</time></trkpt><trkpt lat="59.3436237518" lon="34.6657672618"><ele>170.09</ele><time>2026-08-14T06:04:50Z</time></trkpt><trkpt lat="59.3437008653" lon="34.6659543458"><ele>169.64</ele><time>2026-08-14T06:05:05Z</time></trkpt><trkpt lat="59.3436945789" lon="34.6660134383"><ele>170.56</ele><time>2026-08-14T06:05:32Z</time></trkpt><trkpt lat="59.3437103368" lon="34.6660827566"><ele>170.67</ele><time>2026-08-14T06:05:44Z</time></trkpt><trkpt lat="59.3437446188" lon="34.6661965828"><ele>170.37</ele><time>2026-08-14T06:06:00Z</time></trkpt><trkpt lat="59.3437951617" lon="34.6662644763"><ele>170.29</ele><time>2026-08-14T06:06:14Z</time></trkpt><trkpt lat="59.3438534997" lon="34.6663750336"><ele>170.10</ele><time>2026-08-14T06:06:29Z</time></trkpt><trkpt lat="59.3438580260" lon="34.6664520632"><ele>167.37</ele><time>2026-08-14T06:06:42Z</time></trkpt><trkpt lat="59.3438303657" lon="34.6666170191"><ele>168.34</ele><time>2026-08-14T06:06:56Z</time></trkpt><trkpt lat="59.3437952455" lon="34.6667815559"><ele>168.36</ele><time>2026-08-14T06:07:11Z</time></trkpt><trkpt lat="59.3437783979" lon="34.6669795364"><ele>168.64</ele><time>2026-08-14T06:07:26Z</time></trkpt><trkpt lat="59.3437460437" lon="34.6670986433"><ele>167.81</ele><time>2026-08-14T06:07:42Z</time></trkpt><trkpt lat="59.3437288608" lon="34.6671155747"><ele>168.65</ele><time>2026-08-14T06:08:07Z</time></trkpt><trkpt lat="59.3437235802" lon="34.6671202686"><ele>168.34</ele><time>2026-08-14T06:08:39Z</time></trkpt><trkpt lat="59.3437206466" lon="34.6671012416"><ele>168.72</ele><time>2026-08-14T06:09:06Z</time></trkpt><trkpt lat="59.3437120970" lon="34.6671247948"><ele>167.95</ele><time>2026-08-14T06:09:45Z</time></trkpt><trkpt lat="59.3437101692" lon="34.6672201809"><ele>168.17</ele><time>2026-08-14T06:10:01Z</time></trkpt><trkpt lat="59.3437177967" lon="34.6674044989"><ele>167.57</ele><time>2026-08-14T06:10:13Z</time></trkpt><trkpt lat="59.3436475564" lon="34.6676168963"><ele>168.45</ele><time>2026-08-14T06:10:31Z</time></trkpt><trkpt lat="59.3435615581" lon="34.6677558683"><ele>168.79</ele><time>2026-08-14T06:10:43Z</time></trkpt><trkpt lat="59.3434785772" lon="34.6678220853"><ele>169.16</ele><time>2026-08-14T06:10:55Z</time></trkpt><trkpt lat="59.3434014637" lon="34.6677591372"><ele>169.49</ele><time>2026-08-14T06:11:05Z</time></trkpt><trkpt lat="59.3433047365" lon="34.6676571295"><ele>172.24</ele><time>2026-08-14T06:11:21Z</time></trkpt><trkpt lat="59.3433185667" lon="34.6676254459"><ele>171.84</ele><time>2026-08-14T06:11:40Z</time></trkpt><trkpt lat="59.3433315586" lon="34.6676525194"><ele>170.45</ele><time>2026-08-14T06:11:56Z</time></trkpt><trkpt lat="59.3433260266" lon="34.6676918305"><ele>169.55</ele><time>2026-08-14T06:12:26Z</time></trkpt><trkpt lat="59.3433202431" lon="34.6676991228"><ele>168.97</ele><time>2026-08-14T06:12:59Z</time></trkpt><trkpt lat="59.3433063291" lon="34.6677857917"><ele>168.32</ele><time>2026-08-14T06:13:14Z</time></trkpt><trkpt lat="59.3432278745" lon="34.6680123545"><ele>169.16</ele><time>2026-08-14T06:13:33Z</time></trkpt><trkpt lat="59.3431927543" lon="34.6682116762"><ele>168.86</ele><time>2026-08-14T06:13:44Z</time></trkpt><trkpt lat="59.3431464862" lon="34.6683449484"><ele>169.11</ele><time>2026-08-14T06:13:56Z</time></trkpt><trkpt lat="59.3431661837" lon="34.6684692521"><ele>168.57</ele><time>2026-08-14T06:14:11Z</time></trkpt><trkpt lat="59.3432323169" lon="34.6686399914"><ele>168.94</ele><time>2026-08-14T06:14:23Z</time></trkpt><trkpt lat="59.3432689458" lon="34.6687234752"><ele>169.71</ele><time>2026-08-14T06:14:34Z</time></trkpt><trkpt lat="59.3432733882" lon="34.6687194519"><ele>169.75</ele><time>2026-08-14T06:15:07Z</time></trkpt><trkpt lat="59.3432845362" lon="34.6687071305"><ele>170.41</ele><time>2026-08-14T06:15:34Z</time></trkpt><trkpt lat="59.3432814348" lon="34.6687842440"><ele>169.41</ele><time>2026-08-14T06:15:59Z</time></trkpt><trkpt lat="59.3433302175" lon="34.6689195279"><ele>169.61</ele><time>2026-08-14T06:16:10Z</time></trkpt><trkpt lat="59.3433475681" lon="34.6689979825"><ele>170.20</ele><time>2026-08-14T06:16:25Z</time></trkpt><trkpt lat="59.3433376774" lon="34.6692613419"><ele>169.32</ele><time>2026-08-14T06:16:42Z</time></trkpt><trkpt lat="59.3433418684" lon="34.6693975478"><ele>168.96</ele><time>2026-08-14T06:16:58Z</time></trkpt><trkpt lat="59.3433313910" lon="34.6695363522"><ele>169.92</ele><time>2026-08-14T06:17:13Z</time></trkpt><trkpt lat="59.3432617374" lon="34.6696382761"><ele>170.60</ele><time>2026-08-14T06:17:28Z</time></trkpt><trkpt lat="59.3432353344" lon="34.6698394418"><ele>169.43</ele><time>2026-08-14T06:17:45Z</time></trkpt><trkpt lat="59.3431918323" lon="34.6700150426"><ele>170.45</ele><time>2026-08-14T06:17:57Z</time></trkpt><trkpt lat="59.3431824446" lon="34.6700586285"><ele>170.56</ele><time>2026-08-14T06:18:15Z</time></trkpt><trkpt lat="59.3431922514" lon="34.6700701956"><ele>169.17</ele><time>2026-08-14T06:18:47Z</time></trkpt><trkpt lat="59.3431874737" lon="34.6701182239"><ele>170.08</ele><time>2026-08-14T06:19:35Z</time></trkpt><trkpt lat="59.3431933410" lon="34.6700708661"><ele>169.71</ele><time>2026-08-14T06:19:56Z</time></trkpt><trkpt lat="59.3432129547" lon="34.6700743865"><ele>169.95</ele><time>2026-08-14T06:20:28Z</time></trkpt><trkpt lat="59.3432080932" lon="34.6701409388"><ele>169.37</ele><time>2026-08-14T06:20:45Z</time></trkpt><trkpt lat="59.3431883957" lon="34.6701095905"><ele>168.18</ele><time>2026-08-14T06:21:09Z</time></trkpt><trkpt lat="59.3431949336" lon="34.6701522544"><ele>167.65</ele><time>2026-08-14T06:21:19Z</time></trkpt><trkpt lat="59.3432132900" lon="34.6702660806"><ele>167.26</ele><time>2026-08-14T06:21:30Z</time></trkpt><trkpt lat="59.3431428820" lon="34.6703656577"><ele>167.20</ele><time>2026-08-14T06:21:45Z</time></trkpt><trkpt lat="59.3431131262" lon="34.6705143526"><ele>167.42</ele><time>2026-08-14T06:21:57Z</time></trkpt><trkpt lat="59.3430824485" lon="34.6705360617"><ele>166.58</ele><time>2026-08-14T06:22:11Z</time></trkpt><trkpt lat="59.3430670258" lon="34.6705453657"><ele>166.72</ele><time>2026-08-14T06:22:34Z</time></trkpt><trkpt lat="59.3430211768" lon="34.6705940645"><ele>167.56</ele><time>2026-08-14T06:22:49Z</time></trkpt><trkpt lat="59.3429996353" lon="34.6707684919"><ele>167.18</ele><time>2026-08-14T06:23:00Z</time></trkpt><trkpt lat="59.3429869786" lon="34.6708798874"><ele>166.92</ele><time>2026-08-14T06:23:15Z</time></trkpt><trkpt lat="59.3429937679" lon="34.6710794605"><ele>166.48</ele><time>2026-08-14T06:23:29Z</time></trkpt><trkpt lat="59.3429921754" lon="34.6712428238"><ele>166.63</ele><time>2026-08-14T06:23:45Z</time></trkpt><trkpt lat="59.3428948615" lon="34.6713535488"><ele>167.34</ele><time>2026-08-14T06:24:01Z</time></trkpt><trkpt lat="59.3428910896" lon="34.6713923570"><ele>167.09</ele><time>2026-08-14T06:24:36Z</time></trkpt><trkpt lat="59.3428882398" lon="34.6713835560"><ele>167.35</ele><time>2026-08-14T06:24:58Z</time></trkpt><trkpt lat="59.3428845517" lon="34.6713877469"><ele>167.78</ele><time>2026-08-14T06:25:37Z</time></trkpt><trkpt lat="59.3428848870" lon="34.6714376193"><ele>167.67</ele><time>2026-08-14T06:26:13Z</time></trkpt><trkpt lat="59.3428842165" lon="34.6715328377"><ele>164.65</ele><time>2026-08-14T06:26:29Z</time></trkpt><trkpt lat="59.3428664468" lon="34.6716526989"><ele>164.34</ele><time>2026-08-14T06:26:44Z</time></trkpt><trkpt lat="59.3428507727" lon="34.6717812773"><ele>164.37</ele><time>2026-08-14T06:26:59Z</time></trkpt><trkpt lat="59.3428594898" lon="34.6718030702"><ele>164.80</ele><time>2026-08-14T06:27:01Z</time></trkpt><trkpt lat="59.3429157324" lon="34.6718330774"><ele>166.59</ele><time>2026-08-14T06:27:13Z</time></trkpt><trkpt lat="59.3429641798" lon="34.6719109453"><ele>166.68</ele><time>2026-08-14T06:27:29Z</time></trkpt><trkpt lat="59.3430014793" lon="34.6719895676"><ele>163.07</ele><time>2026-08-14T06:27:45Z</time></trkpt><trkpt lat="59.3430594821" lon="34.6721024718"><ele>163.65</ele><time>2026-08-14T06:28:04Z</time></trkpt><trkpt lat="59.3430207577" lon="34.6721930802"><ele>162.60</ele><time>2026-08-14T06:28:15Z</time></trkpt><trkpt lat="59.3429408781" lon="34.6723609697"><ele>162.55</ele><time>2026-08-14T06:28:30Z</time></trkpt><trkpt lat="59.3428693805" lon="34.6723726206"><ele>162.58</ele><time>2026-08-14T06:28:43Z</time></trkpt><trkpt lat="59.3428662792" lon="34.6725261770"><ele>162.39</ele><time>2026-08-14T06:28:56Z</time></trkpt><trkpt lat="59.3428141437" lon="34.6725616325"><ele>162.57</ele><time>2026-08-14T06:29:14Z</time></trkpt><trkpt lat="59.3427399639" lon="34.6724217385"><ele>162.74</ele><time>2026-08-14T06:29:29Z</time></trkpt><trkpt lat="59.3427265529" lon="34.6724280249"><ele>166.44</ele><time>2026-08-14T06:30:10Z</time></trkpt><trkpt lat="59.3427321687" lon="34.6724262647"><ele>168.33</ele><time>2026-08-14T06:30:59Z</time></trkpt><trkpt lat="59.3427227810" lon="34.6725595370"><ele>168.62</ele><time>2026-08-14T06:31:35Z</time></trkpt><trkpt lat="59.3426765967" lon="34.6727148537"><ele>169.02</ele><time>2026-08-14T06:31:48Z</time></trkpt><trkpt lat="59.3426685501" lon="34.6729498822"><ele>169.04</ele><time>2026-08-14T06:32:00Z</time></trkpt><trkpt lat="59.3426946178" lon="34.6730609424"><ele>168.70</ele><time>2026-08-14T06:32:13Z</time></trkpt><trkpt lat="59.3426697236" lon="34.6732757706"><ele>169.12</ele><time>2026-08-14T06:32:28Z</time></trkpt><trkpt lat="59.3426918518" lon="34.6734012477"><ele>169.08</ele><time>2026-08-14T06:32:45Z</time></trkpt><trkpt lat="59.3426942825" lon="34.6733977273"><ele>170.36</ele><time>2026-08-14T06:33:19Z</time></trkpt><trkpt lat="59.3426986411" lon="34.6733768564"><ele>170.09</ele><time>2026-08-14T06:33:49Z</time></trkpt><trkpt lat="59.3427061848" lon="34.6733759344"><ele>169.71</ele><time>2026-08-14T06:34:18Z</time></trkpt><trkpt lat="59.3426929414" lon="34.6733626910"><ele>168.87</ele><time>2026-08-14T06:34:47Z</time></trkpt><trkpt lat="59.3426988926" lon="34.6733673848"><ele>168.97</ele><time>2026-08-14T06:35:18Z</time></trkpt><trkpt lat="59.3427058496" lon="34.6733756829"><ele>168.49</ele><time>2026-08-14T06:35:51Z</time></trkpt><trkpt lat="59.3427289836" lon="34.6733527165"><ele>168.88</ele><time>2026-08-14T06:36:11Z</time></trkpt><trkpt lat="59.3427325878" lon="34.6733465977"><ele>168.72</ele><time>2026-08-14T06:36:30Z</time></trkpt><trkpt lat="59.3427447416" lon="34.6733611822"><ele>168.54</ele><time>2026-08-14T06:36:50Z</time></trkpt><trkpt lat="59.3427044246" lon="34.6733579971"><ele>167.92</ele><time>2026-08-14T06:37:15Z</time></trkpt><trkpt lat="59.3427014910" lon="34.6733777784"><ele>167.13</ele><time>2026-08-14T06:37:52Z</time></trkpt><trkpt lat="59.3426887505" lon="34.6734187659"><ele>166.67</ele><time>2026-08-14T06:37:58Z</time></trkpt><trkpt lat="59.3427011557" lon="34.6736898366"><ele>166.40</ele><time>2026-08-14T06:38:10Z</time></trkpt><trkpt lat="59.3426891696" lon="34.6738640964"><ele>166.16</ele><time>2026-08-14T06:38:24Z</time></trkpt><trkpt lat="59.3426353578" lon="34.6739380248"><ele>166.24</ele><time>2026-08-14T06:38:35Z</time></trkpt><trkpt lat="59.3426062725" lon="34.6741126198"><ele>166.13</ele><time>2026-08-14T06:38:48Z</time></trkpt><trkpt lat="59.3425970525" lon="34.6742866281"><ele>165.76</ele><time>2026-08-14T06:39:00Z</time></trkpt><trkpt lat="59.3425634410" lon="34.6744460519"><ele>165.76</ele><time>2026-08-14T06:39:13Z</time></trkpt><trkpt lat="59.3425291590" lon="34.6745636500"><ele>166.66</ele><time>2026-08-14T06:39:34Z</time></trkpt><trkpt lat="59.3425199389" lon="34.6747113392"><ele>166.33</ele><time>2026-08-14T06:39:47Z</time></trkpt><trkpt lat="59.3425137363" lon="34.6748290211"><ele>167.26</ele><time>2026-08-14T06:40:00Z</time></trkpt><trkpt lat="59.3425244652" lon="34.6748660691"><ele>168.53</ele><time>2026-08-14T06:40:36Z</time></trkpt><trkpt lat="59.3425384630" lon="34.6748754568"><ele>169.59</ele><time>2026-08-14T06:41:30Z</time></trkpt><trkpt lat="59.3424740899" lon="34.6750742756"><ele>168.75</ele><time>2026-08-14T06:42:02Z</time></trkpt><trkpt lat="59.3424687255" lon="34.6752953902"><ele>169.29</ele><time>2026-08-14T06:42:16Z</time></trkpt><trkpt lat="59.3425145745" lon="34.6754510421"><ele>169.87</ele><time>2026-08-14T06:42:30Z</time></trkpt><trkpt lat="59.3425309192" lon="34.6755760163"><ele>169.41</ele><time>2026-08-14T06:42:43Z</time></trkpt><trkpt lat="59.3425062764" lon="34.6758466680"><ele>168.82</ele><time>2026-08-14T06:43:03Z</time></trkpt><trkpt lat="59.3425050192" lon="34.6761221811"><ele>168.47</ele><time>2026-08-14T06:43:25Z</time></trkpt><trkpt lat="59.3425035942" lon="34.6760990471"><ele>169.43</ele><time>2026-08-14T06:43:43Z</time></trkpt><trkpt lat="59.3425200228" lon="34.6761433873"><ele>169.08</ele><time>2026-08-14T06:44:04Z</time></trkpt><trkpt lat="59.3424895965" lon="34.6760764997"><ele>169.27</ele><time>2026-08-14T06:44:26Z</time></trkpt><trkpt lat="59.3425057735" lon="34.6761284675"><ele>170.30</ele><time>2026-08-14T06:45:01Z</time></trkpt><trkpt lat="59.3424882554" lon="34.6760452352"><ele>169.98</ele><time>2026-08-14T06:45:23Z</time></trkpt><trkpt lat="59.3424549792" lon="34.6761341672"><ele>170.07</ele><time>2026-08-14T06:45:46Z</time></trkpt><trkpt lat="59.3424785323" lon="34.6762017254"><ele>169.49</ele><time>2026-08-14T06:46:17Z</time></trkpt><trkpt lat="59.3424507882" lon="34.6763878874"><ele>169.30</ele><time>2026-08-14T06:46:30Z</time></trkpt><trkpt lat="59.3424539734" lon="34.6765217464"><ele>169.23</ele><time>2026-08-14T06:46:48Z</time></trkpt><trkpt lat="59.3424735870" lon="34.6766923182"><ele>168.31</ele><time>2026-08-14T06:47:02Z</time></trkpt><trkpt lat="59.3424605951" lon="34.6767512430"><ele>168.22</ele><time>2026-08-14T06:47:07Z</time></trkpt><trkpt lat="59.3424183503" lon="34.6769407578"><ele>167.85</ele><time>2026-08-14T06:47:22Z</time></trkpt><trkpt lat="59.3424346950" lon="34.6770928893"><ele>167.67</ele><time>2026-08-14T06:47:36Z</time></trkpt><trkpt lat="59.3424080405" lon="34.6772073861"><ele>167.04</ele><time>2026-08-14T06:47:46Z</time></trkpt><trkpt lat="59.3423285801" lon="34.6773032751"><ele>168.87</ele><time>2026-08-14T06:47:59Z</time></trkpt><trkpt lat="59.3423101399" lon="34.6773892734"><ele>167.00</ele><time>2026-08-14T06:48:19Z</time></trkpt><trkpt lat="59.3423004169" lon="34.6774459351"><ele>166.13</ele><time>2026-08-14T06:48:38Z</time></trkpt><trkpt lat="59.3422791269" lon="34.6774916165"><ele>164.72</ele><time>2026-08-14T06:49:30Z</time></trkpt><trkpt lat="59.3422798812" lon="34.6774842404"><ele>164.22</ele><time>2026-08-14T06:50:27Z</time></trkpt><trkpt lat="59.3422817253" lon="34.6774806362"><ele>164.76</ele><time>2026-08-14T06:51:02Z</time></trkpt><trkpt lat="59.3423067871" lon="34.6774556581"><ele>165.08</ele><time>2026-08-14T06:51:31Z</time></trkpt><trkpt lat="59.3422894366" lon="34.6773733478"><ele>165.45</ele><time>2026-08-14T06:51:55Z</time></trkpt><trkpt lat="59.3422875926" lon="34.6773722582"><ele>165.30</ele><time>2026-08-14T06:52:21Z</time></trkpt><trkpt lat="59.3423044402" lon="34.6774110664"><ele>163.93</ele><time>2026-08-14T06:52:48Z</time></trkpt><trkpt lat="59.3423093855" lon="34.6773894411"><ele>166.08</ele><time>2026-08-14T06:53:18Z</time></trkpt><trkpt lat="59.3423139956" lon="34.6773954760"><ele>165.71</ele><time>2026-08-14T06:53:45Z</time></trkpt><trkpt lat="59.3422979861" lon="34.6774604358"><ele>165.59</ele><time>2026-08-14T06:54:04Z</time></trkpt><trkpt lat="59.3423101399" lon="34.6776834782"><ele>166.93</ele><time>2026-08-14T06:54:21Z</time></trkpt><trkpt lat="59.3423372973" lon="34.6778112184"><ele>166.05</ele><time>2026-08-14T06:54:33Z</time></trkpt><trkpt lat="59.3422872573" lon="34.6779462509"><ele>166.36</ele><time>2026-08-14T06:54:46Z</time></trkpt><trkpt lat="59.3422692362" lon="34.6780417208"><ele>167.10</ele><time>2026-08-14T06:54:59Z</time></trkpt><trkpt lat="59.3421971519" lon="34.6780670341"><ele>167.07</ele><time>2026-08-14T06:55:08Z</time></trkpt><trkpt lat="59.3420818169" lon="34.6781729814"><ele>166.89</ele><time>2026-08-14T06:55:22Z</time></trkpt><trkpt lat="59.3420467805" lon="34.6782499272"><ele>166.71</ele><time>2026-08-14T06:55:36Z</time></trkpt><trkpt lat="59.3420390692" lon="34.6782636736"><ele>167.77</ele><time>2026-08-14T06:55:49Z</time></trkpt><trkpt lat="59.3420438468" lon="34.6782798506"><ele>168.21</ele><time>2026-08-14T06:56:22Z</time></trkpt><trkpt lat="59.3420372251" lon="34.6782788448"><ele>168.31</ele><time>2026-08-14T06:56:49Z</time></trkpt><trkpt lat="59.3420348782" lon="34.6782722231"><ele>166.93</ele><time>2026-08-14T06:57:31Z</time></trkpt><trkpt lat="59.3420428410" lon="34.6783680283"><ele>166.37</ele><time>2026-08-14T06:57:46Z</time></trkpt><trkpt lat="59.3420737702" lon="34.6785118617"><ele>166.13</ele><time>2026-08-14T06:58:01Z</time></trkpt><trkpt lat="59.3420877680" lon="34.6785599738"><ele>166.62</ele><time>2026-08-14T06:58:20Z</time></trkpt><trkpt lat="59.3420847505" lon="34.6786207426"><ele>166.00</ele><time>2026-08-14T06:59:01Z</time></trkpt><trkpt lat="59.3420957308" lon="34.6787524223"><ele>165.67</ele><time>2026-08-14T06:59:14Z</time></trkpt><trkpt lat="59.3421282526" lon="34.6788818389"><ele>166.12</ele><time>2026-08-14T06:59:27Z</time></trkpt><trkpt lat="59.3420427572" lon="34.6789526660"><ele>165.69</ele><time>2026-08-14T06:59:41Z</time></trkpt><trkpt lat="59.3419820722" lon="34.6790551767"><ele>164.78</ele><time>2026-08-14T06:59:59Z</time></trkpt><trkpt lat="59.3419629615" lon="34.6792943962"><ele>164.78</ele><time>2026-08-14T07:00:18Z</time></trkpt><trkpt lat="59.3419380672" lon="34.6794276685"><ele>165.20</ele><time>2026-08-14T07:00:43Z</time></trkpt><trkpt lat="59.3419450242" lon="34.6794432588"><ele>167.47</ele><time>2026-08-14T07:01:46Z</time></trkpt><trkpt lat="59.3419582676" lon="34.6795172710"><ele>167.44</ele><time>2026-08-14T07:02:12Z</time></trkpt><trkpt lat="59.3419582676" lon="34.6796899382"><ele>168.12</ele><time>2026-08-14T07:02:25Z</time></trkpt><trkpt lat="59.3419575971" lon="34.6799258888"><ele>167.54</ele><time>2026-08-14T07:02:40Z</time></trkpt><trkpt lat="59.3418960739" lon="34.6800301597"><ele>166.47</ele><time>2026-08-14T07:02:54Z</time></trkpt><trkpt lat="59.3418165296" lon="34.6801643539"><ele>166.42</ele><time>2026-08-14T07:03:07Z</time></trkpt><trkpt lat="59.3417287711" lon="34.6803360991"><ele>166.10</ele><time>2026-08-14T07:03:22Z</time></trkpt><trkpt lat="59.3416840956" lon="34.6804257855"><ele>164.95</ele><time>2026-08-14T07:03:31Z</time></trkpt><trkpt lat="59.3416179623" lon="34.6805729717"><ele>165.68</ele><time>2026-08-14T07:03:45Z</time></trkpt><trkpt lat="59.3415960856" lon="34.6805841196"><ele>166.20</ele><time>2026-08-14T07:04:11Z</time></trkpt><trkpt lat="59.3415948283" lon="34.6806029789"><ele>166.32</ele><time>2026-08-14T07:04:19Z</time></trkpt><trkpt lat="59.3416059762" lon="34.6805811860"><ele>165.76</ele><time>2026-08-14T07:04:36Z</time></trkpt><trkpt lat="59.3415881228" lon="34.6806000452"><ele>166.25</ele><time>2026-08-14T07:05:10Z</time></trkpt><trkpt lat="59.3415821716" lon="34.6805839520"><ele>166.06</ele><time>2026-08-14T07:05:50Z</time></trkpt><trkpt lat="59.3415998574" lon="34.6805414557"><ele>166.12</ele><time>2026-08-14T07:06:22Z</time></trkpt><trkpt lat="59.3415889610" lon="34.6805605665"><ele>167.00</ele><time>2026-08-14T07:07:01Z</time></trkpt><trkpt lat="59.3415832613" lon="34.6805887297"><ele>166.35</ele><time>2026-08-14T07:07:25Z</time></trkpt><trkpt lat="59.3415860273" lon="34.6805845387"><ele>166.34</ele><time>2026-08-14T07:07:28Z</time></trkpt><trkpt lat="59.3415732868" lon="34.6805613209"><ele>166.22</ele><time>2026-08-14T07:07:45Z</time></trkpt><trkpt lat="59.3415424414" lon="34.6805897355"><ele>166.83</ele><time>2026-08-14T07:08:01Z</time></trkpt><trkpt lat="59.3415658269" lon="34.6806004643"><ele>167.56</ele><time>2026-08-14T07:08:41Z</time></trkpt><trkpt lat="59.3415756337" lon="34.6805618238"><ele>163.71</ele><time>2026-08-14T07:09:31Z</time></trkpt><trkpt lat="59.3415865302" lon="34.6805799287"><ele>162.45</ele><time>2026-08-14T07:10:40Z</time></trkpt><trkpt lat="59.3415987678" lon="34.6805964410"><ele>162.74</ele><time>2026-08-14T07:11:35Z</time></trkpt><trkpt lat="59.3415948283" lon="34.6805780847"><ele>163.22</ele><time>2026-08-14T07:12:23Z</time></trkpt><trkpt lat="59.3415936548" lon="34.6805779170"><ele>162.57</ele><time>2026-08-14T07:13:32Z</time></trkpt><trkpt lat="59.3415971752" lon="34.6805766597"><ele>163.67</ele><time>2026-08-14T07:14:43Z</time></trkpt><trkpt lat="59.3415987678" lon="34.6805892326"><ele>162.91</ele><time>2026-08-14T07:15:50Z</time></trkpt><trkpt lat="59.3415966723" lon="34.6805943456"><ele>163.10</ele><time>2026-08-14T07:16:59Z</time></trkpt><trkpt lat="59.3416000251" lon="34.6805966925"><ele>163.04</ele><time>2026-08-14T07:17:58Z</time></trkpt><trkpt lat="59.3415982649" lon="34.6805864666"><ele>162.36</ele><time>2026-08-14T07:19:15Z</time></trkpt><trkpt lat="59.3416084908" lon="34.6805838682"><ele>162.42</ele><time>2026-08-14T07:20:34Z</time></trkpt><trkpt lat="59.3416129332" lon="34.6805921663"><ele>161.60</ele><time>2026-08-14T07:21:05Z</time></trkpt><trkpt lat="59.3416093290" lon="34.6805982850"><ele>163.44</ele><time>2026-08-14T07:21:15Z</time></trkpt><trkpt lat="59.3416297808" lon="34.6805657633"><ele>163.69</ele><time>2026-08-14T07:21:31Z</time></trkpt><trkpt lat="59.3416351452" lon="34.6805896517"><ele>164.68</ele><time>2026-08-14T07:21:50Z</time></trkpt><trkpt lat="59.3416361511" lon="34.6805850416"><ele>165.49</ele><time>2026-08-14T07:22:18Z</time></trkpt><trkpt lat="59.3416099995" lon="34.6805831976"><ele>165.17</ele><time>2026-08-14T07:22:42Z</time></trkpt><trkpt lat="59.3415470514" lon="34.6806829423"><ele>165.37</ele><time>2026-08-14T07:22:58Z</time></trkpt><trkpt lat="59.3414246757" lon="34.6807857882"><ele>164.25</ele><time>2026-08-14T07:23:15Z</time></trkpt><trkpt lat="59.3413993623" lon="34.6808259375"><ele>164.27</ele><time>2026-08-14T07:23:47Z</time></trkpt><trkpt lat="59.3413948361" lon="34.6808318887"><ele>165.15</ele><time>2026-08-14T07:24:13Z</time></trkpt><trkpt lat="59.3413499929" lon="34.6808250993"><ele>165.31</ele><time>2026-08-14T07:24:26Z</time></trkpt><trkpt lat="59.3412983604" lon="34.6807833575"><ele>165.51</ele><time>2026-08-14T07:24:34Z</time></trkpt><trkpt lat="59.3411722966" lon="34.6807475667"><ele>165.68</ele><time>2026-08-14T07:24:47Z</time></trkpt><trkpt lat="59.3411195744" lon="34.6807225887"><ele>164.93</ele><time>2026-08-14T07:24:59Z</time></trkpt><trkpt lat="59.3410387728" lon="34.6806393564"><ele>163.50</ele><time>2026-08-14T07:25:16Z</time></trkpt><trkpt lat="59.3409468234" lon="34.6805397794"><ele>163.38</ele><time>2026-08-14T07:25:28Z</time></trkpt><trkpt lat="59.3409056682" lon="34.6804971993"><ele>164.87</ele><time>2026-08-14T07:25:43Z</time></trkpt><trkpt lat="59.3408548739" lon="34.6804884821"><ele>165.54</ele><time>2026-08-14T07:26:08Z</time></trkpt><trkpt lat="59.3407560512" lon="34.6804542840"><ele>164.93</ele><time>2026-08-14T07:26:21Z</time></trkpt><trkpt lat="59.3407170754" lon="34.6804357599"><ele>164.34</ele><time>2026-08-14T07:26:38Z</time></trkpt><trkpt lat="59.3407177459" lon="34.6804341674"><ele>163.71</ele><time>2026-08-14T07:27:11Z</time></trkpt><trkpt lat="59.3407065980" lon="34.6804347541"><ele>163.20</ele><time>2026-08-14T07:27:48Z</time></trkpt><trkpt lat="59.3407185841" lon="34.6804385260"><ele>162.66</ele><time>2026-08-14T07:28:13Z</time></trkpt><trkpt lat="59.3407416344" lon="34.6803707164"><ele>162.89</ele><time>2026-08-14T07:28:22Z</time></trkpt><trkpt lat="59.3407827895" lon="34.6802086942"><ele>161.90</ele><time>2026-08-14T07:28:35Z</time></trkpt><trkpt lat="59.3407873996" lon="34.6800922696"><ele>162.06</ele><time>2026-08-14T07:28:45Z</time></trkpt><trkpt lat="59.3408460729" lon="34.6799437422"><ele>162.49</ele><time>2026-08-14T07:28:59Z</time></trkpt><trkpt lat="59.3408602383" lon="34.6798136551"><ele>162.56</ele><time>2026-08-14T07:29:17Z</time></trkpt><trkpt lat="59.3408514373" lon="34.6797853243"><ele>162.47</ele><time>2026-08-14T07:29:40Z</time></trkpt><trkpt lat="59.3408411276" lon="34.6797576640"><ele>163.37</ele><time>2026-08-14T07:30:20Z</time></trkpt><trkpt lat="59.3408470787" lon="34.6797302552"><ele>163.83</ele><time>2026-08-14T07:31:05Z</time></trkpt><trkpt lat="59.3408606574" lon="34.6797717456"><ele>164.48</ele><time>2026-08-14T07:31:30Z</time></trkpt><trkpt lat="59.3408762477" lon="34.6797685605"><ele>164.35</ele><time>2026-08-14T07:32:01Z</time></trkpt><trkpt lat="59.3408575561" lon="34.6797151677"><ele>164.18</ele><time>2026-08-14T07:32:35Z</time></trkpt><trkpt lat="59.3408546224" lon="34.6795612760"><ele>163.74</ele><time>2026-08-14T07:32:48Z</time></trkpt><trkpt lat="59.3408399541" lon="34.6794098988"><ele>163.96</ele><time>2026-08-14T07:33:04Z</time></trkpt><trkpt lat="59.3408186641" lon="34.6793247387"><ele>164.24</ele><time>2026-08-14T07:33:18Z</time></trkpt><trkpt lat="59.3407901656" lon="34.6792227309"><ele>163.92</ele><time>2026-08-14T07:33:36Z</time></trkpt><trkpt lat="59.3407675344" lon="34.6791591961"><ele>163.77</ele><time>2026-08-14T07:33:59Z</time></trkpt><trkpt lat="59.3407645170" lon="34.6791410912"><ele>164.13</ele><time>2026-08-14T07:34:13Z</time></trkpt><trkpt lat="59.3408058397" lon="34.6790420171"><ele>163.01</ele><time>2026-08-14T07:34:31Z</time></trkpt><trkpt lat="59.3408731464" lon="34.6788752172"><ele>162.65</ele><time>2026-08-14T07:34:51Z</time></trkpt><trkpt lat="59.3409360945" lon="34.6786642447"><ele>162.86</ele><time>2026-08-14T07:35:07Z</time></trkpt><trkpt lat="59.3409413751" lon="34.6786450502"><ele>162.84</ele><time>2026-08-14T07:35:08Z</time></trkpt><trkpt lat="59.3409714662" lon="34.6785494965"><ele>164.20</ele><time>2026-08-14T07:35:13Z</time></trkpt><trkpt lat="59.3410412874" lon="34.6784623247"><ele>164.49</ele><time>2026-08-14T07:35:25Z</time></trkpt><trkpt lat="59.3411373440" lon="34.6785573754"><ele>164.57</ele><time>2026-08-14T07:35:38Z</time></trkpt><trkpt lat="59.3412092607" lon="34.6786441281"><ele>165.46</ele><time>2026-08-14T07:35:49Z</time></trkpt><trkpt lat="59.3412525952" lon="34.6786218323"><ele>164.97</ele><time>2026-08-14T07:36:16Z</time></trkpt><trkpt lat="59.3412519246" lon="34.6786144562"><ele>163.99</ele><time>2026-08-14T07:37:02Z</time></trkpt><trkpt lat="59.3412607256" lon="34.6785894781"><ele>164.41</ele><time>2026-08-14T07:38:02Z</time></trkpt><trkpt lat="59.3412620667" lon="34.6785667632"><ele>165.92</ele><time>2026-08-14T07:38:28Z</time></trkpt><trkpt lat="59.3412493262" lon="34.6784082614"><ele>166.03</ele><time>2026-08-14T07:38:40Z</time></trkpt><trkpt lat="59.3412100989" lon="34.6783447266"><ele>165.06</ele><time>2026-08-14T07:38:48Z</time></trkpt><trkpt lat="59.3411293812" lon="34.6782353427"><ele>164.22</ele><time>2026-08-14T07:39:00Z</time></trkpt><trkpt lat="59.3410267867" lon="34.6781031601"><ele>162.73</ele><time>2026-08-14T07:39:14Z</time></trkpt><trkpt lat="59.3410139624" lon="34.6779743303"><ele>163.15</ele><time>2026-08-14T07:39:26Z</time></trkpt><trkpt lat="59.3410732225" lon="34.6778337657"><ele>162.74</ele><time>2026-08-14T07:39:39Z</time></trkpt><trkpt lat="59.3411400262" lon="34.6777714882"><ele>165.62</ele><time>2026-08-14T07:39:50Z</time></trkpt><trkpt lat="59.3412140384" lon="34.6777442470"><ele>166.15</ele><time>2026-08-14T07:40:01Z</time></trkpt><trkpt lat="59.3412284553" lon="34.6776594222"><ele>160.98</ele><time>2026-08-14T07:40:27Z</time></trkpt><trkpt lat="59.3412192352" lon="34.6777084563"><ele>162.77</ele><time>2026-08-14T07:41:02Z</time></trkpt><trkpt lat="59.3412091769" lon="34.6777219512"><ele>163.10</ele><time>2026-08-14T07:41:41Z</time></trkpt><trkpt lat="59.3412152957" lon="34.6777213644"><ele>163.39</ele><time>2026-08-14T07:42:05Z</time></trkpt><trkpt lat="59.3412030581" lon="34.6777042653"><ele>163.90</ele><time>2026-08-14T07:42:30Z</time></trkpt><trkpt lat="59.3412126973" lon="34.6776334383"><ele>164.38</ele><time>2026-08-14T07:42:55Z</time></trkpt><trkpt lat="59.3412521761" lon="34.6774245612"><ele>164.51</ele><time>2026-08-14T07:43:10Z</time></trkpt><trkpt lat="59.3413059879" lon="34.6772110742"><ele>164.16</ele><time>2026-08-14T07:43:24Z</time></trkpt><trkpt lat="59.3413083348" lon="34.6769821644"><ele>163.27</ele><time>2026-08-14T07:43:40Z</time></trkpt><trkpt lat="59.3412974384" lon="34.6768932324"><ele>162.81</ele><time>2026-08-14T07:43:46Z</time></trkpt><trkpt lat="59.3412800878" lon="34.6767279413"><ele>163.60</ele><time>2026-08-14T07:43:59Z</time></trkpt><trkpt lat="59.3412746396" lon="34.6767106745"><ele>163.72</ele><time>2026-08-14T07:44:43Z</time></trkpt><trkpt lat="59.3412739690" lon="34.6767282765"><ele>163.21</ele><time>2026-08-14T07:45:10Z</time></trkpt><trkpt lat="59.3412689399" lon="34.6767003648"><ele>163.39</ele><time>2026-08-14T07:45:54Z</time></trkpt><trkpt lat="59.3412759807" lon="34.6766157914"><ele>162.86</ele><time>2026-08-14T07:46:21Z</time></trkpt><trkpt lat="59.3413626496" lon="34.6764970198"><ele>162.94</ele><time>2026-08-14T07:46:34Z</time></trkpt><trkpt lat="59.3414226640" lon="34.6763388533"><ele>162.20</ele><time>2026-08-14T07:46:51Z</time></trkpt><trkpt lat="59.3414569460" lon="34.6761736460"><ele>163.00</ele><time>2026-08-14T07:47:04Z</time></trkpt><trkpt lat="59.3414951675" lon="34.6760278847"><ele>162.08</ele><time>2026-08-14T07:47:17Z</time></trkpt><trkpt lat="59.3415094167" lon="34.6758878231"><ele>163.27</ele><time>2026-08-14T07:47:30Z</time></trkpt><trkpt lat="59.3414984364" lon="34.6756779402"><ele>163.26</ele><time>2026-08-14T07:47:43Z</time></trkpt><trkpt lat="59.3415437825" lon="34.6756114718"><ele>163.39</ele><time>2026-08-14T07:47:55Z</time></trkpt><trkpt lat="59.3415827584" lon="34.6755987313"><ele>163.70</ele><time>2026-08-14T07:48:05Z</time></trkpt><trkpt lat="59.3416148610" lon="34.6754471865"><ele>163.99</ele><time>2026-08-14T07:48:18Z</time></trkpt><trkpt lat="59.3416316248" lon="34.6754477732"><ele>164.67</ele><time>2026-08-14T07:48:35Z</time></trkpt><trkpt lat="59.3416406773" lon="34.6754314285"><ele>161.99</ele><time>2026-08-14T07:49:19Z</time></trkpt><trkpt lat="59.3416360673" lon="34.6754233819"><ele>161.82</ele><time>2026-08-14T07:49:38Z</time></trkpt><trkpt lat="59.3416335527" lon="34.6754066180"><ele>161.94</ele><time>2026-08-14T07:50:19Z</time></trkpt><trkpt lat="59.3416577764" lon="34.6753553208"><ele>159.98</ele><time>2026-08-14T07:50:39Z</time></trkpt><trkpt lat="59.3416823354" lon="34.6752314363"><ele>160.45</ele><time>2026-08-14T07:50:58Z</time></trkpt><trkpt lat="59.3416979257" lon="34.6751138382"><ele>161.39</ele><time>2026-08-14T07:51:12Z</time></trkpt><trkpt lat="59.3417132646" lon="34.6749557555"><ele>162.73</ele><time>2026-08-14T07:51:26Z</time></trkpt><trkpt lat="59.3417279329" lon="34.6748080663"><ele>163.62</ele><time>2026-08-14T07:51:42Z</time></trkpt><trkpt lat="59.3417295255" lon="34.6746507380"><ele>163.93</ele><time>2026-08-14T07:51:58Z</time></trkpt><trkpt lat="59.3416960817" lon="34.6745936573"><ele>163.55</ele><time>2026-08-14T07:52:16Z</time></trkpt><trkpt lat="59.3415914755" lon="34.6746780630"><ele>163.17</ele><time>2026-08-14T07:52:37Z</time></trkpt><trkpt lat="59.3415109254" lon="34.6746613830"><ele>163.45</ele><time>2026-08-14T07:52:53Z</time></trkpt><trkpt lat="59.3414670881" lon="34.6744843572"><ele>162.87</ele><time>2026-08-14T07:53:07Z</time></trkpt><trkpt lat="59.3414497375" lon="34.6742795873"><ele>161.96</ele><time>2026-08-14T07:53:22Z</time></trkpt><trkpt lat="59.3414732907" lon="34.6740997955"><ele>162.91</ele><time>2026-08-14T07:53:37Z</time></trkpt><trkpt lat="59.3414716981" lon="34.6739226859"><ele>162.85</ele><time>2026-08-14T07:53:49Z</time></trkpt><trkpt lat="59.3415158708" lon="34.6736976318"><ele>164.51</ele><time>2026-08-14T07:54:04Z</time></trkpt><trkpt lat="59.3415602949" lon="34.6734228730"><ele>164.58</ele><time>2026-08-14T07:54:29Z</time></trkpt><trkpt lat="59.3415899668" lon="34.6734037623"><ele>163.72</ele><time>2026-08-14T07:54:45Z</time></trkpt><trkpt lat="59.3416297808" lon="34.6734763496"><ele>163.93</ele><time>2026-08-14T07:55:21Z</time></trkpt><trkpt lat="59.3416247517" lon="34.6734010801"><ele>165.27</ele><time>2026-08-14T07:56:04Z</time></trkpt><trkpt lat="59.3416108377" lon="34.6734434925"><ele>164.06</ele><time>2026-08-14T07:56:50Z</time></trkpt><trkpt lat="59.3416194711" lon="34.6733739227"><ele>166.94</ele><time>2026-08-14T07:57:13Z</time></trkpt><trkpt lat="59.3416470475" lon="34.6733518783"><ele>164.09</ele><time>2026-08-14T07:57:42Z</time></trkpt><trkpt lat="59.3416348938" lon="34.6733384673"><ele>162.79</ele><time>2026-08-14T07:58:08Z</time></trkpt><trkpt lat="59.3416173756" lon="34.6733893454"><ele>164.97</ele><time>2026-08-14T07:58:27Z</time></trkpt><trkpt lat="59.3416098319" lon="34.6733601764"><ele>165.22</ele><time>2026-08-14T07:59:14Z</time></trkpt><trkpt lat="59.3416204769" lon="34.6734916884"><ele>166.60</ele><time>2026-08-14T07:59:59Z</time></trkpt><trkpt lat="59.3416463770" lon="34.6734646987"><ele>166.98</ele><time>2026-08-14T08:00:37Z</time></trkpt><trkpt lat="59.3416430242" lon="34.6734584961"><ele>166.05</ele><time>2026-08-14T08:01:17Z</time></trkpt><trkpt lat="59.3416417670" lon="34.6734186821"><ele>166.16</ele><time>2026-08-14T08:01:37Z</time></trkpt><trkpt lat="59.3416277692" lon="34.6733696479"><ele>165.06</ele><time>2026-08-14T08:02:16Z</time></trkpt><trkpt lat="59.3415896315" lon="34.6733963862"><ele>166.68</ele><time>2026-08-14T08:02:54Z</time></trkpt><trkpt lat="59.3415685929" lon="34.6734668780"><ele>166.42</ele><time>2026-08-14T08:03:33Z</time></trkpt><trkpt lat="59.3415495660" lon="34.6734808758"><ele>166.63</ele><time>2026-08-14T08:04:34Z</time></trkpt><trkpt lat="59.3415589537" lon="34.6735130623"><ele>170.26</ele><time>2026-08-14T08:05:34Z</time></trkpt><trkpt lat="59.3415770587" lon="34.6734598372"><ele>170.43</ele><time>2026-08-14T08:06:27Z</time></trkpt><trkpt lat="59.3415995222" lon="34.6734028403"><ele>166.26</ele><time>2026-08-14T08:06:57Z</time></trkpt><trkpt lat="59.3416184653" lon="34.6734223701"><ele>164.80</ele><time>2026-08-14T08:07:36Z</time></trkpt><trkpt lat="59.3416076526" lon="34.6734336857"><ele>165.14</ele><time>2026-08-14T08:08:36Z</time></trkpt><trkpt lat="59.3416243326" lon="34.6734093782"><ele>165.09</ele><time>2026-08-14T08:09:34Z</time></trkpt><trkpt lat="59.3416118436" lon="34.6734211966"><ele>164.91</ele><time>2026-08-14T08:10:38Z</time></trkpt><trkpt lat="59.3416195549" lon="34.6734339371"><ele>164.80</ele><time>2026-08-14T08:11:22Z</time></trkpt><trkpt lat="59.3416011985" lon="34.6734159999"><ele>165.50</ele><time>2026-08-14T08:12:01Z</time></trkpt><trkpt lat="59.3416170403" lon="34.6734366193"><ele>162.10</ele><time>2026-08-14T08:12:23Z</time></trkpt><trkpt lat="59.3415768910" lon="34.6734043490"><ele>163.15</ele><time>2026-08-14T08:12:42Z</time></trkpt><trkpt lat="59.3415393401" lon="34.6734364517"><ele>162.97</ele><time>2026-08-14T08:12:55Z</time></trkpt><trkpt lat="59.3415252585" lon="34.6733307559"><ele>162.78</ele><time>2026-08-14T08:13:06Z</time></trkpt><trkpt lat="59.3415329698" lon="34.6731776185"><ele>161.33</ele><time>2026-08-14T08:13:20Z</time></trkpt><trkpt lat="59.3415710237" lon="34.6730286721"><ele>159.73</ele><time>2026-08-14T08:13:34Z</time></trkpt><trkpt lat="59.3415953312" lon="34.6729581803"><ele>156.66</ele><time>2026-08-14T08:13:52Z</time></trkpt><trkpt lat="59.3416499812" lon="34.6730039455"><ele>156.35</ele><time>2026-08-14T08:14:11Z</time></trkpt><trkpt lat="59.3417184614" lon="34.6729834937"><ele>159.89</ele><time>2026-08-14T08:14:25Z</time></trkpt><trkpt lat="59.3417560961" lon="34.6729817335"><ele>163.29</ele><time>2026-08-14T08:14:38Z</time></trkpt><trkpt lat="59.3417777214" lon="34.6728724334"><ele>164.79</ele><time>2026-08-14T08:14:54Z</time></trkpt><trkpt lat="59.3418323714" lon="34.6728293505"><ele>166.90</ele><time>2026-08-14T08:15:13Z</time></trkpt><trkpt lat="59.3419344630" lon="34.6727976669"><ele>171.32</ele><time>2026-08-14T08:15:24Z</time></trkpt><trkpt lat="59.3419799767" lon="34.6727803163"><ele>170.87</ele><time>2026-08-14T08:15:37Z</time></trkpt><trkpt lat="59.3420627899" lon="34.6727042925"><ele>170.27</ele><time>2026-08-14T08:15:56Z</time></trkpt><trkpt lat="59.3420984969" lon="34.6725963335"><ele>167.14</ele><time>2026-08-14T08:16:09Z</time></trkpt><trkpt lat="59.3420825712" lon="34.6725013666"><ele>167.73</ele><time>2026-08-14T08:16:22Z</time></trkpt><trkpt lat="59.3420978263" lon="34.6724977624"><ele>165.00</ele><time>2026-08-14T08:16:47Z</time></trkpt><trkpt lat="59.3421083875" lon="34.6724904701"><ele>168.45</ele><time>2026-08-14T08:17:08Z</time></trkpt><trkpt lat="59.3420884386" lon="34.6725048870"><ele>167.45</ele><time>2026-08-14T08:17:31Z</time></trkpt><trkpt lat="59.3420999218" lon="34.6724791545"><ele>167.13</ele><time>2026-08-14T08:18:11Z</time></trkpt><trkpt lat="59.3421386462" lon="34.6723773982"><ele>167.23</ele><time>2026-08-14T08:18:28Z</time></trkpt><trkpt lat="59.3422377203" lon="34.6721979417"><ele>167.28</ele><time>2026-08-14T08:18:45Z</time></trkpt><trkpt lat="59.3422225490" lon="34.6720536891"><ele>167.29</ele><time>2026-08-14T08:19:05Z</time></trkpt><trkpt lat="59.3421890214" lon="34.6719088499"><ele>166.16</ele><time>2026-08-14T08:19:17Z</time></trkpt><trkpt lat="59.3421117403" lon="34.6718583908"><ele>164.99</ele><time>2026-08-14T08:19:29Z</time></trkpt><trkpt lat="59.3420322798" lon="34.6717697941"><ele>165.79</ele><time>2026-08-14T08:19:48Z</time></trkpt><trkpt lat="59.3419363908" lon="34.6716604941"><ele>165.88</ele><time>2026-08-14T08:19:59Z</time></trkpt><trkpt lat="59.3418772984" lon="34.6715075243"><ele>166.29</ele><time>2026-08-14T08:20:14Z</time></trkpt><trkpt lat="59.3419364747" lon="34.6713309176"><ele>165.89</ele><time>2026-08-14T08:20:28Z</time></trkpt><trkpt lat="59.3419776298" lon="34.6712024231"><ele>165.09</ele><time>2026-08-14T08:20:42Z</time></trkpt><trkpt lat="59.3419968244" lon="34.6710546501"><ele>165.08</ele><time>2026-08-14T08:20:59Z</time></trkpt><trkpt lat="59.3420200422" lon="34.6707818191"><ele>166.63</ele><time>2026-08-14T08:21:30Z</time></trkpt><trkpt lat="59.3420620356" lon="34.6704139374"><ele>167.06</ele><time>2026-08-14T08:21:44Z</time></trkpt><trkpt lat="59.3420516420" lon="34.6702266857"><ele>168.41</ele><time>2026-08-14T08:22:01Z</time></trkpt><trkpt lat="59.3421082199" lon="34.6700774878"><ele>168.96</ele><time>2026-08-14T08:22:13Z</time></trkpt><trkpt lat="59.3421147577" lon="34.6700453851"><ele>168.36</ele><time>2026-08-14T08:22:36Z</time></trkpt><trkpt lat="59.3421275821" lon="34.6700415295"><ele>167.76</ele><time>2026-08-14T08:23:20Z</time></trkpt><trkpt lat="59.3421441782" lon="34.6700542700"><ele>168.87</ele><time>2026-08-14T08:24:00Z</time></trkpt><trkpt lat="59.3421828188" lon="34.6698177326"><ele>167.80</ele><time>2026-08-14T08:24:15Z</time></trkpt><trkpt lat="59.3422208726" lon="34.6697329916"><ele>168.29</ele><time>2026-08-14T08:24:28Z</time></trkpt><trkpt lat="59.3422765285" lon="34.6695883200"><ele>169.16</ele><time>2026-08-14T08:24:54Z</time></trkpt><trkpt lat="59.3422986567" lon="34.6693316661"><ele>168.99</ele><time>2026-08-14T08:25:10Z</time></trkpt><trkpt lat="59.3422823958" lon="34.6691855695"><ele>168.37</ele><time>2026-08-14T08:25:27Z</time></trkpt><trkpt lat="59.3422822282" lon="34.6689513791"><ele>167.49</ele><time>2026-08-14T08:25:40Z</time></trkpt><trkpt lat="59.3422900233" lon="34.6689224616"><ele>168.04</ele><time>2026-08-14T08:26:04Z</time></trkpt><trkpt lat="59.3422918674" lon="34.6689347830"><ele>168.05</ele><time>2026-08-14T08:26:41Z</time></trkpt><trkpt lat="59.3422958907" lon="34.6689418238"><ele>168.34</ele><time>2026-08-14T08:27:06Z</time></trkpt><trkpt lat="59.3422924541" lon="34.6689441707"><ele>167.51</ele><time>2026-08-14T08:27:42Z</time></trkpt><trkpt lat="59.3423054460" lon="34.6688055340"><ele>167.16</ele><time>2026-08-14T08:27:56Z</time></trkpt><trkpt lat="59.3423447572" lon="34.6687441785"><ele>167.18</ele><time>2026-08-14T08:28:16Z</time></trkpt><trkpt lat="59.3423143309" lon="34.6686327830"><ele>166.68</ele><time>2026-08-14T08:28:29Z</time></trkpt><trkpt lat="59.3423005845" lon="34.6684907936"><ele>166.85</ele><time>2026-08-14T08:28:41Z</time></trkpt><trkpt lat="59.3423416559" lon="34.6684097406"><ele>167.01</ele><time>2026-08-14T08:28:55Z</time></trkpt><trkpt lat="59.3423972279" lon="34.6682829224"><ele>167.82</ele><time>2026-08-14T08:29:14Z</time></trkpt><trkpt lat="59.3424459267" lon="34.6682660747"><ele>169.15</ele><time>2026-08-14T08:29:44Z</time></trkpt><trkpt lat="59.3424298335" lon="34.6682321280"><ele>167.71</ele><time>2026-08-14T08:30:21Z</time></trkpt><trkpt lat="59.3424332701" lon="34.6682174597"><ele>168.79</ele><time>2026-08-14T08:31:06Z</time></trkpt><trkpt lat="59.3424459267" lon="34.6682387497"><ele>168.21</ele><time>2026-08-14T08:31:46Z</time></trkpt><trkpt lat="59.3424475193" lon="34.6682552621"><ele>168.07</ele><time>2026-08-14T08:32:08Z</time></trkpt><trkpt lat="59.3424615171" lon="34.6682207286"><ele>168.23</ele><time>2026-08-14T08:32:35Z</time></trkpt><trkpt lat="59.3424492795" lon="34.6682457905"><ele>168.28</ele><time>2026-08-14T08:33:02Z</time></trkpt><trkpt lat="59.3424316775" lon="34.6683156956"><ele>168.19</ele><time>2026-08-14T08:33:24Z</time></trkpt><trkpt lat="59.3424732517" lon="34.6684354730"><ele>167.58</ele><time>2026-08-14T08:33:41Z</time></trkpt><trkpt lat="59.3424758501" lon="34.6684664860"><ele>167.56</ele><time>2026-08-14T08:33:45Z</time></trkpt><trkpt lat="59.3425000738" lon="34.6685679909"><ele>166.45</ele><time>2026-08-14T08:33:57Z</time></trkpt><trkpt lat="59.3425082881" lon="34.6685715951"><ele>166.21</ele><time>2026-08-14T08:33:59Z</time></trkpt><trkpt lat="59.3425573222" lon="34.6686163545"><ele>166.70</ele><time>2026-08-14T08:34:15Z</time></trkpt><trkpt lat="59.3424915243" lon="34.6685319487"><ele>165.45</ele><time>2026-08-14T08:34:33Z</time></trkpt><trkpt lat="59.3424811307" lon="34.6684456989"><ele>164.19</ele><time>2026-08-14T08:34:46Z</time></trkpt><trkpt lat="59.3424621876" lon="34.6683788951"><ele>166.31</ele><time>2026-08-14T08:35:07Z</time></trkpt><trkpt lat="59.3425045162" lon="34.6683284361"><ele>166.79</ele><time>2026-08-14T08:35:33Z</time></trkpt><trkpt lat="59.3424803764" lon="34.6683399193"><ele>167.36</ele><time>2026-08-14T08:35:54Z</time></trkpt><trkpt lat="59.3424230441" lon="34.6684166975"><ele>167.45</ele><time>2026-08-14T08:36:10Z</time></trkpt><trkpt lat="59.3424165901" lon="34.6682881191"><ele>166.91</ele><time>2026-08-14T08:36:28Z</time></trkpt><trkpt lat="59.3424428254" lon="34.6682206448"><ele>166.76</ele><time>2026-08-14T08:36:54Z</time></trkpt><trkpt lat="59.3424558174" lon="34.6681966726"><ele>167.11</ele><time>2026-08-14T08:37:13Z</time></trkpt><trkpt lat="59.3424403947" lon="34.6682187170"><ele>166.88</ele><time>2026-08-14T08:37:31Z</time></trkpt><trkpt lat="59.3424625229" lon="34.6682230756"><ele>167.32</ele><time>2026-08-14T08:37:49Z</time></trkpt><trkpt lat="59.3424643669" lon="34.6682321280"><ele>167.98</ele><time>2026-08-14T08:38:19Z</time></trkpt><trkpt lat="59.3424527999" lon="34.6682515740"><ele>166.53</ele><time>2026-08-14T08:39:02Z</time></trkpt><trkpt lat="59.3424287438" lon="34.6681151167"><ele>165.51</ele><time>2026-08-14T08:39:16Z</time></trkpt><trkpt lat="59.3424787000" lon="34.6679543518"><ele>165.35</ele><time>2026-08-14T08:39:30Z</time></trkpt><trkpt lat="59.3425375409" lon="34.6678542718"><ele>165.03</ele><time>2026-08-14T08:39:41Z</time></trkpt><trkpt lat="59.3425637763" lon="34.6677374281"><ele>166.82</ele><time>2026-08-14T08:39:52Z</time></trkpt><trkpt lat="59.3426428176" lon="34.6676298883"><ele>168.36</ele><time>2026-08-14T08:40:05Z</time></trkpt><trkpt lat="59.3426852301" lon="34.6674902458"><ele>168.59</ele><time>2026-08-14T08:40:18Z</time></trkpt><trkpt lat="59.3426552229" lon="34.6673465800"><ele>169.11</ele><time>2026-08-14T08:40:34Z</time></trkpt><trkpt lat="59.3425732478" lon="34.6671099588"><ele>168.23</ele><time>2026-08-14T08:40:53Z</time></trkpt><trkpt lat="59.3425844796" lon="34.6669660416"><ele>168.99</ele><time>2026-08-14T08:41:04Z</time></trkpt><trkpt lat="59.3425218668" lon="34.6667637862"><ele>169.37</ele><time>2026-08-14T08:41:23Z</time></trkpt><trkpt lat="59.3425326794" lon="34.6666926239"><ele>168.52</ele><time>2026-08-14T08:41:44Z</time></trkpt><trkpt lat="59.3425483536" lon="34.6666876785"><ele>171.77</ele><time>2026-08-14T08:42:19Z</time></trkpt><trkpt lat="59.3425394688" lon="34.6666796319"><ele>169.81</ele><time>2026-08-14T08:42:42Z</time></trkpt><trkpt lat="59.3425314222" lon="34.6667070407"><ele>170.22</ele><time>2026-08-14T08:43:09Z</time></trkpt><trkpt lat="59.3425450847" lon="34.6666366328"><ele>170.59</ele><time>2026-08-14T08:43:25Z</time></trkpt><trkpt lat="59.3425271474" lon="34.6664682403"><ele>171.37</ele><time>2026-08-14T08:43:39Z</time></trkpt><trkpt lat="59.3425679673" lon="34.6661285218"><ele>170.59</ele><time>2026-08-14T08:44:05Z</time></trkpt><trkpt lat="59.3426216953" lon="34.6659561899"><ele>170.63</ele><time>2026-08-14T08:44:24Z</time></trkpt><trkpt lat="59.3426162470" lon="34.6656603925"><ele>171.28</ele><time>2026-08-14T08:44:45Z</time></trkpt><trkpt lat="59.3427108787" lon="34.6655016392"><ele>171.96</ele><time>2026-08-14T08:45:07Z</time></trkpt><trkpt lat="59.3428315781" lon="34.6654185746"><ele>171.26</ele><time>2026-08-14T08:45:22Z</time></trkpt><trkpt lat="59.3428621721" lon="34.6653357614"><ele>171.61</ele><time>2026-08-14T08:45:35Z</time></trkpt><trkpt lat="59.3428775948" lon="34.6652819496"><ele>170.77</ele><time>2026-08-14T08:46:14Z</time></trkpt><trkpt lat="59.3428810313" lon="34.6652012318"><ele>170.97</ele><time>2026-08-14T08:47:15Z</time></trkpt><trkpt lat="59.3429151457" lon="34.6650813706"><ele>170.85</ele><time>2026-08-14T08:47:30Z</time></trkpt><trkpt lat="59.3430083524" lon="34.6649657842"><ele>170.96</ele><time>2026-08-14T08:47:45Z</time></trkpt><trkpt lat="59.3430296425" lon="34.6647041850"><ele>172.12</ele><time>2026-08-14T08:48:03Z</time></trkpt><trkpt lat="59.3430009764" lon="34.6645131614"><ele>173.18</ele><time>2026-08-14T08:48:15Z</time></trkpt><trkpt lat="59.3429215997" lon="34.6643685736"><ele>173.83</ele><time>2026-08-14T08:48:36Z</time></trkpt><trkpt lat="59.3428804446" lon="34.6642235667"><ele>173.01</ele><time>2026-08-14T08:49:04Z</time></trkpt><trkpt lat="59.3428461626" lon="34.6640737820"><ele>173.19</ele><time>2026-08-14T08:49:20Z</time></trkpt><trkpt lat="59.3428276386" lon="34.6639953274"><ele>173.12</ele><time>2026-08-14T08:49:52Z</time></trkpt><trkpt lat="59.3427981343" lon="34.6639551781"><ele>172.75</ele><time>2026-08-14T08:50:34Z</time></trkpt><trkpt lat="59.3428098690" lon="34.6639374923"><ele>172.58</ele><time>2026-08-14T08:50:58Z</time></trkpt><trkpt lat="59.3428420555" lon="34.6639163699"><ele>172.89</ele><time>2026-08-14T08:51:28Z</time></trkpt><trkpt lat="59.3429048359" lon="34.6636318881"><ele>173.41</ele><time>2026-08-14T08:51:46Z</time></trkpt><trkpt lat="59.3429433927" lon="34.6635032259"><ele>172.91</ele><time>2026-08-14T08:52:01Z</time></trkpt><trkpt lat="59.3429576419" lon="34.6633749828"><ele>172.66</ele><time>2026-08-14T08:52:15Z</time></trkpt><trkpt lat="59.3429987971" lon="34.6632412914"><ele>173.30</ele><time>2026-08-14T08:52:30Z</time></trkpt><trkpt lat="59.3430403713" lon="34.6630109567"><ele>173.05</ele><time>2026-08-14T08:52:51Z</time></trkpt><trkpt lat="59.3430259544" lon="34.6627487708"><ele>173.51</ele><time>2026-08-14T08:53:06Z</time></trkpt><trkpt lat="59.3430498429" lon="34.6626798715"><ele>174.72</ele><time>2026-08-14T08:53:19Z</time></trkpt><trkpt lat="59.3430827837" lon="34.6626390517"><ele>173.54</ele><time>2026-08-14T08:53:44Z</time></trkpt><trkpt lat="59.3430597335" lon="34.6626451705"><ele>173.26</ele><time>2026-08-14T08:54:38Z</time></trkpt><trkpt lat="59.3430856336" lon="34.6625474375"><ele>172.98</ele><time>2026-08-14T08:55:08Z</time></trkpt><trkpt lat="59.3430745695" lon="34.6624004189"><ele>173.39</ele><time>2026-08-14T08:55:25Z</time></trkpt><trkpt lat="59.3431099411" lon="34.6623532288"><ele>173.12</ele><time>2026-08-14T08:55:42Z</time></trkpt><trkpt lat="59.3430812750" lon="34.6621259954"><ele>171.98</ele><time>2026-08-14T08:56:03Z</time></trkpt><trkpt lat="59.3430361804" lon="34.6619097423"><ele>172.00</ele><time>2026-08-14T08:56:21Z</time></trkpt><trkpt lat="59.3430323247" lon="34.6617699321"><ele>169.63</ele><time>2026-08-14T08:56:37Z</time></trkpt><trkpt lat="59.3430935964" lon="34.6616246738"><ele>170.04</ele><time>2026-08-14T08:56:51Z</time></trkpt><trkpt lat="59.3431476597" lon="34.6614875458"><ele>169.95</ele><time>2026-08-14T08:57:10Z</time></trkpt><trkpt lat="59.3431785889" lon="34.6613583807"><ele>170.07</ele><time>2026-08-14T08:57:23Z</time></trkpt><trkpt lat="59.3432367593" lon="34.6611307282"><ele>169.81</ele><time>2026-08-14T08:57:44Z</time></trkpt><trkpt lat="59.3432616536" lon="34.6609400399"><ele>168.31</ele><time>2026-08-14T08:57:57Z</time></trkpt><trkpt lat="59.3432880566" lon="34.6608186699"><ele>168.60</ele><time>2026-08-14T08:58:10Z</time></trkpt><trkpt lat="59.3432662636" lon="34.6607627627"><ele>171.21</ele><time>2026-08-14T08:58:41Z</time></trkpt><trkpt lat="59.3432883918" lon="34.6607735753"><ele>173.25</ele><time>2026-08-14T08:59:18Z</time></trkpt><trkpt lat="59.3432718795" lon="34.6607492678"><ele>172.62</ele><time>2026-08-14T09:00:02Z</time></trkpt><trkpt lat="59.3433098495" lon="34.6607092861"><ele>171.77</ele><time>2026-08-14T09:00:26Z</time></trkpt><trkpt lat="59.3433743902" lon="34.6605764329"><ele>171.23</ele><time>2026-08-14T09:00:41Z</time></trkpt><trkpt lat="59.3434306327" lon="34.6604726650"><ele>170.76</ele><time>2026-08-14T09:00:52Z</time></trkpt><trkpt lat="59.3434576225" lon="34.6603905223"><ele>168.04</ele><time>2026-08-14T09:01:02Z</time></trkpt><trkpt lat="59.3434666749" lon="34.6602733433"><ele>168.49</ele><time>2026-08-14T09:01:19Z</time></trkpt><trkpt lat="59.3434993643" lon="34.6601521410"><ele>169.52</ele><time>2026-08-14T09:01:30Z</time></trkpt><trkpt lat="59.3434695248" lon="34.6599748638"><ele>168.88</ele><time>2026-08-14T09:01:45Z</time></trkpt><trkpt lat="59.3435301259" lon="34.6597978380"><ele>169.71</ele><time>2026-08-14T09:02:08Z</time></trkpt><trkpt lat="59.3435060699" lon="34.6595398430"><ele>170.30</ele><time>2026-08-14T09:02:26Z</time></trkpt><trkpt lat="59.3434616458" lon="34.6594890486"><ele>171.54</ele><time>2026-08-14T09:03:04Z</time></trkpt><trkpt lat="59.3434747215" lon="34.6594778169"><ele>173.63</ele><time>2026-08-14T09:03:56Z</time></trkpt><trkpt lat="59.3434848636" lon="34.6594374999"><ele>174.04</ele><time>2026-08-14T09:04:17Z</time></trkpt><trkpt lat="59.3434912339" lon="34.6594417747"><ele>173.26</ele><time>2026-08-14T09:04:42Z</time></trkpt><trkpt lat="59.3434978556" lon="34.6594248433"><ele>171.50</ele><time>2026-08-14T09:05:20Z</time></trkpt><trkpt lat="59.3434824329" lon="34.6593807545"><ele>172.56</ele><time>2026-08-14T09:05:44Z</time></trkpt><trkpt lat="59.3434233405" lon="34.6590412874"><ele>174.11</ele><time>2026-08-14T09:06:06Z</time></trkpt><trkpt lat="59.3434561975" lon="34.6587706357"><ele>171.71</ele><time>2026-08-14T09:06:25Z</time></trkpt><trkpt lat="59.3435300421" lon="34.6587064303"><ele>173.46</ele><time>2026-08-14T09:06:50Z</time></trkpt><trkpt lat="59.3436863646" lon="34.6585925203"><ele>174.45</ele><time>2026-08-14T09:07:14Z</time></trkpt><trkpt lat="59.3437767215" lon="34.6584558953"><ele>174.38</ele><time>2026-08-14T09:07:33Z</time></trkpt><trkpt lat="59.3438360654" lon="34.6583658736"><ele>173.89</ele><time>2026-08-14T09:07:56Z</time></trkpt><trkpt lat="59.3438614625" lon="34.6582949627"><ele>175.42</ele><time>2026-08-14T09:08:32Z</time></trkpt><trkpt lat="59.3438635580" lon="34.6582722478"><ele>175.94</ele><time>2026-08-14T09:08:57Z</time></trkpt><trkpt lat="59.3438784778" lon="34.6582414862"><ele>175.95</ele><time>2026-08-14T09:09:22Z</time></trkpt><trkpt lat="59.3438831717" lon="34.6582323499"><ele>176.12</ele><time>2026-08-14T09:09:48Z</time></trkpt><trkpt lat="59.3438470457" lon="34.6579900291"><ele>175.94</ele><time>2026-08-14T09:10:11Z</time></trkpt><trkpt lat="59.3438052200" lon="34.6577173658"><ele>175.37</ele><time>2026-08-14T09:10:35Z</time></trkpt><trkpt lat="59.3438569363" lon="34.6575523261"><ele>175.40</ele><time>2026-08-14T09:10:49Z</time></trkpt><trkpt lat="59.3439297751" lon="34.6574901324"><ele>176.00</ele><time>2026-08-14T09:11:04Z</time></trkpt><trkpt lat="59.3440393265" lon="34.6574877854"><ele>174.89</ele><time>2026-08-14T09:11:23Z</time></trkpt><trkpt lat="59.3441140931" lon="34.6575502306"><ele>174.64</ele><time>2026-08-14T09:11:47Z</time></trkpt><trkpt lat="59.3441320304" lon="34.6574602928"><ele>174.71</ele><time>2026-08-14T09:12:14Z</time></trkpt><trkpt lat="59.3440553360" lon="34.6574701834"><ele>174.60</ele><time>2026-08-14T09:12:35Z</time></trkpt><trkpt lat="59.3439430185" lon="34.6574802417"><ele>173.59</ele><time>2026-08-14T09:12:49Z</time></trkpt><trkpt lat="59.3438009452" lon="34.6574708540"><ele>173.78</ele><time>2026-08-14T09:13:04Z</time></trkpt><trkpt lat="59.3436994404" lon="34.6574807446"><ele>174.42</ele><time>2026-08-14T09:13:17Z</time></trkpt><trkpt lat="59.3436882924" lon="34.6574516594"><ele>172.22</ele><time>2026-08-14T09:13:30Z</time></trkpt><trkpt lat="59.3437468819" lon="34.6572422795"><ele>171.67</ele><time>2026-08-14T09:13:44Z</time></trkpt><trkpt lat="59.3436730374" lon="34.6570859570"><ele>171.49</ele><time>2026-08-14T09:14:00Z</time></trkpt><trkpt lat="59.3436949980" lon="34.6568238549"><ele>171.52</ele><time>2026-08-14T09:14:18Z</time></trkpt><trkpt lat="59.3437397573" lon="34.6566977911"><ele>172.49</ele><time>2026-08-14T09:14:44Z</time></trkpt><trkpt lat="59.3439572677" lon="34.6565118805"><ele>172.74</ele><time>2026-08-14T09:15:08Z</time></trkpt><trkpt lat="59.3439944834" lon="34.6565454919"><ele>173.15</ele><time>2026-08-14T09:15:23Z</time></trkpt><trkpt lat="59.3439666554" lon="34.6565068513"><ele>175.93</ele><time>2026-08-14T09:16:01Z</time></trkpt><trkpt lat="59.3439668231" lon="34.6564868186"><ele>174.90</ele><time>2026-08-14T09:16:51Z</time></trkpt><trkpt lat="59.3439213932" lon="34.6564328391"><ele>173.23</ele><time>2026-08-14T09:17:26Z</time></trkpt><trkpt lat="59.3437844329" lon="34.6564481780"><ele>172.78</ele><time>2026-08-14T09:17:47Z</time></trkpt><trkpt lat="59.3436752167" lon="34.6565673687"><ele>173.01</ele><time>2026-08-14T09:18:03Z</time></trkpt><trkpt lat="59.3435479794" lon="34.6565472521"><ele>172.57</ele><time>2026-08-14T09:18:20Z</time></trkpt><trkpt lat="59.3434246816" lon="34.6565820370"><ele>172.76</ele><time>2026-08-14T09:18:33Z</time></trkpt><trkpt lat="59.3433512561" lon="34.6566585638"><ele>172.67</ele><time>2026-08-14T09:18:47Z</time></trkpt><trkpt lat="59.3432625756" lon="34.6569588874"><ele>172.95</ele><time>2026-08-14T09:19:12Z</time></trkpt><trkpt lat="59.3431942631" lon="34.6569705382"><ele>174.00</ele><time>2026-08-14T09:19:45Z</time></trkpt><trkpt lat="59.3431309797" lon="34.6569846198"><ele>174.58</ele><time>2026-08-14T09:20:19Z</time></trkpt><trkpt lat="59.3431408703" lon="34.6570524294"><ele>175.22</ele><time>2026-08-14T09:21:03Z</time></trkpt><trkpt lat="59.3431300577" lon="34.6570211649"><ele>173.95</ele><time>2026-08-14T09:21:28Z</time></trkpt><trkpt lat="59.3431311473" lon="34.6570028923"><ele>172.27</ele><time>2026-08-14T09:21:47Z</time></trkpt><trkpt lat="59.3432160560" lon="34.6570182312"><ele>172.51</ele><time>2026-08-14T09:22:05Z</time></trkpt><trkpt lat="59.3431823608" lon="34.6571512520"><ele>171.71</ele><time>2026-08-14T09:22:33Z</time></trkpt><trkpt lat="59.3431499228" lon="34.6573139448"><ele>175.81</ele><time>2026-08-14T09:23:04Z</time></trkpt><trkpt lat="59.3431472406" lon="34.6573349833"><ele>179.49</ele><time>2026-08-14T09:23:38Z</time></trkpt><trkpt lat="59.3431360926" lon="34.6573579498"><ele>181.53</ele><time>2026-08-14T09:24:16Z</time></trkpt><trkpt lat="59.3431188259" lon="34.6573648229"><ele>183.20</ele><time>2026-08-14T09:25:00Z</time></trkpt><trkpt lat="59.3431092706" lon="34.6573947463"><ele>181.82</ele><time>2026-08-14T09:25:56Z</time></trkpt><trkpt lat="59.3431082647" lon="34.6573865321"><ele>180.95</ele><time>2026-08-14T09:26:44Z</time></trkpt><trkpt lat="59.3431344163" lon="34.6573536750"><ele>180.98</ele><time>2026-08-14T09:27:51Z</time></trkpt><trkpt lat="59.3431399483" lon="34.6573657449"><ele>181.83</ele><time>2026-08-14T09:28:43Z</time></trkpt><trkpt lat="59.3431349192" lon="34.6573548485"><ele>181.19</ele><time>2026-08-14T09:29:29Z</time></trkpt><trkpt lat="59.3431472406" lon="34.6573561896"><ele>180.33</ele><time>2026-08-14T09:30:13Z</time></trkpt><trkpt lat="59.3431627471" lon="34.6573605482"><ele>181.01</ele><time>2026-08-14T09:31:07Z</time></trkpt><trkpt lat="59.3431460671" lon="34.6573771443"><ele>181.62</ele><time>2026-08-14T09:32:11Z</time></trkpt><trkpt lat="59.3431334943" lon="34.6573921479"><ele>180.24</ele><time>2026-08-14T09:32:58Z</time></trkpt><trkpt lat="59.3431295548" lon="34.6574084926"><ele>180.20</ele><time>2026-08-14T09:33:33Z</time></trkpt><trkpt lat="59.3431228492" lon="34.6574080735"><ele>179.78</ele><time>2026-08-14T09:34:27Z</time></trkpt><trkpt lat="59.3431135453" lon="34.6573914774"><ele>180.04</ele><time>2026-08-14T09:34:56Z</time></trkpt><trkpt lat="59.3431261182" lon="34.6573897172"><ele>180.78</ele><time>2026-08-14T09:35:47Z</time></trkpt><trkpt lat="59.3431222625" lon="34.6573913936"><ele>181.02</ele><time>2026-08-14T09:36:32Z</time></trkpt><trkpt lat="59.3431171495" lon="34.6573962551"><ele>182.28</ele><time>2026-08-14T09:37:12Z</time></trkpt><trkpt lat="59.3431329913" lon="34.6573860291"><ele>184.42</ele><time>2026-08-14T09:37:57Z</time></trkpt><trkpt lat="59.3431438878" lon="34.6573763900"><ele>185.13</ele><time>2026-08-14T09:38:35Z</time></trkpt><trkpt lat="59.3431489170" lon="34.6573991887"><ele>184.78</ele><time>2026-08-14T09:39:14Z</time></trkpt><trkpt lat="59.3431537785" lon="34.6573777311"><ele>185.87</ele><time>2026-08-14T09:39:51Z</time></trkpt><trkpt lat="59.3431508448" lon="34.6573502384"><ele>184.90</ele><time>2026-08-14T09:40:37Z</time></trkpt><trkpt lat="59.3431221787" lon="34.6573708579"><ele>183.89</ele><time>2026-08-14T09:41:14Z</time></trkpt><trkpt lat="59.3431178201" lon="34.6573830955"><ele>182.84</ele><time>2026-08-14T09:41:56Z</time></trkpt><trkpt lat="59.3431125395" lon="34.6573538426"><ele>180.84</ele><time>2026-08-14T09:42:53Z</time></trkpt><trkpt lat="59.3431211729" lon="34.6573555190"><ele>181.00</ele><time>2026-08-14T09:43:49Z</time></trkpt><trkpt lat="59.3431293871" lon="34.6573549323"><ele>180.24</ele><time>2026-08-14T09:44:42Z</time></trkpt><trkpt lat="59.3431254476" lon="34.6573486459"><ele>179.37</ele><time>2026-08-14T09:45:37Z</time></trkpt><trkpt lat="59.3431326561" lon="34.6573307924"><ele>179.10</ele><time>2026-08-14T09:46:25Z</time></trkpt><trkpt lat="59.3431226816" lon="34.6573209856"><ele>178.98</ele><time>2026-08-14T09:46:42Z</time></trkpt><trkpt lat="59.3430781737" lon="34.6573399287"><ele>178.84</ele><time>2026-08-14T09:47:15Z</time></trkpt><trkpt lat="59.3430834543" lon="34.6573469695"><ele>178.20</ele><time>2026-08-14T09:47:48Z</time></trkpt><trkpt lat="59.3431096897" lon="34.6573439520"><ele>176.94</ele><time>2026-08-14T09:48:11Z</time></trkpt><trkpt lat="59.3431658484" lon="34.6573723666"><ele>177.35</ele><time>2026-08-14T09:48:23Z</time></trkpt><trkpt lat="59.3431478273" lon="34.6575648990"><ele>177.46</ele><time>2026-08-14T09:48:39Z</time></trkpt><trkpt lat="59.3431948498" lon="34.6577162761"><ele>177.30</ele><time>2026-08-14T09:48:54Z</time></trkpt><trkpt lat="59.3431904912" lon="34.6579543222"><ele>176.96</ele><time>2026-08-14T09:49:15Z</time></trkpt><trkpt lat="59.3431970291" lon="34.6582078747"><ele>176.87</ele><time>2026-08-14T09:49:40Z</time></trkpt><trkpt lat="59.3430612423" lon="34.6586255450"><ele>176.21</ele><time>2026-08-14T09:50:04Z</time></trkpt><trkpt lat="59.3430061731" lon="34.6588727273"><ele>174.90</ele><time>2026-08-14T09:50:25Z</time></trkpt><trkpt lat="59.3430056702" lon="34.6590440534"><ele>175.42</ele><time>2026-08-14T09:51:07Z</time></trkpt><trkpt lat="59.3430025689" lon="34.6590026468"><ele>174.39</ele><time>2026-08-14T09:51:43Z</time></trkpt><trkpt lat="59.3430088554" lon="34.6590074245"><ele>172.63</ele><time>2026-08-14T09:52:15Z</time></trkpt><trkpt lat="59.3429874815" lon="34.6589630842"><ele>172.30</ele><time>2026-08-14T09:52:35Z</time></trkpt><trkpt lat="59.3429534510" lon="34.6591578797"><ele>175.15</ele><time>2026-08-14T09:52:54Z</time></trkpt><trkpt lat="59.3429543730" lon="34.6594224963"><ele>173.60</ele><time>2026-08-14T09:53:10Z</time></trkpt><trkpt lat="59.3429251201" lon="34.6596116759"><ele>173.04</ele><time>2026-08-14T09:53:22Z</time></trkpt><trkpt lat="59.3428406306" lon="34.6597237419"><ele>173.08</ele><time>2026-08-14T09:53:38Z</time></trkpt><trkpt lat="59.3428472523" lon="34.6599980816"><ele>172.71</ele><time>2026-08-14T09:53:50Z</time></trkpt><trkpt lat="59.3428227771" lon="34.6602123231"><ele>172.40</ele><time>2026-08-14T09:54:05Z</time></trkpt><trkpt lat="59.3428029958" lon="34.6602853294"><ele>172.74</ele><time>2026-08-14T09:54:45Z</time></trkpt><trkpt lat="59.3427798618" lon="34.6602893528"><ele>173.00</ele><time>2026-08-14T09:55:20Z</time></trkpt><trkpt lat="59.3427865673" lon="34.6602299251"><ele>172.93</ele><time>2026-08-14T09:55:48Z</time></trkpt><trkpt lat="59.3428224418" lon="34.6603259817"><ele>172.78</ele><time>2026-08-14T09:56:06Z</time></trkpt><trkpt lat="59.3428277224" lon="34.6604535542"><ele>173.28</ele><time>2026-08-14T09:56:17Z</time></trkpt><trkpt lat="59.3427937757" lon="34.6605522931"><ele>172.57</ele><time>2026-08-14T09:56:24Z</time></trkpt><trkpt lat="59.3427830469" lon="34.6607040893"><ele>173.55</ele><time>2026-08-14T09:56:37Z</time></trkpt><trkpt lat="59.3426916841" lon="34.6607663669"><ele>172.22</ele><time>2026-08-14T09:56:54Z</time></trkpt><trkpt lat="59.3426330946" lon="34.6609414648"><ele>173.40</ele><time>2026-08-14T09:57:04Z</time></trkpt><trkpt lat="59.3426059373" lon="34.6610698756"><ele>172.32</ele><time>2026-08-14T09:57:24Z</time></trkpt><trkpt lat="59.3426282331" lon="34.6612509247"><ele>172.48</ele><time>2026-08-14T09:57:35Z</time></trkpt><trkpt lat="59.3425866589" lon="34.6614078339"><ele>172.67</ele><time>2026-08-14T09:57:49Z</time></trkpt><trkpt lat="59.3425981421" lon="34.6615227498"><ele>171.96</ele><time>2026-08-14T09:58:04Z</time></trkpt><trkpt lat="59.3426524568" lon="34.6616240870"><ele>170.68</ele><time>2026-08-14T09:58:25Z</time></trkpt><trkpt lat="59.3426754232" lon="34.6616130229"><ele>171.87</ele><time>2026-08-14T09:58:49Z</time></trkpt><trkpt lat="59.3426608387" lon="34.6616451256"><ele>169.75</ele><time>2026-08-14T09:59:15Z</time></trkpt><trkpt lat="59.3426811229" lon="34.6616169624"><ele>169.89</ele><time>2026-08-14T09:59:42Z</time></trkpt><trkpt lat="59.3426721543" lon="34.6617013682"><ele>169.86</ele><time>2026-08-14T09:59:58Z</time></trkpt><trkpt lat="59.3426931929" lon="34.6619100776"><ele>170.58</ele><time>2026-08-14T10:00:16Z</time></trkpt><trkpt lat="59.3427090347" lon="34.6621196251"><ele>171.76</ele><time>2026-08-14T10:00:31Z</time></trkpt><trkpt lat="59.3426882476" lon="34.6621938888"><ele>172.32</ele><time>2026-08-14T10:00:53Z</time></trkpt><trkpt lat="59.3426652811" lon="34.6622151788"><ele>173.29</ele><time>2026-08-14T10:01:16Z</time></trkpt><trkpt lat="59.3425950408" lon="34.6623091400"><ele>173.87</ele><time>2026-08-14T10:01:42Z</time></trkpt><trkpt lat="59.3424386345" lon="34.6624362934"><ele>172.64</ele><time>2026-08-14T10:02:01Z</time></trkpt><trkpt lat="59.3424167577" lon="34.6625697333"><ele>173.72</ele><time>2026-08-14T10:02:19Z</time></trkpt><trkpt lat="59.3424019217" lon="34.6625833958"><ele>175.64</ele><time>2026-08-14T10:02:56Z</time></trkpt><trkpt lat="59.3424107227" lon="34.6625660453"><ele>177.16</ele><time>2026-08-14T10:03:43Z</time></trkpt><trkpt lat="59.3423982337" lon="34.6626560669"><ele>176.13</ele><time>2026-08-14T10:04:21Z</time></trkpt><trkpt lat="59.3423463497" lon="34.6629660297"><ele>175.48</ele><time>2026-08-14T10:04:37Z</time></trkpt><trkpt lat="59.3422884308" lon="34.6630720608"><ele>174.15</ele><time>2026-08-14T10:04:52Z</time></trkpt><trkpt lat="59.3423130736" lon="34.6632437222"><ele>174.61</ele><time>2026-08-14T10:05:08Z</time></trkpt><trkpt lat="59.3422740977" lon="34.6633803472"><ele>176.91</ele><time>2026-08-14T10:05:21Z</time></trkpt><trkpt lat="59.3422447611" lon="34.6636275295"><ele>175.17</ele><time>2026-08-14T10:05:35Z</time></trkpt><trkpt lat="59.3422347866" lon="34.6637597959"><ele>174.73</ele><time>2026-08-14T10:05:52Z</time></trkpt><trkpt lat="59.3422364630" lon="34.6637999453"><ele>173.87</ele><time>2026-08-14T10:06:21Z</time></trkpt><trkpt lat="59.3422239739" lon="34.6638168767"><ele>173.54</ele><time>2026-08-14T10:06:56Z</time></trkpt><trkpt lat="59.3422361277" lon="34.6638435312"><ele>175.74</ele><time>2026-08-14T10:07:33Z</time></trkpt><trkpt lat="59.3422378879" lon="34.6638372447"><ele>175.34</ele><time>2026-08-14T10:07:36Z</time></trkpt><trkpt lat="59.3422377203" lon="34.6639979258"><ele>174.95</ele><time>2026-08-14T10:07:49Z</time></trkpt><trkpt lat="59.3422101438" lon="34.6641995944"><ele>174.82</ele><time>2026-08-14T10:08:02Z</time></trkpt><trkpt lat="59.3421897758" lon="34.6643663943"><ele>174.35</ele><time>2026-08-14T10:08:16Z</time></trkpt><trkpt lat="59.3421718385" lon="34.6644479502"><ele>173.64</ele><time>2026-08-14T10:08:28Z</time></trkpt><trkpt lat="59.3422160950" lon="34.6645329427"><ele>173.76</ele><time>2026-08-14T10:08:46Z</time></trkpt><trkpt lat="59.3422602676" lon="34.6646708250"><ele>174.07</ele><time>2026-08-14T10:09:01Z</time></trkpt><trkpt lat="59.3422225490" lon="34.6648504492"><ele>173.87</ele><time>2026-08-14T10:09:22Z</time></trkpt><trkpt lat="59.3421537336" lon="34.6649352740"><ele>173.90</ele><time>2026-08-14T10:09:38Z</time></trkpt><trkpt lat="59.3421427533" lon="34.6650846396"><ele>173.82</ele><time>2026-08-14T10:09:51Z</time></trkpt><trkpt lat="59.3421690725" lon="34.6650843881"><ele>172.40</ele><time>2026-08-14T10:10:13Z</time></trkpt><trkpt lat="59.3421450164" lon="34.6651059296"><ele>171.82</ele><time>2026-08-14T10:10:32Z</time></trkpt><trkpt lat="59.3420923781" lon="34.6652375255"><ele>169.98</ele><time>2026-08-14T10:10:46Z</time></trkpt><trkpt lat="59.3420882709" lon="34.6653499268"><ele>170.32</ele><time>2026-08-14T10:10:59Z</time></trkpt><trkpt lat="59.3420889415" lon="34.6653578896"><ele>170.68</ele><time>2026-08-14T10:11:17Z</time></trkpt><trkpt lat="59.3421125785" lon="34.6653669421"><ele>170.48</ele><time>2026-08-14T10:11:58Z</time></trkpt><trkpt lat="59.3420999218" lon="34.6653419640"><ele>170.90</ele><time>2026-08-14T10:12:40Z</time></trkpt><trkpt lat="59.3420847505" lon="34.6653874777"><ele>169.78</ele><time>2026-08-14T10:12:58Z</time></trkpt><trkpt lat="59.3420737702" lon="34.6653693728"><ele>169.33</ele><time>2026-08-14T10:13:30Z</time></trkpt><trkpt lat="59.3420120794" lon="34.6654444747"><ele>169.10</ele><time>2026-08-14T10:13:43Z</time></trkpt><trkpt lat="59.3419854250" lon="34.6656627394"><ele>170.48</ele><time>2026-08-14T10:14:01Z</time></trkpt><trkpt lat="59.3419583514" lon="34.6658704430"><ele>171.60</ele><time>2026-08-14T10:14:16Z</time></trkpt><trkpt lat="59.3419540767" lon="34.6660535876"><ele>171.94</ele><time>2026-08-14T10:14:30Z</time></trkpt><trkpt lat="59.3419508915" lon="34.6662727743"><ele>171.45</ele><time>2026-08-14T10:14:43Z</time></trkpt><trkpt lat="59.3419095688" lon="34.6663188748"><ele>171.94</ele><time>2026-08-14T10:15:02Z</time></trkpt><trkpt lat="59.3419076409" lon="34.6663565934"><ele>171.28</ele><time>2026-08-14T10:15:31Z</time></trkpt><trkpt lat="59.3419067189" lon="34.6663785540"><ele>172.57</ele><time>2026-08-14T10:15:52Z</time></trkpt><trkpt lat="59.3418445252" lon="34.6663849242"><ele>169.55</ele><time>2026-08-14T10:16:27Z</time></trkpt><trkpt lat="59.3418558408" lon="34.6663353872"><ele>169.24</ele><time>2026-08-14T10:16:38Z</time></trkpt><trkpt lat="59.3418105785" lon="34.6662683319"><ele>169.46</ele><time>2026-08-14T10:16:51Z</time></trkpt><trkpt lat="59.3417743687" lon="34.6663976647"><ele>169.58</ele><time>2026-08-14T10:17:02Z</time></trkpt><trkpt lat="59.3417519890" lon="34.6665614471"><ele>170.73</ele><time>2026-08-14T10:17:15Z</time></trkpt><trkpt lat="59.3417770509" lon="34.6667781193"><ele>170.75</ele><time>2026-08-14T10:17:32Z</time></trkpt><trkpt lat="59.3417590298" lon="34.6669916902"><ele>170.46</ele><time>2026-08-14T10:17:48Z</time></trkpt><trkpt lat="59.3417515699" lon="34.6671456657"><ele>170.55</ele><time>2026-08-14T10:18:02Z</time></trkpt><trkpt lat="59.3416942377" lon="34.6673962846"><ele>169.69</ele><time>2026-08-14T10:18:23Z</time></trkpt><trkpt lat="59.3416442815" lon="34.6677724645"><ele>168.91</ele><time>2026-08-14T10:18:41Z</time></trkpt><trkpt lat="59.3416333850" lon="34.6679997817"><ele>168.97</ele><time>2026-08-14T10:18:55Z</time></trkpt><trkpt lat="59.3416036293" lon="34.6680174675"><ele>168.07</ele><time>2026-08-14T10:19:18Z</time></trkpt><trkpt lat="59.3416103348" lon="34.6680266876"><ele>168.29</ele><time>2026-08-14T10:19:43Z</time></trkpt><trkpt lat="59.3416435272" lon="34.6679768991"><ele>171.03</ele><time>2026-08-14T10:20:16Z</time></trkpt><trkpt lat="59.3416153640" lon="34.6680961736"><ele>168.66</ele><time>2026-08-14T10:20:42Z</time></trkpt><trkpt lat="59.3416081555" lon="34.6683012787"><ele>168.01</ele><time>2026-08-14T10:20:55Z</time></trkpt><trkpt lat="59.3416114245" lon="34.6683304477"><ele>168.15</ele><time>2026-08-14T10:20:57Z</time></trkpt><trkpt lat="59.3415653240" lon="34.6685344633"><ele>168.26</ele><time>2026-08-14T10:21:09Z</time></trkpt><trkpt lat="59.3415617198" lon="34.6685546637"><ele>168.03</ele><time>2026-08-14T10:21:10Z</time></trkpt><trkpt lat="59.3415132724" lon="34.6687161829"><ele>167.16</ele><time>2026-08-14T10:21:21Z</time></trkpt><trkpt lat="59.3414548505" lon="34.6688559931"><ele>166.02</ele><time>2026-08-14T10:21:36Z</time></trkpt><trkpt lat="59.3414424453" lon="34.6689842362"><ele>166.79</ele><time>2026-08-14T10:21:49Z</time></trkpt><trkpt lat="59.3414734583" lon="34.6690740902"><ele>164.69</ele><time>2026-08-14T10:22:07Z</time></trkpt><trkpt lat="59.3414873723" lon="34.6691246331"><ele>164.49</ele><time>2026-08-14T10:22:23Z</time></trkpt><trkpt lat="59.3415148649" lon="34.6690989845"><ele>162.40</ele><time>2026-08-14T10:22:42Z</time></trkpt><trkpt lat="59.3415036332" lon="34.6691214480"><ele>162.81</ele><time>2026-08-14T10:22:54Z</time></trkpt><trkpt lat="59.3414980173" lon="34.6691281535"><ele>162.61</ele><time>2026-08-14T10:23:13Z</time></trkpt><trkpt lat="59.3414799962" lon="34.6691111382"><ele>162.15</ele><time>2026-08-14T10:23:44Z</time></trkpt><trkpt lat="59.3414616399" lon="34.6691977233"><ele>162.76</ele><time>2026-08-14T10:24:04Z</time></trkpt><trkpt lat="59.3414417747" lon="34.6693406347"><ele>163.25</ele><time>2026-08-14T10:24:17Z</time></trkpt><trkpt lat="59.3414469715" lon="34.6694793552"><ele>163.39</ele><time>2026-08-14T10:24:31Z</time></trkpt><trkpt lat="59.3414667528" lon="34.6695960313"><ele>162.49</ele><time>2026-08-14T10:24:44Z</time></trkpt><trkpt lat="59.3414581195" lon="34.6697748173"><ele>165.37</ele><time>2026-08-14T10:25:00Z</time></trkpt><trkpt lat="59.3414157908" lon="34.6700046491"><ele>166.90</ele><time>2026-08-14T10:25:17Z</time></trkpt><trkpt lat="59.3413527589" lon="34.6701741312"><ele>165.60</ele><time>2026-08-14T10:25:32Z</time></trkpt><trkpt lat="59.3413462210" lon="34.6701626480"><ele>164.54</ele><time>2026-08-14T10:26:03Z</time></trkpt><trkpt lat="59.3413153756" lon="34.6701847762"><ele>164.89</ele><time>2026-08-14T10:26:43Z</time></trkpt><trkpt lat="59.3413607217" lon="34.6702465508"><ele>164.31</ele><time>2026-08-14T10:27:10Z</time></trkpt><trkpt lat="59.3413315527" lon="34.6705391631"><ele>164.97</ele><time>2026-08-14T10:27:31Z</time></trkpt><trkpt lat="59.3412416987" lon="34.6707725991"><ele>166.55</ele><time>2026-08-14T10:27:46Z</time></trkpt><trkpt lat="59.3411514256" lon="34.6709839907"><ele>166.08</ele><time>2026-08-14T10:27:58Z</time></trkpt><trkpt lat="59.3411180656" lon="34.6711829770"><ele>164.72</ele><time>2026-08-14T10:28:11Z</time></trkpt><trkpt lat="59.3411142938" lon="34.6713131480"><ele>165.98</ele><time>2026-08-14T10:28:22Z</time></trkpt><trkpt lat="59.3411331531" lon="34.6713372879"><ele>165.67</ele><time>2026-08-14T10:28:35Z</time></trkpt><trkpt lat="59.3410950992" lon="34.6713401377"><ele>166.33</ele><time>2026-08-14T10:29:03Z</time></trkpt><trkpt lat="59.3410910759" lon="34.6713259723"><ele>166.06</ele><time>2026-08-14T10:29:21Z</time></trkpt><trkpt lat="59.3410743959" lon="34.6713467594"><ele>165.25</ele><time>2026-08-14T10:29:53Z</time></trkpt><trkpt lat="59.3411036488" lon="34.6713096276"><ele>164.54</ele><time>2026-08-14T10:30:15Z</time></trkpt><trkpt lat="59.3410797603" lon="34.6713663731"><ele>165.73</ele><time>2026-08-14T10:30:44Z</time></trkpt><trkpt lat="59.3410110287" lon="34.6715477575"><ele>164.88</ele><time>2026-08-14T10:30:57Z</time></trkpt><trkpt lat="59.3409218453" lon="34.6718040761"><ele>164.75</ele><time>2026-08-14T10:31:09Z</time></trkpt><trkpt lat="59.3408616632" lon="34.6719558723"><ele>165.74</ele><time>2026-08-14T10:31:20Z</time></trkpt><trkpt lat="59.3408171553" lon="34.6722507477"><ele>165.98</ele><time>2026-08-14T10:31:35Z</time></trkpt><trkpt lat="59.3407665286" lon="34.6724831779"><ele>165.87</ele><time>2026-08-14T10:31:47Z</time></trkpt><trkpt lat="59.3407531176" lon="34.6726443619"><ele>166.39</ele><time>2026-08-14T10:32:02Z</time></trkpt><trkpt lat="59.3407475855" lon="34.6726967487"><ele>170.05</ele><time>2026-08-14T10:32:35Z</time></trkpt><trkpt lat="59.3407314923" lon="34.6727203857"><ele>171.90</ele><time>2026-08-14T10:32:58Z</time></trkpt><trkpt lat="59.3407391198" lon="34.6726857685"><ele>169.74</ele><time>2026-08-14T10:33:33Z</time></trkpt><trkpt lat="59.3407181650" lon="34.6728033666"><ele>168.38</ele><time>2026-08-14T10:33:48Z</time></trkpt><trkpt lat="59.3406934384" lon="34.6728357207"><ele>168.56</ele><time>2026-08-14T10:33:56Z</time></trkpt><trkpt lat="59.3405953702" lon="34.6730992477"><ele>167.71</ele><time>2026-08-14T10:34:09Z</time></trkpt><trkpt lat="59.3405931909" lon="34.6731976513"><ele>165.36</ele><time>2026-08-14T10:34:23Z</time></trkpt><trkpt lat="59.3405979685" lon="34.6733878367"><ele>165.15</ele><time>2026-08-14T10:34:37Z</time></trkpt><trkpt lat="59.3404682167" lon="34.6734711528"><ele>165.38</ele><time>2026-08-14T10:34:51Z</time></trkpt><trkpt lat="59.3404103816" lon="34.6736055985"><ele>165.93</ele><time>2026-08-14T10:35:02Z</time></trkpt><trkpt lat="59.3403377943" lon="34.6737554669"><ele>166.07</ele><time>2026-08-14T10:35:25Z</time></trkpt><trkpt lat="59.3403321784" lon="34.6738096979"><ele>166.20</ele><time>2026-08-14T10:35:47Z</time></trkpt><trkpt lat="59.3403149955" lon="34.6738164872"><ele>166.20</ele><time>2026-08-14T10:36:16Z</time></trkpt><trkpt lat="59.3402733374" lon="34.6737921797"><ele>166.49</ele><time>2026-08-14T10:36:52Z</time></trkpt><trkpt lat="59.3402399775" lon="34.6739734802"><ele>165.36</ele><time>2026-08-14T10:37:02Z</time></trkpt><trkpt lat="59.3402392231" lon="34.6740938444"><ele>168.54</ele><time>2026-08-14T10:37:23Z</time></trkpt><trkpt lat="59.3402116466" lon="34.6741814353"><ele>167.73</ele><time>2026-08-14T10:37:39Z</time></trkpt><trkpt lat="59.3401657976" lon="34.6741330717"><ele>168.16</ele><time>2026-08-14T10:37:46Z</time></trkpt><trkpt lat="59.3402373791" lon="34.6743477322"><ele>165.79</ele><time>2026-08-14T10:38:02Z</time></trkpt><trkpt lat="59.3402490299" lon="34.6745236684"><ele>165.34</ele><time>2026-08-14T10:38:13Z</time></trkpt><trkpt lat="59.3402960524" lon="34.6746487264"><ele>163.25</ele><time>2026-08-14T10:38:26Z</time></trkpt><trkpt lat="59.3403080385" lon="34.6748338826"><ele>163.43</ele><time>2026-08-14T10:38:39Z</time></trkpt><trkpt lat="59.3402989861" lon="34.6749676578"><ele>163.81</ele><time>2026-08-14T10:38:52Z</time></trkpt><trkpt lat="59.3402644526" lon="34.6751772892"><ele>162.90</ele><time>2026-08-14T10:39:06Z</time></trkpt><trkpt lat="59.3403269816" lon="34.6752864216"><ele>162.43</ele><time>2026-08-14T10:39:17Z</time></trkpt><trkpt lat="59.3403364532" lon="34.6754550654"><ele>161.07</ele><time>2026-08-14T10:39:31Z</time></trkpt><trkpt lat="59.3403724954" lon="34.6754810493"><ele>162.34</ele><time>2026-08-14T10:39:37Z</time></trkpt><trkpt lat="59.3404366169" lon="34.6756053530"><ele>162.68</ele><time>2026-08-14T10:39:48Z</time></trkpt><trkpt lat="59.3404074479" lon="34.6757349372"><ele>162.59</ele><time>2026-08-14T10:40:09Z</time></trkpt><trkpt lat="59.3403958809" lon="34.6757298242"><ele>162.83</ele><time>2026-08-14T10:40:51Z</time></trkpt><trkpt lat="59.3404155783" lon="34.6757343505"><ele>163.33</ele><time>2026-08-14T10:41:28Z</time></trkpt><trkpt lat="59.3404187635" lon="34.6757082827"><ele>164.89</ele><time>2026-08-14T10:41:58Z</time></trkpt><trkpt lat="59.3403855711" lon="34.6758756693"><ele>164.77</ele><time>2026-08-14T10:42:11Z</time></trkpt><trkpt lat="59.3403331842" lon="34.6760449838"><ele>164.23</ele><time>2026-08-14T10:42:25Z</time></trkpt><trkpt lat="59.3402531371" lon="34.6762988716"><ele>165.79</ele><time>2026-08-14T10:42:44Z</time></trkpt><trkpt lat="59.3402896821" lon="34.6764809266"><ele>164.24</ele><time>2026-08-14T10:43:00Z</time></trkpt><trkpt lat="59.3403436616" lon="34.6765919868"><ele>163.64</ele><time>2026-08-14T10:43:10Z</time></trkpt><trkpt lat="59.3403627723" lon="34.6766592935"><ele>164.30</ele><time>2026-08-14T10:43:20Z</time></trkpt><trkpt lat="59.3403888401" lon="34.6767583676"><ele>164.50</ele><time>2026-08-14T10:43:27Z</time></trkpt><trkpt lat="59.3404263910" lon="34.6767921466"><ele>159.82</ele><time>2026-08-14T10:43:38Z</time></trkpt><trkpt lat="59.3404422328" lon="34.6769020334"><ele>160.67</ele><time>2026-08-14T10:43:56Z</time></trkpt><trkpt lat="59.3404409755" lon="34.6769289393"><ele>161.63</ele><time>2026-08-14T10:44:12Z</time></trkpt><trkpt lat="59.3404244632" lon="34.6769613773"><ele>159.98</ele><time>2026-08-14T10:44:45Z</time></trkpt><trkpt lat="59.3404342700" lon="34.6769541688"><ele>161.98</ele><time>2026-08-14T10:44:58Z</time></trkpt><trkpt lat="59.3404054362" lon="34.6769990958"><ele>162.28</ele><time>2026-08-14T10:45:31Z</time></trkpt><trkpt lat="59.3403757643" lon="34.6771106590"><ele>163.06</ele><time>2026-08-14T10:45:44Z</time></trkpt><trkpt lat="59.3403480202" lon="34.6773142554"><ele>163.11</ele><time>2026-08-14T10:46:00Z</time></trkpt><trkpt lat="59.3403477687" lon="34.6773728449"><ele>162.78</ele><time>2026-08-14T10:46:04Z</time></trkpt><trkpt lat="59.3403382972" lon="34.6775173489"><ele>163.37</ele><time>2026-08-14T10:46:16Z</time></trkpt><trkpt lat="59.3403268978" lon="34.6776690613"><ele>161.45</ele><time>2026-08-14T10:46:29Z</time></trkpt><trkpt lat="59.3403407279" lon="34.6778816264"><ele>162.10</ele><time>2026-08-14T10:46:45Z</time></trkpt><trkpt lat="59.3403008301" lon="34.6780014876"><ele>161.03</ele><time>2026-08-14T10:46:57Z</time></trkpt><trkpt lat="59.3403097987" lon="34.6780356858"><ele>162.34</ele><time>2026-08-14T10:47:16Z</time></trkpt><trkpt lat="59.3403165881" lon="34.6780557185"><ele>164.30</ele><time>2026-08-14T10:48:05Z</time></trkpt><trkpt lat="59.3403173424" lon="34.6780636813"><ele>166.64</ele><time>2026-08-14T10:49:13Z</time></trkpt><trkpt lat="59.3403238803" lon="34.6780704707"><ele>165.98</ele><time>2026-08-14T10:49:32Z</time></trkpt><trkpt lat="59.3403268978" lon="34.6780868992"><ele>166.10</ele><time>2026-08-14T10:49:36Z</time></trkpt><trkpt lat="59.3403247185" lon="34.6780674532"><ele>167.82</ele><time>2026-08-14T10:49:52Z</time></trkpt><trkpt lat="59.3403188512" lon="34.6781716403"><ele>166.11</ele><time>2026-08-14T10:50:15Z</time></trkpt><trkpt lat="59.3403525464" lon="34.6782677807"><ele>166.71</ele><time>2026-08-14T10:50:30Z</time></trkpt><trkpt lat="59.3403428234" lon="34.6784376819"><ele>166.22</ele><time>2026-08-14T10:50:55Z</time></trkpt><trkpt lat="59.3403079547" lon="34.6786426194"><ele>163.95</ele><time>2026-08-14T10:51:11Z</time></trkpt><trkpt lat="59.3402889278" lon="34.6786627360"><ele>164.38</ele><time>2026-08-14T10:51:18Z</time></trkpt><trkpt lat="59.3401977327" lon="34.6787075792"><ele>164.43</ele><time>2026-08-14T10:51:28Z</time></trkpt><trkpt lat="59.3401035201" lon="34.6788342297"><ele>164.97</ele><time>2026-08-14T10:51:39Z</time></trkpt><trkpt lat="59.3400208745" lon="34.6790090762"><ele>165.19</ele><time>2026-08-14T10:51:53Z</time></trkpt><trkpt lat="59.3400530610" lon="34.6790938172"><ele>164.54</ele><time>2026-08-14T10:52:03Z</time></trkpt><trkpt lat="59.3400323577" lon="34.6792750340"><ele>165.01</ele><time>2026-08-14T10:52:17Z</time></trkpt><trkpt lat="59.3400384765" lon="34.6792856790"><ele>166.49</ele><time>2026-08-14T10:52:50Z</time></trkpt><trkpt lat="59.3400267418" lon="34.6792899538"><ele>162.54</ele><time>2026-08-14T10:53:07Z</time></trkpt><trkpt lat="59.3400125764" lon="34.6792967431"><ele>163.23</ele><time>2026-08-14T10:53:34Z</time></trkpt><trkpt lat="59.3399638776" lon="34.6794065461"><ele>160.27</ele><time>2026-08-14T10:54:01Z</time></trkpt><trkpt lat="59.3399453536" lon="34.6794537362"><ele>163.69</ele><time>2026-08-14T10:54:26Z</time></trkpt><trkpt lat="59.3399109878" lon="34.6796094719"><ele>163.80</ele><time>2026-08-14T10:54:49Z</time></trkpt><trkpt lat="59.3398849200" lon="34.6798095480"><ele>163.70</ele><time>2026-08-14T10:55:03Z</time></trkpt><trkpt lat="59.3398822378" lon="34.6798254736"><ele>163.85</ele><time>2026-08-14T10:55:04Z</time></trkpt><trkpt lat="59.3398725986" lon="34.6800170839"><ele>163.59</ele><time>2026-08-14T10:55:16Z</time></trkpt><trkpt lat="59.3398234807" lon="34.6802068502"><ele>164.09</ele><time>2026-08-14T10:55:28Z</time></trkpt><trkpt lat="59.3398037832" lon="34.6803469956"><ele>163.46</ele><time>2026-08-14T10:55:37Z</time></trkpt><trkpt lat="59.3397946469" lon="34.6804619953"><ele>163.95</ele><time>2026-08-14T10:55:58Z</time></trkpt><trkpt lat="59.3397661485" lon="34.6805910766"><ele>165.18</ele><time>2026-08-14T10:56:12Z</time></trkpt><trkpt lat="59.3397451937" lon="34.6805983689"><ele>164.30</ele><time>2026-08-14T10:56:38Z</time></trkpt><trkpt lat="59.3397436850" lon="34.6805943456"><ele>163.68</ele><time>2026-08-14T10:56:57Z</time></trkpt><trkpt lat="59.3397433497" lon="34.6806071699"><ele>163.27</ele><time>2026-08-14T10:57:50Z</time></trkpt><trkpt lat="59.3397249933" lon="34.6806765720"><ele>163.85</ele><time>2026-08-14T10:58:13Z</time></trkpt><trkpt lat="59.3396896217" lon="34.6808260214"><ele>163.22</ele><time>2026-08-14T10:58:27Z</time></trkpt><trkpt lat="59.3396567646" lon="34.6809445415"><ele>161.64</ele><time>2026-08-14T10:58:45Z</time></trkpt><trkpt lat="59.3396387435" lon="34.6810438670"><ele>160.12</ele><time>2026-08-14T10:59:04Z</time></trkpt><trkpt lat="59.3395774718" lon="34.6811204776"><ele>161.11</ele><time>2026-08-14T10:59:14Z</time></trkpt><trkpt lat="59.3395652343" lon="34.6814086474"><ele>161.45</ele><time>2026-08-14T10:59:29Z</time></trkpt><trkpt lat="59.3395823333" lon="34.6816076338"><ele>161.66</ele><time>2026-08-14T10:59:41Z</time></trkpt><trkpt lat="59.3395698443" lon="34.6817893535"><ele>162.75</ele><time>2026-08-14T10:59:54Z</time></trkpt><trkpt lat="59.3395815790" lon="34.6819460951"><ele>163.97</ele><time>2026-08-14T11:00:11Z</time></trkpt><trkpt lat="59.3396009412" lon="34.6819204465"><ele>163.91</ele><time>2026-08-14T11:00:39Z</time></trkpt><trkpt lat="59.3395848479" lon="34.6819816343"><ele>167.50</ele><time>2026-08-14T11:01:01Z</time></trkpt><trkpt lat="59.3395909667" lon="34.6819905192"><ele>164.89</ele><time>2026-08-14T11:01:21Z</time></trkpt><trkpt lat="59.3396097422" lon="34.6820509527"><ele>165.92</ele><time>2026-08-14T11:01:47Z</time></trkpt><trkpt lat="59.3396285176" lon="34.6823348477"><ele>166.17</ele><time>2026-08-14T11:02:02Z</time></trkpt><trkpt lat="59.3395626359" lon="34.6824460756"><ele>164.85</ele><time>2026-08-14T11:02:15Z</time></trkpt><trkpt lat="59.3394668307" lon="34.6825443953"><ele>163.92</ele><time>2026-08-14T11:02:28Z</time></trkpt><trkpt lat="59.3394572753" lon="34.6825560462"><ele>164.03</ele><time>2026-08-14T11:02:29Z</time></trkpt><trkpt lat="59.3393873703" lon="34.6826749854"><ele>163.75</ele><time>2026-08-14T11:02:39Z</time></trkpt><trkpt lat="59.3393097539" lon="34.6828607284"><ele>163.59</ele><time>2026-08-14T11:02:51Z</time></trkpt><trkpt lat="59.3392821774" lon="34.6829276998"><ele>164.18</ele><time>2026-08-14T11:03:04Z</time></trkpt><trkpt lat="59.3393001985" lon="34.6829202399"><ele>163.21</ele><time>2026-08-14T11:03:33Z</time></trkpt><trkpt lat="59.3393001985" lon="34.6829448827"><ele>163.05</ele><time>2026-08-14T11:04:31Z</time></trkpt><trkpt lat="59.3393217400" lon="34.6829307172"><ele>162.98</ele><time>2026-08-14T11:04:38Z</time></trkpt><trkpt lat="59.3394531682" lon="34.6829394344"><ele>164.34</ele><time>2026-08-14T11:04:53Z</time></trkpt><trkpt lat="59.3395239953" lon="34.6830321383"><ele>163.25</ele><time>2026-08-14T11:05:04Z</time></trkpt><trkpt lat="59.3395170383" lon="34.6830572840"><ele>165.47</ele><time>2026-08-14T11:05:25Z</time></trkpt><trkpt lat="59.3396227341" lon="34.6830244269"><ele>165.61</ele><time>2026-08-14T11:05:39Z</time></trkpt><trkpt lat="59.3396613747" lon="34.6830111835"><ele>164.64</ele><time>2026-08-14T11:05:45Z</time></trkpt><trkpt lat="59.3397792242" lon="34.6830386762"><ele>164.84</ele><time>2026-08-14T11:05:54Z</time></trkpt><trkpt lat="59.3398025259" lon="34.6830680966"><ele>164.74</ele><time>2026-08-14T11:05:56Z</time></trkpt><trkpt lat="59.3399720918" lon="34.6831521671"><ele>163.95</ele><time>2026-08-14T11:06:10Z</time></trkpt><trkpt lat="59.3401482794" lon="34.6832200605"><ele>165.38</ele><time>2026-08-14T11:06:24Z</time></trkpt><trkpt lat="59.3403143249" lon="34.6832891274"><ele>165.53</ele><time>2026-08-14T11:06:39Z</time></trkpt><trkpt lat="59.3404527940" lon="34.6833253372"><ele>164.56</ele><time>2026-08-14T11:06:54Z</time></trkpt></trkseg></trk></gpx>